<?xml version='1.0' encoding='UTF-8'?>
<gpx version="1.1" creator="https://www.komoot.de" xmlns="http://www.topografix.com/GPX/1/1" xmlns:xsi="http://www.w3.org/2001/XMLSchema-instance" xsi:schemaLocation="http://www.topografix.com/GPX/1/1 http://www.topografix.com/GPX/1/1/gpx.xsd">
  <metadata>
    <name>80_1300BenkerjAuensSulz</name>
    <author>
      <link href="https://www.komoot.de">
        <text>komoot</text>
        <type>text/html</type>
      </link>
    </author>
  </metadata>
  <trk>
    <name>80_1300BenkerjAuensSulz</name>
    <trkseg>
      <trkpt lat="47.541275" lon="7.870903">
        <ele>342.684512</ele>
        <time>2021-11-22T06:59:38.255Z</time>
      </trkpt>
      <trkpt lat="47.540933" lon="7.871187">
        <ele>342.684512</ele>
        <time>2021-11-22T06:59:47.204Z</time>
      </trkpt>
      <trkpt lat="47.540894" lon="7.871220">
        <ele>342.684512</ele>
        <time>2021-11-22T06:59:48.338Z</time>
      </trkpt>
      <trkpt lat="47.540693" lon="7.871390">
        <ele>342.684512</ele>
        <time>2021-11-22T06:59:53.732Z</time>
      </trkpt>
      <trkpt lat="47.540463" lon="7.871584">
        <ele>342.745628</ele>
        <time>2021-11-22T06:59:59.915Z</time>
      </trkpt>
      <trkpt lat="47.540265" lon="7.871808">
        <ele>343.196254</ele>
        <time>2021-11-22T07:00:05.393Z</time>
      </trkpt>
      <trkpt lat="47.540216" lon="7.871851">
        <ele>343.299266</ele>
        <time>2021-11-22T07:00:06.856Z</time>
      </trkpt>
      <trkpt lat="47.540034" lon="7.871970">
        <ele>343.659097</ele>
        <time>2021-11-22T07:00:11.417Z</time>
      </trkpt>
      <trkpt lat="47.539930" lon="7.872041">
        <ele>343.866222</ele>
        <time>2021-11-22T07:00:13.996Z</time>
      </trkpt>
      <trkpt lat="47.539841" lon="7.872151">
        <ele>344.075873</ele>
        <time>2021-11-22T07:00:17.019Z</time>
      </trkpt>
      <trkpt lat="47.539678" lon="7.872430">
        <ele>344.526402</ele>
        <time>2021-11-22T07:00:22.532Z</time>
      </trkpt>
      <trkpt lat="47.539222" lon="7.873416">
        <ele>345.964591</ele>
        <time>2021-11-22T07:00:40.074Z</time>
      </trkpt>
      <trkpt lat="47.538278" lon="7.874319">
        <ele>347.100189</ele>
        <time>2021-11-22T07:00:59.727Z</time>
      </trkpt>
      <trkpt lat="47.537716" lon="7.874966">
        <ele>347.882126</ele>
        <time>2021-11-22T07:01:13.703Z</time>
      </trkpt>
      <trkpt lat="47.537261" lon="7.875237">
        <ele>348.862241</ele>
        <time>2021-11-22T07:01:23.219Z</time>
      </trkpt>
      <trkpt lat="47.537182" lon="7.875293">
        <ele>349.037278</ele>
        <time>2021-11-22T07:01:25.208Z</time>
      </trkpt>
      <trkpt lat="47.536921" lon="7.875537">
        <ele>349.654113</ele>
        <time>2021-11-22T07:01:31.175Z</time>
      </trkpt>
      <trkpt lat="47.536757" lon="7.875759">
        <ele>350.098134</ele>
        <time>2021-11-22T07:01:35.777Z</time>
      </trkpt>
      <trkpt lat="47.536632" lon="7.875912">
        <ele>350.422216</ele>
        <time>2021-11-22T07:01:38.945Z</time>
      </trkpt>
      <trkpt lat="47.536444" lon="7.876177">
        <ele>350.940892</ele>
        <time>2021-11-22T07:01:45.906Z</time>
      </trkpt>
      <trkpt lat="47.535851" lon="7.877319">
        <ele>355.098700</ele>
        <time>2021-11-22T07:02:17.220Z</time>
      </trkpt>
      <trkpt lat="47.535770" lon="7.877432">
        <ele>355.641881</ele>
        <time>2021-11-22T07:02:21.400Z</time>
      </trkpt>
      <trkpt lat="47.535635" lon="7.877484">
        <ele>356.322821</ele>
        <time>2021-11-22T07:02:27.267Z</time>
      </trkpt>
      <trkpt lat="47.535551" lon="7.877487">
        <ele>356.732997</ele>
        <time>2021-11-22T07:02:29.176Z</time>
      </trkpt>
      <trkpt lat="47.535322" lon="7.877590">
        <ele>357.901296</ele>
        <time>2021-11-22T07:02:39.228Z</time>
      </trkpt>
      <trkpt lat="47.535088" lon="7.877742">
        <ele>359.148618</ele>
        <time>2021-11-22T07:02:47.059Z</time>
      </trkpt>
      <trkpt lat="47.534855" lon="7.878090">
        <ele>360.775169</ele>
        <time>2021-11-22T07:02:59.042Z</time>
      </trkpt>
      <trkpt lat="47.534778" lon="7.878270">
        <ele>361.489948</ele>
        <time>2021-11-22T07:03:06.350Z</time>
      </trkpt>
      <trkpt lat="47.534825" lon="7.878414">
        <ele>362.026459</ele>
        <time>2021-11-22T07:03:08.976Z</time>
      </trkpt>
      <trkpt lat="47.534946" lon="7.878790">
        <ele>363.423643</ele>
        <time>2021-11-22T07:03:21.024Z</time>
      </trkpt>
      <trkpt lat="47.534908" lon="7.878975">
        <ele>364.072281</ele>
        <time>2021-11-22T07:03:25.082Z</time>
      </trkpt>
      <trkpt lat="47.534616" lon="7.879490">
        <ele>366.328151</ele>
        <time>2021-11-22T07:03:42.028Z</time>
      </trkpt>
      <trkpt lat="47.533892" lon="7.880353">
        <ele>369.903613</ele>
        <time>2021-11-22T07:04:09.768Z</time>
      </trkpt>
      <trkpt lat="47.533606" lon="7.880961">
        <ele>371.010837</ele>
        <time>2021-11-22T07:04:22.077Z</time>
      </trkpt>
      <trkpt lat="47.533374" lon="7.881639">
        <ele>372.146589</ele>
        <time>2021-11-22T07:04:33.122Z</time>
      </trkpt>
      <trkpt lat="47.533014" lon="7.882949">
        <ele>372.960731</ele>
        <time>2021-11-22T07:04:51.037Z</time>
      </trkpt>
      <trkpt lat="47.532859" lon="7.883508">
        <ele>372.896193</ele>
        <time>2021-11-22T07:04:56.915Z</time>
      </trkpt>
      <trkpt lat="47.532713" lon="7.884122">
        <ele>372.826672</ele>
        <time>2021-11-22T07:05:02.612Z</time>
      </trkpt>
      <trkpt lat="47.532699" lon="7.884224">
        <ele>372.815556</ele>
        <time>2021-11-22T07:05:03.566Z</time>
      </trkpt>
      <trkpt lat="47.532670" lon="7.884773">
        <ele>372.701794</ele>
        <time>2021-11-22T07:05:08.060Z</time>
      </trkpt>
      <trkpt lat="47.532658" lon="7.884989">
        <ele>372.471630</ele>
        <time>2021-11-22T07:05:09.672Z</time>
      </trkpt>
      <trkpt lat="47.532650" lon="7.885569">
        <ele>371.855551</ele>
        <time>2021-11-22T07:05:14.174Z</time>
      </trkpt>
      <trkpt lat="47.532505" lon="7.887120">
        <ele>370.192696</ele>
        <time>2021-11-22T07:05:26.126Z</time>
      </trkpt>
      <trkpt lat="47.532288" lon="7.887728">
        <ele>369.463253</ele>
        <time>2021-11-22T07:05:31.302Z</time>
      </trkpt>
      <trkpt lat="47.532011" lon="7.888896">
        <ele>368.151088</ele>
        <time>2021-11-22T07:05:40.532Z</time>
      </trkpt>
      <trkpt lat="47.531843" lon="7.889349">
        <ele>367.603267</ele>
        <time>2021-11-22T07:05:44.569Z</time>
      </trkpt>
      <trkpt lat="47.531560" lon="7.889776">
        <ele>367.114796</ele>
        <time>2021-11-22T07:05:49.509Z</time>
      </trkpt>
      <trkpt lat="47.531265" lon="7.889937">
        <ele>367.131115</ele>
        <time>2021-11-22T07:05:53.477Z</time>
      </trkpt>
      <trkpt lat="47.531076" lon="7.890029">
        <ele>367.141441</ele>
        <time>2021-11-22T07:05:56.318Z</time>
      </trkpt>
      <trkpt lat="47.530606" lon="7.890373">
        <ele>367.168653</ele>
        <time>2021-11-22T07:06:04.167Z</time>
      </trkpt>
      <trkpt lat="47.530322" lon="7.890690">
        <ele>367.187112</ele>
        <time>2021-11-22T07:06:10.160Z</time>
      </trkpt>
      <trkpt lat="47.529972" lon="7.891210">
        <ele>367.392328</ele>
        <time>2021-11-22T07:06:19.322Z</time>
      </trkpt>
      <trkpt lat="47.529714" lon="7.891609">
        <ele>367.783228</ele>
        <time>2021-11-22T07:06:26.656Z</time>
      </trkpt>
      <trkpt lat="47.529695" lon="7.891638">
        <ele>367.811820</ele>
        <time>2021-11-22T07:06:27.643Z</time>
      </trkpt>
      <trkpt lat="47.529235" lon="7.892158">
        <ele>368.418245</ele>
        <time>2021-11-22T07:06:38.576Z</time>
      </trkpt>
      <trkpt lat="47.528331" lon="7.892682">
        <ele>369.588086</ele>
        <time>2021-11-22T07:06:57.279Z</time>
      </trkpt>
      <trkpt lat="47.528003" lon="7.892732">
        <ele>370.085428</ele>
        <time>2021-11-22T07:07:02.985Z</time>
      </trkpt>
      <trkpt lat="47.527498" lon="7.892650">
        <ele>370.851693</ele>
        <time>2021-11-22T07:07:12.457Z</time>
      </trkpt>
      <trkpt lat="47.527011" lon="7.893061">
        <ele>371.697143</ele>
        <time>2021-11-22T07:07:25.650Z</time>
      </trkpt>
      <trkpt lat="47.526709" lon="7.893617">
        <ele>372.951937</ele>
        <time>2021-11-22T07:07:38.182Z</time>
      </trkpt>
      <trkpt lat="47.526504" lon="7.894030">
        <ele>373.916755</ele>
        <time>2021-11-22T07:07:48.363Z</time>
      </trkpt>
      <trkpt lat="47.526451" lon="7.893983">
        <ele>374.088957</ele>
        <time>2021-11-22T07:07:49.752Z</time>
      </trkpt>
      <trkpt lat="47.526401" lon="7.893964">
        <ele>374.232849</ele>
        <time>2021-11-22T07:07:50.570Z</time>
      </trkpt>
      <trkpt lat="47.526335" lon="7.893960">
        <ele>374.416981</ele>
        <time>2021-11-22T07:07:52.643Z</time>
      </trkpt>
      <trkpt lat="47.526257" lon="7.894278">
        <ele>375.053817</ele>
        <time>2021-11-22T07:07:58.855Z</time>
      </trkpt>
      <trkpt lat="47.525725" lon="7.895110">
        <ele>377.028403</ele>
        <time>2021-11-22T07:08:17.937Z</time>
      </trkpt>
      <trkpt lat="47.525603" lon="7.895265">
        <ele>377.270068</ele>
        <time>2021-11-22T07:08:23.553Z</time>
      </trkpt>
      <trkpt lat="47.525631" lon="7.895442">
        <ele>377.454622</ele>
        <time>2021-11-22T07:08:26.403Z</time>
      </trkpt>
      <trkpt lat="47.525631" lon="7.895583">
        <ele>377.597764</ele>
        <time>2021-11-22T07:08:27.595Z</time>
      </trkpt>
      <trkpt lat="47.525622" lon="7.895944">
        <ele>377.964499</ele>
        <time>2021-11-22T07:08:35.030Z</time>
      </trkpt>
      <trkpt lat="47.525590" lon="7.896117">
        <ele>378.146597</ele>
        <time>2021-11-22T07:08:36.583Z</time>
      </trkpt>
      <trkpt lat="47.525518" lon="7.896336">
        <ele>378.393876</ele>
        <time>2021-11-22T07:08:41.390Z</time>
      </trkpt>
      <trkpt lat="47.524834" lon="7.897636">
        <ele>379.510128</ele>
        <time>2021-11-22T07:08:58.314Z</time>
      </trkpt>
      <trkpt lat="47.524617" lon="7.898216">
        <ele>379.499020</ele>
        <time>2021-11-22T07:09:04.487Z</time>
      </trkpt>
      <trkpt lat="47.524360" lon="7.898951">
        <ele>379.485155</ele>
        <time>2021-11-22T07:09:12.028Z</time>
      </trkpt>
      <trkpt lat="47.524309" lon="7.899115">
        <ele>379.482130</ele>
        <time>2021-11-22T07:09:13.942Z</time>
      </trkpt>
      <trkpt lat="47.523896" lon="7.900001">
        <ele>380.205491</ele>
        <time>2021-11-22T07:09:25.864Z</time>
      </trkpt>
      <trkpt lat="47.523861" lon="7.900049">
        <ele>380.288250</ele>
        <time>2021-11-22T07:09:26.844Z</time>
      </trkpt>
      <trkpt lat="47.523890" lon="7.900131">
        <ele>380.396692</ele>
        <time>2021-11-22T07:09:27.798Z</time>
      </trkpt>
      <trkpt lat="47.523945" lon="7.900256">
        <ele>380.571475</ele>
        <time>2021-11-22T07:09:29.389Z</time>
      </trkpt>
      <trkpt lat="47.523989" lon="7.900340">
        <ele>380.696018</ele>
        <time>2021-11-22T07:09:30.439Z</time>
      </trkpt>
      <trkpt lat="47.523957" lon="7.900371">
        <ele>380.762357</ele>
        <time>2021-11-22T07:09:31.144Z</time>
      </trkpt>
      <trkpt lat="47.523878" lon="7.900445">
        <ele>380.924527</ele>
        <time>2021-11-22T07:09:33.261Z</time>
      </trkpt>
      <trkpt lat="47.523739" lon="7.900557">
        <ele>381.199058</ele>
        <time>2021-11-22T07:09:36.192Z</time>
      </trkpt>
      <trkpt lat="47.523648" lon="7.900606">
        <ele>381.367043</ele>
        <time>2021-11-22T07:09:38.371Z</time>
      </trkpt>
      <trkpt lat="47.523620" lon="7.900698">
        <ele>381.485264</ele>
        <time>2021-11-22T07:09:40.335Z</time>
      </trkpt>
      <trkpt lat="47.523567" lon="7.900820">
        <ele>381.655212</ele>
        <time>2021-11-22T07:09:42.432Z</time>
      </trkpt>
      <trkpt lat="47.523433" lon="7.901043">
        <ele>382.004919</ele>
        <time>2021-11-22T07:09:47.676Z</time>
      </trkpt>
      <trkpt lat="47.523340" lon="7.901197">
        <ele>382.246954</ele>
        <time>2021-11-22T07:09:51.718Z</time>
      </trkpt>
      <trkpt lat="47.523036" lon="7.901580">
        <ele>383.412107</ele>
        <time>2021-11-22T07:10:03.414Z</time>
      </trkpt>
      <trkpt lat="47.522688" lon="7.901843">
        <ele>385.020091</ele>
        <time>2021-11-22T07:10:15.732Z</time>
      </trkpt>
      <trkpt lat="47.522554" lon="7.901999">
        <ele>385.721611</ele>
        <time>2021-11-22T07:10:22.053Z</time>
      </trkpt>
      <trkpt lat="47.522260" lon="7.902356">
        <ele>387.286406</ele>
        <time>2021-11-22T07:10:34.426Z</time>
      </trkpt>
      <trkpt lat="47.522132" lon="7.902476">
        <ele>387.909908</ele>
        <time>2021-11-22T07:10:38.984Z</time>
      </trkpt>
      <trkpt lat="47.522065" lon="7.902526">
        <ele>388.218694</ele>
        <time>2021-11-22T07:10:41.179Z</time>
      </trkpt>
      <trkpt lat="47.522038" lon="7.902562">
        <ele>388.368224</ele>
        <time>2021-11-22T07:10:42.683Z</time>
      </trkpt>
      <trkpt lat="47.522013" lon="7.902637">
        <ele>388.600684</ele>
        <time>2021-11-22T07:10:44.816Z</time>
      </trkpt>
      <trkpt lat="47.521792" lon="7.903347">
        <ele>390.545278</ele>
        <time>2021-11-22T07:11:00.884Z</time>
      </trkpt>
      <trkpt lat="47.521297" lon="7.904312">
        <ele>392.922651</ele>
        <time>2021-11-22T07:11:24.887Z</time>
      </trkpt>
      <trkpt lat="47.520989" lon="7.905130">
        <ele>394.760018</ele>
        <time>2021-11-22T07:11:40.017Z</time>
      </trkpt>
      <trkpt lat="47.520678" lon="7.906050">
        <ele>395.529363</ele>
        <time>2021-11-22T07:11:53.771Z</time>
      </trkpt>
      <trkpt lat="47.520566" lon="7.906668">
        <ele>395.776828</ele>
        <time>2021-11-22T07:12:00.684Z</time>
      </trkpt>
      <trkpt lat="47.520528" lon="7.906930">
        <ele>395.880466</ele>
        <time>2021-11-22T07:12:04.051Z</time>
      </trkpt>
      <trkpt lat="47.520515" lon="7.907103">
        <ele>395.947786</ele>
        <time>2021-11-22T07:12:05.849Z</time>
      </trkpt>
      <trkpt lat="47.520515" lon="7.907103">
        <ele>395.947786</ele>
        <time>2021-11-22T07:12:05.855Z</time>
      </trkpt>
      <trkpt lat="47.520506" lon="7.907236">
        <ele>395.999480</ele>
        <time>2021-11-22T07:12:07.109Z</time>
      </trkpt>
      <trkpt lat="47.520551" lon="7.907422">
        <ele>396.075892</ele>
        <time>2021-11-22T07:12:09.519Z</time>
      </trkpt>
      <trkpt lat="47.520733" lon="7.907655">
        <ele>396.213673</ele>
        <time>2021-11-22T07:12:12.706Z</time>
      </trkpt>
      <trkpt lat="47.520738" lon="7.907839">
        <ele>396.267522</ele>
        <time>2021-11-22T07:12:14.849Z</time>
      </trkpt>
      <trkpt lat="47.520493" lon="7.908683">
        <ele>396.430972</ele>
        <time>2021-11-22T07:12:23.028Z</time>
      </trkpt>
      <trkpt lat="47.519997" lon="7.910833">
        <ele>397.184126</ele>
        <time>2021-11-22T07:12:49.375Z</time>
      </trkpt>
      <trkpt lat="47.519891" lon="7.911129">
        <ele>397.435234</ele>
        <time>2021-11-22T07:12:54.168Z</time>
      </trkpt>
      <trkpt lat="47.519720" lon="7.911522">
        <ele>397.785624</ele>
        <time>2021-11-22T07:13:00.464Z</time>
      </trkpt>
      <trkpt lat="47.519421" lon="7.912098">
        <ele>398.330125</ele>
        <time>2021-11-22T07:13:10.257Z</time>
      </trkpt>
      <trkpt lat="47.519172" lon="7.912431">
        <ele>398.702489</ele>
        <time>2021-11-22T07:13:17.127Z</time>
      </trkpt>
      <trkpt lat="47.517688" lon="7.914418">
        <ele>400.675497</ele>
        <time>2021-11-22T07:13:54.446Z</time>
      </trkpt>
      <trkpt lat="47.517281" lon="7.915238">
        <ele>401.277508</ele>
        <time>2021-11-22T07:14:07.035Z</time>
      </trkpt>
      <trkpt lat="47.517140" lon="7.915259">
        <ele>401.401640</ele>
        <time>2021-11-22T07:14:09.489Z</time>
      </trkpt>
      <trkpt lat="47.516806" lon="7.914896">
        <ele>401.764559</ele>
        <time>2021-11-22T07:14:16.977Z</time>
      </trkpt>
      <trkpt lat="47.516748" lon="7.914873">
        <ele>401.817154</ele>
        <time>2021-11-22T07:14:18.141Z</time>
      </trkpt>
      <trkpt lat="47.516662" lon="7.914835">
        <ele>401.895768</ele>
        <time>2021-11-22T07:14:19.921Z</time>
      </trkpt>
      <trkpt lat="47.516626" lon="7.914830">
        <ele>401.927441</ele>
        <time>2021-11-22T07:14:20.612Z</time>
      </trkpt>
      <trkpt lat="47.516590" lon="7.914840">
        <ele>401.959525</ele>
        <time>2021-11-22T07:14:21.209Z</time>
      </trkpt>
      <trkpt lat="47.516569" lon="7.914864">
        <ele>401.982762</ele>
        <time>2021-11-22T07:14:21.745Z</time>
      </trkpt>
      <trkpt lat="47.516544" lon="7.914936">
        <ele>402.030656</ele>
        <time>2021-11-22T07:14:22.593Z</time>
      </trkpt>
      <trkpt lat="47.516391" lon="7.915243">
        <ele>402.260885</ele>
        <time>2021-11-22T07:14:27.392Z</time>
      </trkpt>
      <trkpt lat="47.515823" lon="7.915981">
        <ele>402.940781</ele>
        <time>2021-11-22T07:14:41.009Z</time>
      </trkpt>
      <trkpt lat="47.515014" lon="7.917030">
        <ele>404.019265</ele>
        <time>2021-11-22T07:15:01.170Z</time>
      </trkpt>
      <trkpt lat="47.514635" lon="7.917349">
        <ele>404.628992</ele>
        <time>2021-11-22T07:15:09.265Z</time>
      </trkpt>
      <trkpt lat="47.514561" lon="7.917409">
        <ele>404.746990</ele>
        <time>2021-11-22T07:15:11.149Z</time>
      </trkpt>
      <trkpt lat="47.514255" lon="7.917714">
        <ele>405.262898</ele>
        <time>2021-11-22T07:15:18.589Z</time>
      </trkpt>
      <trkpt lat="47.513378" lon="7.918393">
        <ele>406.793234</ele>
        <time>2021-11-22T07:15:40.293Z</time>
      </trkpt>
      <trkpt lat="47.513160" lon="7.918764">
        <ele>407.418193</ele>
        <time>2021-11-22T07:15:47.794Z</time>
      </trkpt>
      <trkpt lat="47.513058" lon="7.918896">
        <ele>407.673103</ele>
        <time>2021-11-22T07:15:50.950Z</time>
      </trkpt>
      <trkpt lat="47.512938" lon="7.919052">
        <ele>407.973588</ele>
        <time>2021-11-22T07:15:54.729Z</time>
      </trkpt>
      <trkpt lat="47.512664" lon="7.919306">
        <ele>408.581877</ele>
        <time>2021-11-22T07:16:02.055Z</time>
      </trkpt>
      <trkpt lat="47.512255" lon="7.919538">
        <ele>409.406016</ele>
        <time>2021-11-22T07:16:11.740Z</time>
      </trkpt>
      <trkpt lat="47.512085" lon="7.919732">
        <ele>409.728667</ele>
        <time>2021-11-22T07:16:16.365Z</time>
      </trkpt>
      <trkpt lat="47.511964" lon="7.919989">
        <ele>409.966525</ele>
        <time>2021-11-22T07:16:20.901Z</time>
      </trkpt>
      <trkpt lat="47.511883" lon="7.920133">
        <ele>410.108808</ele>
        <time>2021-11-22T07:16:23.556Z</time>
      </trkpt>
      <trkpt lat="47.511632" lon="7.920105">
        <ele>410.391759</ele>
        <time>2021-11-22T07:16:30.206Z</time>
      </trkpt>
      <trkpt lat="47.511613" lon="7.920183">
        <ele>410.454715</ele>
        <time>2021-11-22T07:16:31.121Z</time>
      </trkpt>
      <trkpt lat="47.511186" lon="7.920984">
        <ele>411.229486</ele>
        <time>2021-11-22T07:16:43.797Z</time>
      </trkpt>
      <trkpt lat="47.511067" lon="7.921207">
        <ele>411.445270</ele>
        <time>2021-11-22T07:16:47.113Z</time>
      </trkpt>
      <trkpt lat="47.511052" lon="7.921232">
        <ele>411.470660</ele>
        <time>2021-11-22T07:16:47.558Z</time>
      </trkpt>
      <trkpt lat="47.510872" lon="7.921477">
        <ele>411.741999</ele>
        <time>2021-11-22T07:16:51.882Z</time>
      </trkpt>
      <trkpt lat="47.510639" lon="7.921796">
        <ele>412.087884</ele>
        <time>2021-11-22T07:16:57.393Z</time>
      </trkpt>
      <trkpt lat="47.509688" lon="7.922616">
        <ele>413.287348</ele>
        <time>2021-11-22T07:17:17.882Z</time>
      </trkpt>
      <trkpt lat="47.509662" lon="7.922661">
        <ele>413.330942</ele>
        <time>2021-11-22T07:17:18.981Z</time>
      </trkpt>
      <trkpt lat="47.509615" lon="7.922742">
        <ele>413.409554</ele>
        <time>2021-11-22T07:17:20.861Z</time>
      </trkpt>
      <trkpt lat="47.509583" lon="7.922962">
        <ele>413.575227</ele>
        <time>2021-11-22T07:17:23.628Z</time>
      </trkpt>
      <trkpt lat="47.509550" lon="7.923245">
        <ele>413.974577</ele>
        <time>2021-11-22T07:17:28.335Z</time>
      </trkpt>
      <trkpt lat="47.509595" lon="7.923295">
        <ele>414.094599</ele>
        <time>2021-11-22T07:17:29.442Z</time>
      </trkpt>
      <trkpt lat="47.509668" lon="7.923400">
        <ele>414.311716</ele>
        <time>2021-11-22T07:17:31.371Z</time>
      </trkpt>
      <trkpt lat="47.509817" lon="7.923703">
        <ele>414.851754</ele>
        <time>2021-11-22T07:17:37.538Z</time>
      </trkpt>
      <trkpt lat="47.509869" lon="7.923971">
        <ele>415.253531</ele>
        <time>2021-11-22T07:17:41.455Z</time>
      </trkpt>
      <trkpt lat="47.509886" lon="7.924134">
        <ele>415.491180</ele>
        <time>2021-11-22T07:17:44.768Z</time>
      </trkpt>
      <trkpt lat="47.509806" lon="7.924174">
        <ele>415.671306</ele>
        <time>2021-11-22T07:17:46.529Z</time>
      </trkpt>
      <trkpt lat="47.509676" lon="7.924247">
        <ele>415.967900</ele>
        <time>2021-11-22T07:17:49.439Z</time>
      </trkpt>
      <trkpt lat="47.509605" lon="7.924290">
        <ele>416.131541</ele>
        <time>2021-11-22T07:17:51.446Z</time>
      </trkpt>
      <trkpt lat="47.509572" lon="7.924311">
        <ele>416.208164</ele>
        <time>2021-11-22T07:17:52.665Z</time>
      </trkpt>
      <trkpt lat="47.509223" lon="7.924628">
        <ele>417.081605</ele>
        <time>2021-11-22T07:18:02.731Z</time>
      </trkpt>
      <trkpt lat="47.509032" lon="7.924863">
        <ele>417.614114</ele>
        <time>2021-11-22T07:18:08.668Z</time>
      </trkpt>
      <trkpt lat="47.509016" lon="7.924882">
        <ele>417.658516</ele>
        <time>2021-11-22T07:18:09.258Z</time>
      </trkpt>
      <trkpt lat="47.508667" lon="7.925295">
        <ele>418.625733</ele>
        <time>2021-11-22T07:18:20.289Z</time>
      </trkpt>
      <trkpt lat="47.508355" lon="7.925609">
        <ele>419.442437</ele>
        <time>2021-11-22T07:18:28.408Z</time>
      </trkpt>
      <trkpt lat="47.508106" lon="7.925799">
        <ele>420.048858</ele>
        <time>2021-11-22T07:18:34.508Z</time>
      </trkpt>
      <trkpt lat="47.508002" lon="7.925879">
        <ele>420.302574</ele>
        <time>2021-11-22T07:18:36.773Z</time>
      </trkpt>
      <trkpt lat="47.507856" lon="7.925990">
        <ele>420.657875</ele>
        <time>2021-11-22T07:18:40.499Z</time>
      </trkpt>
      <trkpt lat="47.506112" lon="7.927414">
        <ele>426.355475</ele>
        <time>2021-11-22T07:19:31.624Z</time>
      </trkpt>
      <trkpt lat="47.506105" lon="7.927419">
        <ele>426.378692</ele>
        <time>2021-11-22T07:19:32.435Z</time>
      </trkpt>
      <trkpt lat="47.505979" lon="7.927522">
        <ele>426.828014</ele>
        <time>2021-11-22T07:19:35.859Z</time>
      </trkpt>
      <trkpt lat="47.505881" lon="7.927601">
        <ele>427.217505</ele>
        <time>2021-11-22T07:19:40.982Z</time>
      </trkpt>
      <trkpt lat="47.505868" lon="7.927611">
        <ele>427.268641</ele>
        <time>2021-11-22T07:19:41.466Z</time>
      </trkpt>
      <trkpt lat="47.505814" lon="7.927657">
        <ele>427.486103</ele>
        <time>2021-11-22T07:19:43.360Z</time>
      </trkpt>
      <trkpt lat="47.505253" lon="7.928170">
        <ele>429.787707</ele>
        <time>2021-11-22T07:20:05.234Z</time>
      </trkpt>
      <trkpt lat="47.504799" lon="7.928777">
        <ele>431.923023</ele>
        <time>2021-11-22T07:20:20.974Z</time>
      </trkpt>
      <trkpt lat="47.504724" lon="7.928871">
        <ele>432.266032</ele>
        <time>2021-11-22T07:20:25.586Z</time>
      </trkpt>
      <trkpt lat="47.504650" lon="7.928941">
        <ele>432.572557</ele>
        <time>2021-11-22T07:20:27.558Z</time>
      </trkpt>
      <trkpt lat="47.504005" lon="7.929312">
        <ele>433.724164</ele>
        <time>2021-11-22T07:20:42.897Z</time>
      </trkpt>
      <trkpt lat="47.503815" lon="7.929426">
        <ele>433.991222</ele>
        <time>2021-11-22T07:20:45.766Z</time>
      </trkpt>
      <trkpt lat="47.503598" lon="7.929585">
        <ele>434.306627</ele>
        <time>2021-11-22T07:20:51.177Z</time>
      </trkpt>
      <trkpt lat="47.503528" lon="7.929650">
        <ele>434.414267</ele>
        <time>2021-11-22T07:20:52.235Z</time>
      </trkpt>
      <trkpt lat="47.503485" lon="7.929688">
        <ele>434.479503</ele>
        <time>2021-11-22T07:20:53.780Z</time>
      </trkpt>
      <trkpt lat="47.503014" lon="7.930220">
        <ele>435.251256</ele>
        <time>2021-11-22T07:21:03.864Z</time>
      </trkpt>
      <trkpt lat="47.502761" lon="7.930610">
        <ele>435.580320</ele>
        <time>2021-11-22T07:21:10.218Z</time>
      </trkpt>
      <trkpt lat="47.502613" lon="7.930856">
        <ele>435.767036</ele>
        <time>2021-11-22T07:21:14.016Z</time>
      </trkpt>
      <trkpt lat="47.502400" lon="7.931256">
        <ele>436.055732</ele>
        <time>2021-11-22T07:21:20.819Z</time>
      </trkpt>
      <trkpt lat="47.502023" lon="7.932158">
        <ele>436.656948</ele>
        <time>2021-11-22T07:21:33.837Z</time>
      </trkpt>
      <trkpt lat="47.501901" lon="7.932351">
        <ele>436.806769</ele>
        <time>2021-11-22T07:21:37.689Z</time>
      </trkpt>
      <trkpt lat="47.501794" lon="7.932466">
        <ele>436.955027</ele>
        <time>2021-11-22T07:21:39.509Z</time>
      </trkpt>
      <trkpt lat="47.501463" lon="7.932668">
        <ele>437.374846</ele>
        <time>2021-11-22T07:21:45.649Z</time>
      </trkpt>
      <trkpt lat="47.501075" lon="7.932885">
        <ele>437.861203</ele>
        <time>2021-11-22T07:21:53.468Z</time>
      </trkpt>
      <trkpt lat="47.500990" lon="7.932950">
        <ele>437.973388</ele>
        <time>2021-11-22T07:21:55.931Z</time>
      </trkpt>
      <trkpt lat="47.500843" lon="7.933102">
        <ele>438.183650</ele>
        <time>2021-11-22T07:21:58.802Z</time>
      </trkpt>
      <trkpt lat="47.500435" lon="7.933872">
        <ele>438.990228</ele>
        <time>2021-11-22T07:22:12.602Z</time>
      </trkpt>
      <trkpt lat="47.500386" lon="7.933937">
        <ele>439.160672</ele>
        <time>2021-11-22T07:22:13.822Z</time>
      </trkpt>
      <trkpt lat="47.500352" lon="7.933976">
        <ele>439.272096</ele>
        <time>2021-11-22T07:22:14.654Z</time>
      </trkpt>
      <trkpt lat="47.500275" lon="7.934029">
        <ele>439.492069</ele>
        <time>2021-11-22T07:22:17.057Z</time>
      </trkpt>
      <trkpt lat="47.500208" lon="7.934071">
        <ele>439.680549</ele>
        <time>2021-11-22T07:22:18.800Z</time>
      </trkpt>
      <trkpt lat="47.500193" lon="7.934023">
        <ele>439.773103</ele>
        <time>2021-11-22T07:22:19.430Z</time>
      </trkpt>
      <trkpt lat="47.500169" lon="7.933984">
        <ele>439.865425</ele>
        <time>2021-11-22T07:22:19.947Z</time>
      </trkpt>
      <trkpt lat="47.500138" lon="7.933956">
        <ele>439.959498</ele>
        <time>2021-11-22T07:22:20.736Z</time>
      </trkpt>
      <trkpt lat="47.500067" lon="7.933946">
        <ele>440.144248</ele>
        <time>2021-11-22T07:22:21.966Z</time>
      </trkpt>
      <trkpt lat="47.500034" lon="7.933965">
        <ele>440.235971</ele>
        <time>2021-11-22T07:22:22.942Z</time>
      </trkpt>
      <trkpt lat="47.500007" lon="7.933994">
        <ele>440.322386</ele>
        <time>2021-11-22T07:22:24.044Z</time>
      </trkpt>
      <trkpt lat="47.499971" lon="7.934127">
        <ele>440.573130</ele>
        <time>2021-11-22T07:22:26.614Z</time>
      </trkpt>
      <trkpt lat="47.499976" lon="7.934175">
        <ele>440.658125</ele>
        <time>2021-11-22T07:22:27.483Z</time>
      </trkpt>
      <trkpt lat="47.499991" lon="7.934221">
        <ele>440.747515</ele>
        <time>2021-11-22T07:22:27.976Z</time>
      </trkpt>
      <trkpt lat="47.500077" lon="7.934300">
        <ele>441.009704</ele>
        <time>2021-11-22T07:22:30.134Z</time>
      </trkpt>
      <trkpt lat="47.500111" lon="7.934299">
        <ele>441.097795</ele>
        <time>2021-11-22T07:22:30.771Z</time>
      </trkpt>
      <trkpt lat="47.500121" lon="7.934400">
        <ele>441.276439</ele>
        <time>2021-11-22T07:22:32.973Z</time>
      </trkpt>
      <trkpt lat="47.500241" lon="7.934939">
        <ele>442.269616</ele>
        <time>2021-11-22T07:22:42.961Z</time>
      </trkpt>
      <trkpt lat="47.500647" lon="7.936766">
        <ele>446.805484</ele>
        <time>2021-11-22T07:23:21.002Z</time>
      </trkpt>
      <trkpt lat="47.500700" lon="7.936982">
        <ele>447.437934</ele>
        <time>2021-11-22T07:23:25.963Z</time>
      </trkpt>
      <trkpt lat="47.500786" lon="7.937295">
        <ele>448.367860</ele>
        <time>2021-11-22T07:23:32.774Z</time>
      </trkpt>
      <trkpt lat="47.500922" lon="7.937675">
        <ele>449.551343</ele>
        <time>2021-11-22T07:23:41.934Z</time>
      </trkpt>
      <trkpt lat="47.501302" lon="7.938421">
        <ele>452.460631</ele>
        <time>2021-11-22T07:24:03.494Z</time>
      </trkpt>
      <trkpt lat="47.503196" lon="7.941586">
        <ele>468.039747</ele>
        <time>2021-11-22T07:25:47.263Z</time>
      </trkpt>
      <trkpt lat="47.503525" lon="7.942511">
        <ele>472.295555</ele>
        <time>2021-11-22T07:26:16.147Z</time>
      </trkpt>
      <trkpt lat="47.503757" lon="7.943678">
        <ele>477.683213</ele>
        <time>2021-11-22T07:26:50.403Z</time>
      </trkpt>
      <trkpt lat="47.503877" lon="7.944221">
        <ele>480.213500</ele>
        <time>2021-11-22T07:27:06.468Z</time>
      </trkpt>
      <trkpt lat="47.504206" lon="7.945339">
        <ele>485.579964</ele>
        <time>2021-11-22T07:27:39.895Z</time>
      </trkpt>
      <trkpt lat="47.504339" lon="7.946127">
        <ele>489.138930</ele>
        <time>2021-11-22T07:28:01.497Z</time>
      </trkpt>
      <trkpt lat="47.504360" lon="7.947339">
        <ele>494.441118</ele>
        <time>2021-11-22T07:28:36.264Z</time>
      </trkpt>
      <trkpt lat="47.504516" lon="7.948210">
        <ele>498.289935</ele>
        <time>2021-11-22T07:29:00.645Z</time>
      </trkpt>
      <trkpt lat="47.504564" lon="7.948438">
        <ele>499.309979</ele>
        <time>2021-11-22T07:29:07.771Z</time>
      </trkpt>
      <trkpt lat="47.504637" lon="7.948756">
        <ele>500.744523</ele>
        <time>2021-11-22T07:29:16.402Z</time>
      </trkpt>
      <trkpt lat="47.504833" lon="7.949650">
        <ele>504.759086</ele>
        <time>2021-11-22T07:29:41.173Z</time>
      </trkpt>
      <trkpt lat="47.505078" lon="7.950674">
        <ele>508.912306</ele>
        <time>2021-11-22T07:30:10.649Z</time>
      </trkpt>
      <trkpt lat="47.505298" lon="7.951312">
        <ele>511.597803</ele>
        <time>2021-11-22T07:30:27.919Z</time>
      </trkpt>
      <trkpt lat="47.505561" lon="7.951903">
        <ele>514.251041</ele>
        <time>2021-11-22T07:30:44.299Z</time>
      </trkpt>
      <trkpt lat="47.505724" lon="7.952248">
        <ele>515.786617</ele>
        <time>2021-11-22T07:30:54.242Z</time>
      </trkpt>
      <trkpt lat="47.506242" lon="7.953373">
        <ele>520.382439</ele>
        <time>2021-11-22T07:31:28.679Z</time>
      </trkpt>
      <trkpt lat="47.506403" lon="7.953752">
        <ele>521.893724</ele>
        <time>2021-11-22T07:31:40.099Z</time>
      </trkpt>
      <trkpt lat="47.506457" lon="7.953980">
        <ele>522.709287</ele>
        <time>2021-11-22T07:31:46.450Z</time>
      </trkpt>
      <trkpt lat="47.506539" lon="7.954325">
        <ele>523.943841</ele>
        <time>2021-11-22T07:31:53.977Z</time>
      </trkpt>
      <trkpt lat="47.506555" lon="7.954505">
        <ele>524.357759</ele>
        <time>2021-11-22T07:31:58.383Z</time>
      </trkpt>
      <trkpt lat="47.506559" lon="7.954699">
        <ele>524.241641</ele>
        <time>2021-11-22T07:32:02.234Z</time>
      </trkpt>
      <trkpt lat="47.506560" lon="7.954845">
        <ele>524.154290</ele>
        <time>2021-11-22T07:32:04.489Z</time>
      </trkpt>
      <trkpt lat="47.506539" lon="7.955130">
        <ele>523.982773</ele>
        <time>2021-11-22T07:32:10.252Z</time>
      </trkpt>
      <trkpt lat="47.506484" lon="7.955438">
        <ele>523.792178</ele>
        <time>2021-11-22T07:32:12.649Z</time>
      </trkpt>
      <trkpt lat="47.506190" lon="7.956344">
        <ele>523.190849</ele>
        <time>2021-11-22T07:32:20.345Z</time>
      </trkpt>
      <trkpt lat="47.506053" lon="7.957072">
        <ele>522.349557</ele>
        <time>2021-11-22T07:32:25.509Z</time>
      </trkpt>
      <trkpt lat="47.506050" lon="7.957299">
        <ele>521.269862</ele>
        <time>2021-11-22T07:32:26.952Z</time>
      </trkpt>
      <trkpt lat="47.506050" lon="7.957397">
        <ele>520.803827</ele>
        <time>2021-11-22T07:32:27.503Z</time>
      </trkpt>
      <trkpt lat="47.506128" lon="7.958087">
        <ele>517.476937</ele>
        <time>2021-11-22T07:32:31.778Z</time>
      </trkpt>
      <trkpt lat="47.506363" lon="7.959196">
        <ele>511.949764</ele>
        <time>2021-11-22T07:32:38.685Z</time>
      </trkpt>
      <trkpt lat="47.506641" lon="7.959810">
        <ele>508.432035</ele>
        <time>2021-11-22T07:32:43.071Z</time>
      </trkpt>
      <trkpt lat="47.506874" lon="7.960127">
        <ele>506.200738</ele>
        <time>2021-11-22T07:32:45.933Z</time>
      </trkpt>
      <trkpt lat="47.507319" lon="7.960495">
        <ele>502.606695</ele>
        <time>2021-11-22T07:32:50.561Z</time>
      </trkpt>
      <trkpt lat="47.509248" lon="7.961556">
        <ele>487.611191</ele>
        <time>2021-11-22T07:33:09.078Z</time>
      </trkpt>
      <trkpt lat="47.509385" lon="7.961632">
        <ele>486.526042</ele>
        <time>2021-11-22T07:33:10.358Z</time>
      </trkpt>
      <trkpt lat="47.509788" lon="7.961854">
        <ele>483.226641</ele>
        <time>2021-11-22T07:33:14.120Z</time>
      </trkpt>
      <trkpt lat="47.510127" lon="7.962072">
        <ele>480.094934</ele>
        <time>2021-11-22T07:33:17.366Z</time>
      </trkpt>
      <trkpt lat="47.510301" lon="7.962209">
        <ele>478.425053</ele>
        <time>2021-11-22T07:33:19.076Z</time>
      </trkpt>
      <trkpt lat="47.510406" lon="7.962296">
        <ele>477.405503</ele>
        <time>2021-11-22T07:33:20.147Z</time>
      </trkpt>
      <trkpt lat="47.510552" lon="7.962453">
        <ele>475.876514</ele>
        <time>2021-11-22T07:33:21.737Z</time>
      </trkpt>
      <trkpt lat="47.510679" lon="7.962576">
        <ele>474.590605</ele>
        <time>2021-11-22T07:33:23.038Z</time>
      </trkpt>
      <trkpt lat="47.510706" lon="7.962606">
        <ele>474.304564</ele>
        <time>2021-11-22T07:33:23.338Z</time>
      </trkpt>
      <trkpt lat="47.510909" lon="7.962826">
        <ele>472.172894</ele>
        <time>2021-11-22T07:33:25.513Z</time>
      </trkpt>
      <trkpt lat="47.511697" lon="7.963783">
        <ele>465.066056</ele>
        <time>2021-11-22T07:33:34.586Z</time>
      </trkpt>
      <trkpt lat="47.511807" lon="7.963896">
        <ele>464.256924</ele>
        <time>2021-11-22T07:33:35.779Z</time>
      </trkpt>
      <trkpt lat="47.511885" lon="7.963977">
        <ele>463.681138</ele>
        <time>2021-11-22T07:33:36.674Z</time>
      </trkpt>
      <trkpt lat="47.512076" lon="7.964120">
        <ele>462.387642</ele>
        <time>2021-11-22T07:33:38.608Z</time>
      </trkpt>
      <trkpt lat="47.512806" lon="7.964495">
        <ele>457.977425</ele>
        <time>2021-11-22T07:33:45.950Z</time>
      </trkpt>
      <trkpt lat="47.513069" lon="7.964710">
        <ele>457.836031</ele>
        <time>2021-11-22T07:33:48.934Z</time>
      </trkpt>
      <trkpt lat="47.513192" lon="7.964890">
        <ele>457.754636</ele>
        <time>2021-11-22T07:33:50.708Z</time>
      </trkpt>
      <trkpt lat="47.513387" lon="7.965176">
        <ele>457.625453</ele>
        <time>2021-11-22T07:33:54.005Z</time>
      </trkpt>
      <trkpt lat="47.513439" lon="7.965284">
        <ele>457.583292</ele>
        <time>2021-11-22T07:33:54.963Z</time>
      </trkpt>
      <trkpt lat="47.513496" lon="7.965435">
        <ele>457.528304</ele>
        <time>2021-11-22T07:33:56.756Z</time>
      </trkpt>
      <trkpt lat="47.513552" lon="7.965694">
        <ele>457.441858</ele>
        <time>2021-11-22T07:34:00.110Z</time>
      </trkpt>
      <trkpt lat="47.513574" lon="7.965795">
        <ele>457.408123</ele>
        <time>2021-11-22T07:34:01.128Z</time>
      </trkpt>
      <trkpt lat="47.513607" lon="7.966067">
        <ele>457.320276</ele>
        <time>2021-11-22T07:34:05.704Z</time>
      </trkpt>
      <trkpt lat="47.513677" lon="7.966493">
        <ele>457.180910</ele>
        <time>2021-11-22T07:34:12.106Z</time>
      </trkpt>
      <trkpt lat="47.513719" lon="7.966609">
        <ele>457.317434</ele>
        <time>2021-11-22T07:34:14.994Z</time>
      </trkpt>
      <trkpt lat="47.513963" lon="7.966968">
        <ele>459.255567</ele>
        <time>2021-11-22T07:34:25.282Z</time>
      </trkpt>
      <trkpt lat="47.514175" lon="7.967361">
        <ele>461.169563</ele>
        <time>2021-11-22T07:34:36.204Z</time>
      </trkpt>
      <trkpt lat="47.514265" lon="7.967596">
        <ele>462.197601</ele>
        <time>2021-11-22T07:34:44.467Z</time>
      </trkpt>
      <trkpt lat="47.514175" lon="7.967704">
        <ele>462.850322</ele>
        <time>2021-11-22T07:34:49.296Z</time>
      </trkpt>
      <trkpt lat="47.514084" lon="7.967867">
        <ele>463.655079</ele>
        <time>2021-11-22T07:34:56.128Z</time>
      </trkpt>
      <trkpt lat="47.514050" lon="7.967928">
        <ele>463.956048</ele>
        <time>2021-11-22T07:34:59.035Z</time>
      </trkpt>
      <trkpt lat="47.513954" lon="7.968241">
        <ele>465.264211</ele>
        <time>2021-11-22T07:35:08.479Z</time>
      </trkpt>
      <trkpt lat="47.513956" lon="7.968306">
        <ele>465.511822</ele>
        <time>2021-11-22T07:35:11.147Z</time>
      </trkpt>
      <trkpt lat="47.514063" lon="7.968503">
        <ele>466.473828</ele>
        <time>2021-11-22T07:35:19.717Z</time>
      </trkpt>
      <trkpt lat="47.514192" lon="7.968881">
        <ele>468.853910</ele>
        <time>2021-11-22T07:35:34.560Z</time>
      </trkpt>
      <trkpt lat="47.514252" lon="7.969247">
        <ele>471.666193</ele>
        <time>2021-11-22T07:35:46.621Z</time>
      </trkpt>
      <trkpt lat="47.514251" lon="7.969369">
        <ele>472.577237</ele>
        <time>2021-11-22T07:35:52.089Z</time>
      </trkpt>
      <trkpt lat="47.514175" lon="7.969716">
        <ele>475.301125</ele>
        <time>2021-11-22T07:36:06.602Z</time>
      </trkpt>
      <trkpt lat="47.514100" lon="7.970085">
        <ele>478.178522</ele>
        <time>2021-11-22T07:36:23.316Z</time>
      </trkpt>
      <trkpt lat="47.514100" lon="7.970094">
        <ele>478.245725</ele>
        <time>2021-11-22T07:36:23.774Z</time>
      </trkpt>
      <trkpt lat="47.514096" lon="7.970598">
        <ele>482.009376</ele>
        <time>2021-11-22T07:36:48.116Z</time>
      </trkpt>
      <trkpt lat="47.514085" lon="7.970901">
        <ele>484.275158</ele>
        <time>2021-11-22T07:37:03.499Z</time>
      </trkpt>
      <trkpt lat="47.514065" lon="7.971024">
        <ele>485.219846</ele>
        <time>2021-11-22T07:37:10.019Z</time>
      </trkpt>
      <trkpt lat="47.513918" lon="7.971521">
        <ele>489.925542</ele>
        <time>2021-11-22T07:37:38.210Z</time>
      </trkpt>
      <trkpt lat="47.513879" lon="7.971681">
        <ele>491.591584</ele>
        <time>2021-11-22T07:37:47.128Z</time>
      </trkpt>
      <trkpt lat="47.513840" lon="7.971891">
        <ele>493.724758</ele>
        <time>2021-11-22T07:37:58.703Z</time>
      </trkpt>
      <trkpt lat="47.513818" lon="7.972354">
        <ele>498.270804</ele>
        <time>2021-11-22T07:38:23.368Z</time>
      </trkpt>
      <trkpt lat="47.513785" lon="7.972598">
        <ele>500.708096</ele>
        <time>2021-11-22T07:38:36.641Z</time>
      </trkpt>
      <trkpt lat="47.513724" lon="7.972836">
        <ele>503.201379</ele>
        <time>2021-11-22T07:38:50.984Z</time>
      </trkpt>
      <trkpt lat="47.513109" lon="7.975074">
        <ele>524.695753</ele>
        <time>2021-11-22T07:40:58.939Z</time>
      </trkpt>
      <trkpt lat="47.512725" lon="7.975715">
        <ele>531.749529</ele>
        <time>2021-11-22T07:41:35.033Z</time>
      </trkpt>
      <trkpt lat="47.512616" lon="7.975859">
        <ele>533.530145</ele>
        <time>2021-11-22T07:41:43.954Z</time>
      </trkpt>
      <trkpt lat="47.512412" lon="7.976165">
        <ele>536.109667</ele>
        <time>2021-11-22T07:42:00.046Z</time>
      </trkpt>
      <trkpt lat="47.512200" lon="7.976779">
        <ele>538.904874</ele>
        <time>2021-11-22T07:42:23.427Z</time>
      </trkpt>
      <trkpt lat="47.512118" lon="7.977012">
        <ele>539.969866</ele>
        <time>2021-11-22T07:42:31.989Z</time>
      </trkpt>
      <trkpt lat="47.511857" lon="7.977310">
        <ele>541.947908</ele>
        <time>2021-11-22T07:42:46.770Z</time>
      </trkpt>
      <trkpt lat="47.511169" lon="7.978482">
        <ele>546.158824</ele>
        <time>2021-11-22T07:43:22.994Z</time>
      </trkpt>
      <trkpt lat="47.511094" lon="7.978570">
        <ele>546.205914</ele>
        <time>2021-11-22T07:43:26.266Z</time>
      </trkpt>
      <trkpt lat="47.511058" lon="7.978612">
        <ele>546.228468</ele>
        <time>2021-11-22T07:43:27.457Z</time>
      </trkpt>
      <trkpt lat="47.510754" lon="7.979067">
        <ele>546.441180</ele>
        <time>2021-11-22T07:43:36.489Z</time>
      </trkpt>
      <trkpt lat="47.510721" lon="7.979135">
        <ele>546.469009</ele>
        <time>2021-11-22T07:43:37.270Z</time>
      </trkpt>
      <trkpt lat="47.510628" lon="7.979350">
        <ele>546.553866</ele>
        <time>2021-11-22T07:43:41.178Z</time>
      </trkpt>
      <trkpt lat="47.510553" lon="7.979575">
        <ele>546.637260</ele>
        <time>2021-11-22T07:43:44.148Z</time>
      </trkpt>
      <trkpt lat="47.510427" lon="7.979928">
        <ele>546.769961</ele>
        <time>2021-11-22T07:43:49.508Z</time>
      </trkpt>
      <trkpt lat="47.510411" lon="7.979962">
        <ele>546.783733</ele>
        <time>2021-11-22T07:43:50.019Z</time>
      </trkpt>
      <trkpt lat="47.510389" lon="7.979980">
        <ele>546.796102</ele>
        <time>2021-11-22T07:43:50.483Z</time>
      </trkpt>
      <trkpt lat="47.510337" lon="7.979978">
        <ele>546.821698</ele>
        <time>2021-11-22T07:43:51.172Z</time>
      </trkpt>
      <trkpt lat="47.509027" lon="7.978788">
        <ele>542.221758</ele>
        <time>2021-11-22T07:44:14.576Z</time>
      </trkpt>
      <trkpt lat="47.508948" lon="7.978799">
        <ele>541.970413</ele>
        <time>2021-11-22T07:44:15.625Z</time>
      </trkpt>
      <trkpt lat="47.508881" lon="7.978903">
        <ele>541.662911</ele>
        <time>2021-11-22T07:44:16.946Z</time>
      </trkpt>
      <trkpt lat="47.508750" lon="7.979260">
        <ele>540.260471</ele>
        <time>2021-11-22T07:44:20.547Z</time>
      </trkpt>
      <trkpt lat="47.508546" lon="7.979750">
        <ele>537.238711</ele>
        <time>2021-11-22T07:44:25.579Z</time>
      </trkpt>
      <trkpt lat="47.508298" lon="7.980362">
        <ele>533.492010</ele>
        <time>2021-11-22T07:44:31.724Z</time>
      </trkpt>
      <trkpt lat="47.508160" lon="7.980614">
        <ele>531.788909</ele>
        <time>2021-11-22T07:44:34.426Z</time>
      </trkpt>
      <trkpt lat="47.507123" lon="7.982752">
        <ele>516.299116</ele>
        <time>2021-11-22T07:44:56.240Z</time>
      </trkpt>
      <trkpt lat="47.507055" lon="7.982858">
        <ele>515.392370</ele>
        <time>2021-11-22T07:44:57.472Z</time>
      </trkpt>
      <trkpt lat="47.507011" lon="7.982902">
        <ele>514.904797</ele>
        <time>2021-11-22T07:44:58.112Z</time>
      </trkpt>
      <trkpt lat="47.506875" lon="7.982899">
        <ele>513.655835</ele>
        <time>2021-11-22T07:44:59.826Z</time>
      </trkpt>
      <trkpt lat="47.506692" lon="7.982561">
        <ele>510.968963</ele>
        <time>2021-11-22T07:45:03.472Z</time>
      </trkpt>
      <trkpt lat="47.506233" lon="7.982148">
        <ele>506.338889</ele>
        <time>2021-11-22T07:45:10.219Z</time>
      </trkpt>
      <trkpt lat="47.505601" lon="7.981812">
        <ele>500.575191</ele>
        <time>2021-11-22T07:45:18.611Z</time>
      </trkpt>
      <trkpt lat="47.505399" lon="7.981833">
        <ele>498.837145</ele>
        <time>2021-11-22T07:45:21.155Z</time>
      </trkpt>
      <trkpt lat="47.505275" lon="7.981948">
        <ele>497.581232</ele>
        <time>2021-11-22T07:45:22.981Z</time>
      </trkpt>
      <trkpt lat="47.505164" lon="7.982187">
        <ele>495.899587</ele>
        <time>2021-11-22T07:45:25.404Z</time>
      </trkpt>
      <trkpt lat="47.505153" lon="7.982527">
        <ele>493.618821</ele>
        <time>2021-11-22T07:45:28.238Z</time>
      </trkpt>
      <trkpt lat="47.505235" lon="7.983158">
        <ele>489.013863</ele>
        <time>2021-11-22T07:45:33.520Z</time>
      </trkpt>
      <trkpt lat="47.505169" lon="7.983598">
        <ele>485.783814</ele>
        <time>2021-11-22T07:45:37.184Z</time>
      </trkpt>
      <trkpt lat="47.505014" lon="7.983996">
        <ele>482.491503</ele>
        <time>2021-11-22T07:45:40.917Z</time>
      </trkpt>
      <trkpt lat="47.504558" lon="7.985032">
        <ele>473.589070</ele>
        <time>2021-11-22T07:45:50.999Z</time>
      </trkpt>
      <trkpt lat="47.504408" lon="7.985264">
        <ele>471.250163</ele>
        <time>2021-11-22T07:45:53.593Z</time>
      </trkpt>
      <trkpt lat="47.503784" lon="7.986110">
        <ele>462.127303</ele>
        <time>2021-11-22T07:46:03.804Z</time>
      </trkpt>
      <trkpt lat="47.502975" lon="7.987226">
        <ele>450.848901</ele>
        <time>2021-11-22T07:46:17.269Z</time>
      </trkpt>
      <trkpt lat="47.502461" lon="7.987886">
        <ele>444.234237</ele>
        <time>2021-11-22T07:46:25.600Z</time>
      </trkpt>
      <trkpt lat="47.501201" lon="7.989503">
        <ele>429.142551</ele>
        <time>2021-11-22T07:46:46.201Z</time>
      </trkpt>
      <trkpt lat="47.498444" lon="7.993225">
        <ele>399.008184</ele>
        <time>2021-11-22T07:47:33.029Z</time>
      </trkpt>
      <trkpt lat="47.498171" lon="7.993563">
        <ele>396.267758</ele>
        <time>2021-11-22T07:47:37.570Z</time>
      </trkpt>
      <trkpt lat="47.497787" lon="7.993811">
        <ele>393.737839</ele>
        <time>2021-11-22T07:47:42.987Z</time>
      </trkpt>
      <trkpt lat="47.497169" lon="7.994210">
        <ele>390.301912</ele>
        <time>2021-11-22T07:47:51.857Z</time>
      </trkpt>
      <trkpt lat="47.495891" lon="7.995038">
        <ele>384.245602</ele>
        <time>2021-11-22T07:48:11.628Z</time>
      </trkpt>
      <trkpt lat="47.495297" lon="7.995227">
        <ele>382.338689</ele>
        <time>2021-11-22T07:48:20.600Z</time>
      </trkpt>
      <trkpt lat="47.494770" lon="7.995288">
        <ele>380.679605</ele>
        <time>2021-11-22T07:48:28.339Z</time>
      </trkpt>
      <trkpt lat="47.494663" lon="7.995312">
        <ele>380.339942</ele>
        <time>2021-11-22T07:48:29.990Z</time>
      </trkpt>
      <trkpt lat="47.494655" lon="7.995343">
        <ele>380.277908</ele>
        <time>2021-11-22T07:48:30.241Z</time>
      </trkpt>
      <trkpt lat="47.494627" lon="7.995447">
        <ele>380.143028</ele>
        <time>2021-11-22T07:48:31.024Z</time>
      </trkpt>
      <trkpt lat="47.494368" lon="7.995845">
        <ele>379.477276</ele>
        <time>2021-11-22T07:48:35.076Z</time>
      </trkpt>
      <trkpt lat="47.494293" lon="7.995952">
        <ele>379.291522</ele>
        <time>2021-11-22T07:48:36.224Z</time>
      </trkpt>
      <trkpt lat="47.494203" lon="7.996025">
        <ele>379.108518</ele>
        <time>2021-11-22T07:48:37.316Z</time>
      </trkpt>
      <trkpt lat="47.493967" lon="7.996177">
        <ele>378.649574</ele>
        <time>2021-11-22T07:48:40.232Z</time>
      </trkpt>
      <trkpt lat="47.493868" lon="7.996295">
        <ele>378.422912</ele>
        <time>2021-11-22T07:48:41.635Z</time>
      </trkpt>
      <trkpt lat="47.493757" lon="7.996428">
        <ele>378.168248</ele>
        <time>2021-11-22T07:48:43.295Z</time>
      </trkpt>
      <trkpt lat="47.493684" lon="7.996562">
        <ele>377.960862</ele>
        <time>2021-11-22T07:48:44.587Z</time>
      </trkpt>
      <trkpt lat="47.493652" lon="7.996488">
        <ele>377.855009</ele>
        <time>2021-11-22T07:48:45.255Z</time>
      </trkpt>
      <trkpt lat="47.493567" lon="7.996156">
        <ele>377.427253</ele>
        <time>2021-11-22T07:48:48.046Z</time>
      </trkpt>
      <trkpt lat="47.493524" lon="7.995985">
        <ele>377.207422</ele>
        <time>2021-11-22T07:48:49.429Z</time>
      </trkpt>
      <trkpt lat="47.493430" lon="7.995894">
        <ele>377.089168</ele>
        <time>2021-11-22T07:48:50.878Z</time>
      </trkpt>
      <trkpt lat="47.492867" lon="7.995700">
        <ele>377.193584</ele>
        <time>2021-11-22T07:48:58.474Z</time>
      </trkpt>
      <trkpt lat="47.492390" lon="7.995213">
        <ele>377.298259</ele>
        <time>2021-11-22T07:49:08.412Z</time>
      </trkpt>
      <trkpt lat="47.492344" lon="7.995171">
        <ele>377.308022</ele>
        <time>2021-11-22T07:49:09.423Z</time>
      </trkpt>
      <trkpt lat="47.492271" lon="7.995104">
        <ele>377.323538</ele>
        <time>2021-11-22T07:49:11.038Z</time>
      </trkpt>
      <trkpt lat="47.492156" lon="7.994971">
        <ele>377.349901</ele>
        <time>2021-11-22T07:49:13.567Z</time>
      </trkpt>
      <trkpt lat="47.491996" lon="7.994807">
        <ele>377.385057</ele>
        <time>2021-11-22T07:49:18.247Z</time>
      </trkpt>
      <trkpt lat="47.491759" lon="7.994592">
        <ele>377.591585</ele>
        <time>2021-11-22T07:49:24.742Z</time>
      </trkpt>
      <trkpt lat="47.491577" lon="7.994479">
        <ele>377.821046</ele>
        <time>2021-11-22T07:49:29.499Z</time>
      </trkpt>
      <trkpt lat="47.491370" lon="7.994298">
        <ele>378.100573</ele>
        <time>2021-11-22T07:49:35.429Z</time>
      </trkpt>
      <trkpt lat="47.490495" lon="7.993473">
        <ele>379.306769</ele>
        <time>2021-11-22T07:50:01.659Z</time>
      </trkpt>
      <trkpt lat="47.489739" lon="7.992457">
        <ele>380.613636</ele>
        <time>2021-11-22T07:50:27.608Z</time>
      </trkpt>
      <trkpt lat="47.489640" lon="7.992334">
        <ele>380.781958</ele>
        <time>2021-11-22T07:50:30.876Z</time>
      </trkpt>
      <trkpt lat="47.489544" lon="7.992214">
        <ele>380.945592</ele>
        <time>2021-11-22T07:50:34.190Z</time>
      </trkpt>
      <trkpt lat="47.489090" lon="7.991643">
        <ele>381.721435</ele>
        <time>2021-11-22T07:50:49.214Z</time>
      </trkpt>
      <trkpt lat="47.488771" lon="7.991233">
        <ele>382.361088</ele>
        <time>2021-11-22T07:50:59.977Z</time>
      </trkpt>
      <trkpt lat="47.488698" lon="7.991149">
        <ele>382.506447</ele>
        <time>2021-11-22T07:51:02.460Z</time>
      </trkpt>
      <trkpt lat="47.487359" lon="7.989771">
        <ele>385.079732</ele>
        <time>2021-11-22T07:51:46.072Z</time>
      </trkpt>
      <trkpt lat="47.487298" lon="7.989709">
        <ele>385.198806</ele>
        <time>2021-11-22T07:51:48.383Z</time>
      </trkpt>
      <trkpt lat="47.487127" lon="7.989547">
        <ele>385.525508</ele>
        <time>2021-11-22T07:51:53.542Z</time>
      </trkpt>
      <trkpt lat="47.486511" lon="7.989012">
        <ele>386.674785</ele>
        <time>2021-11-22T07:52:12.751Z</time>
      </trkpt>
      <trkpt lat="47.486162" lon="7.988596">
        <ele>387.395866</ele>
        <time>2021-11-22T07:52:24.679Z</time>
      </trkpt>
      <trkpt lat="47.485848" lon="7.988106">
        <ele>388.107950</ele>
        <time>2021-11-22T07:52:36.832Z</time>
      </trkpt>
      <trkpt lat="47.485496" lon="7.987549">
        <ele>388.904842</ele>
        <time>2021-11-22T07:52:49.760Z</time>
      </trkpt>
      <trkpt lat="47.484679" lon="7.986270">
        <ele>390.876998</ele>
        <time>2021-11-22T07:53:21.261Z</time>
      </trkpt>
      <trkpt lat="47.484546" lon="7.985963">
        <ele>391.384374</ele>
        <time>2021-11-22T07:53:28.357Z</time>
      </trkpt>
      <trkpt lat="47.484451" lon="7.985647">
        <ele>391.865582</ele>
        <time>2021-11-22T07:53:35.306Z</time>
      </trkpt>
      <trkpt lat="47.484219" lon="7.985842">
        <ele>392.414910</ele>
        <time>2021-11-22T07:53:43.227Z</time>
      </trkpt>
      <trkpt lat="47.484091" lon="7.985948">
        <ele>392.716904</ele>
        <time>2021-11-22T07:53:47.547Z</time>
      </trkpt>
      <trkpt lat="47.484049" lon="7.985980">
        <ele>392.814165</ele>
        <time>2021-11-22T07:53:48.911Z</time>
      </trkpt>
      <trkpt lat="47.483826" lon="7.986159">
        <ele>393.336487</ele>
        <time>2021-11-22T07:53:56.474Z</time>
      </trkpt>
      <trkpt lat="47.483826" lon="7.986159">
        <ele>393.336487</ele>
        <time>2021-11-22T07:53:56.598Z</time>
      </trkpt>
      <trkpt lat="47.483826" lon="7.986159">
        <ele>393.336487</ele>
        <time>2021-11-22T07:53:56.646Z</time>
      </trkpt>
      <trkpt lat="47.483550" lon="7.986378">
        <ele>393.981269</ele>
        <time>2021-11-22T07:54:05.623Z</time>
      </trkpt>
      <trkpt lat="47.483462" lon="7.986151">
        <ele>394.148313</ele>
        <time>2021-11-22T07:54:09.510Z</time>
      </trkpt>
      <trkpt lat="47.483382" lon="7.985915">
        <ele>394.274145</ele>
        <time>2021-11-22T07:54:13.614Z</time>
      </trkpt>
      <trkpt lat="47.483356" lon="7.985963">
        <ele>394.303462</ele>
        <time>2021-11-22T07:54:14.584Z</time>
      </trkpt>
      <trkpt lat="47.483310" lon="7.986188">
        <ele>394.415494</ele>
        <time>2021-11-22T07:54:17.871Z</time>
      </trkpt>
      <trkpt lat="47.483308" lon="7.986306">
        <ele>394.471749</ele>
        <time>2021-11-22T07:54:19.694Z</time>
      </trkpt>
      <trkpt lat="47.483309" lon="7.986795">
        <ele>394.704802</ele>
        <time>2021-11-22T07:54:26.431Z</time>
      </trkpt>
      <trkpt lat="47.483382" lon="7.988556">
        <ele>395.035134</ele>
        <time>2021-11-22T07:54:42.762Z</time>
      </trkpt>
      <trkpt lat="47.483339" lon="7.989304">
        <ele>394.604183</ele>
        <time>2021-11-22T07:54:48.715Z</time>
      </trkpt>
      <trkpt lat="47.483318" lon="7.989442">
        <ele>394.522979</ele>
        <time>2021-11-22T07:54:49.728Z</time>
      </trkpt>
      <trkpt lat="47.483225" lon="7.989955">
        <ele>394.218072</ele>
        <time>2021-11-22T07:54:54.018Z</time>
      </trkpt>
      <trkpt lat="47.483198" lon="7.990097">
        <ele>394.133389</ele>
        <time>2021-11-22T07:54:55.453Z</time>
      </trkpt>
      <trkpt lat="47.483192" lon="7.990129">
        <ele>394.114325</ele>
        <time>2021-11-22T07:54:55.729Z</time>
      </trkpt>
      <trkpt lat="47.483152" lon="7.990327">
        <ele>393.995690</ele>
        <time>2021-11-22T07:54:57.539Z</time>
      </trkpt>
      <trkpt lat="47.483027" lon="7.990927">
        <ele>393.898607</ele>
        <time>2021-11-22T07:55:02.937Z</time>
      </trkpt>
      <trkpt lat="47.483009" lon="7.990995">
        <ele>393.929821</ele>
        <time>2021-11-22T07:55:03.537Z</time>
      </trkpt>
      <trkpt lat="47.482872" lon="7.991012">
        <ele>394.016771</ele>
        <time>2021-11-22T07:55:05.795Z</time>
      </trkpt>
      <trkpt lat="47.482744" lon="7.991050">
        <ele>394.099338</ele>
        <time>2021-11-22T07:55:07.639Z</time>
      </trkpt>
      <trkpt lat="47.482259" lon="7.991194">
        <ele>394.412192</ele>
        <time>2021-11-22T07:55:15.691Z</time>
      </trkpt>
      <trkpt lat="47.481732" lon="7.991480">
        <ele>394.767205</ele>
        <time>2021-11-22T07:55:27.295Z</time>
      </trkpt>
      <trkpt lat="47.481496" lon="7.991617">
        <ele>394.932759</ele>
        <time>2021-11-22T07:55:32.830Z</time>
      </trkpt>
      <trkpt lat="47.481096" lon="7.991850">
        <ele>395.581011</ele>
        <time>2021-11-22T07:55:41.739Z</time>
      </trkpt>
      <trkpt lat="47.480657" lon="7.991988">
        <ele>396.257792</ele>
        <time>2021-11-22T07:55:50.941Z</time>
      </trkpt>
      <trkpt lat="47.480402" lon="7.991988">
        <ele>396.642328</ele>
        <time>2021-11-22T07:55:56.580Z</time>
      </trkpt>
      <trkpt lat="47.479254" lon="7.991575">
        <ele>398.426130</ele>
        <time>2021-11-22T07:56:20.734Z</time>
      </trkpt>
      <trkpt lat="47.479179" lon="7.991567">
        <ele>398.539838</ele>
        <time>2021-11-22T07:56:22.358Z</time>
      </trkpt>
      <trkpt lat="47.479142" lon="7.991563">
        <ele>398.595939</ele>
        <time>2021-11-22T07:56:23.076Z</time>
      </trkpt>
      <trkpt lat="47.478975" lon="7.991551">
        <ele>398.848772</ele>
        <time>2021-11-22T07:56:26.453Z</time>
      </trkpt>
      <trkpt lat="47.477593" lon="7.991455">
        <ele>401.427066</ele>
        <time>2021-11-22T07:56:55.739Z</time>
      </trkpt>
      <trkpt lat="47.477212" lon="7.991382">
        <ele>402.490861</ele>
        <time>2021-11-22T07:57:04.474Z</time>
      </trkpt>
      <trkpt lat="47.476858" lon="7.991285">
        <ele>403.487753</ele>
        <time>2021-11-22T07:57:13.350Z</time>
      </trkpt>
      <trkpt lat="47.476495" lon="7.991119">
        <ele>404.539815</ele>
        <time>2021-11-22T07:57:23.904Z</time>
      </trkpt>
      <trkpt lat="47.475752" lon="7.990844">
        <ele>408.301830</ele>
        <time>2021-11-22T07:57:49.280Z</time>
      </trkpt>
      <trkpt lat="47.475384" lon="7.990744">
        <ele>410.622000</ele>
        <time>2021-11-22T07:58:03.537Z</time>
      </trkpt>
      <trkpt lat="47.474869" lon="7.990750">
        <ele>413.815656</ele>
        <time>2021-11-22T07:58:25.148Z</time>
      </trkpt>
      <trkpt lat="47.473566" lon="7.991189">
        <ele>422.479690</ele>
        <time>2021-11-22T07:59:27.465Z</time>
      </trkpt>
      <trkpt lat="47.473097" lon="7.991272">
        <ele>425.605558</ele>
        <time>2021-11-22T07:59:46.518Z</time>
      </trkpt>
      <trkpt lat="47.472796" lon="7.991311">
        <ele>427.605137</ele>
        <time>2021-11-22T07:59:57.734Z</time>
      </trkpt>
      <trkpt lat="47.472461" lon="7.991354">
        <ele>428.866997</ele>
        <time>2021-11-22T08:00:08.618Z</time>
      </trkpt>
      <trkpt lat="47.471790" lon="7.991484">
        <ele>430.343810</ele>
        <time>2021-11-22T08:00:26.741Z</time>
      </trkpt>
      <trkpt lat="47.471617" lon="7.991535">
        <ele>430.728767</ele>
        <time>2021-11-22T08:00:30.288Z</time>
      </trkpt>
      <trkpt lat="47.470749" lon="7.991887">
        <ele>432.389702</ele>
        <time>2021-11-22T08:00:45.506Z</time>
      </trkpt>
      <trkpt lat="47.470033" lon="7.992305">
        <ele>432.710520</ele>
        <time>2021-11-22T08:00:57.159Z</time>
      </trkpt>
      <trkpt lat="47.469747" lon="7.992506">
        <ele>432.842490</ele>
        <time>2021-11-22T08:01:02.430Z</time>
      </trkpt>
      <trkpt lat="47.469362" lon="7.992773">
        <ele>433.019711</ele>
        <time>2021-11-22T08:01:09.893Z</time>
      </trkpt>
      <trkpt lat="47.468375" lon="7.993424">
        <ele>433.837650</ele>
        <time>2021-11-22T08:01:28.916Z</time>
      </trkpt>
      <trkpt lat="47.468089" lon="7.993593">
        <ele>434.083267</ele>
        <time>2021-11-22T08:01:34.586Z</time>
      </trkpt>
      <trkpt lat="47.467721" lon="7.993817">
        <ele>434.400631</ele>
        <time>2021-11-22T08:01:41.760Z</time>
      </trkpt>
      <trkpt lat="47.467579" lon="7.993896">
        <ele>434.533079</ele>
        <time>2021-11-22T08:01:44.354Z</time>
      </trkpt>
      <trkpt lat="47.467154" lon="7.994150">
        <ele>435.114815</ele>
        <time>2021-11-22T08:01:53.511Z</time>
      </trkpt>
      <trkpt lat="47.466146" lon="7.994726">
        <ele>436.486225</ele>
        <time>2021-11-22T08:02:15.349Z</time>
      </trkpt>
      <trkpt lat="47.465905" lon="7.994879">
        <ele>436.801691</ele>
        <time>2021-11-22T08:02:20.866Z</time>
      </trkpt>
      <trkpt lat="47.465772" lon="7.994973">
        <ele>436.893486</ele>
        <time>2021-11-22T08:02:24.033Z</time>
      </trkpt>
      <trkpt lat="47.465613" lon="7.995104">
        <ele>437.006827</ele>
        <time>2021-11-22T08:02:27.423Z</time>
      </trkpt>
      <trkpt lat="47.465230" lon="7.995479">
        <ele>437.292858</ele>
        <time>2021-11-22T08:02:35.870Z</time>
      </trkpt>
      <trkpt lat="47.465119" lon="7.995595">
        <ele>437.377495</ele>
        <time>2021-11-22T08:02:38.561Z</time>
      </trkpt>
      <trkpt lat="47.465105" lon="7.995610">
        <ele>437.388260</ele>
        <time>2021-11-22T08:02:38.736Z</time>
      </trkpt>
      <trkpt lat="47.464249" lon="7.996297">
        <ele>437.889968</ele>
        <time>2021-11-22T08:02:54.457Z</time>
      </trkpt>
      <trkpt lat="47.464131" lon="7.996368">
        <ele>437.876612</ele>
        <time>2021-11-22T08:02:56.107Z</time>
      </trkpt>
      <trkpt lat="47.463691" lon="7.996686">
        <ele>437.825270</ele>
        <time>2021-11-22T08:03:02.478Z</time>
      </trkpt>
      <trkpt lat="47.463472" lon="7.996893">
        <ele>437.798023</ele>
        <time>2021-11-22T08:03:05.983Z</time>
      </trkpt>
      <trkpt lat="47.463326" lon="7.997031">
        <ele>437.779857</ele>
        <time>2021-11-22T08:03:08.502Z</time>
      </trkpt>
      <trkpt lat="47.463261" lon="7.997073">
        <ele>437.772421</ele>
        <time>2021-11-22T08:03:09.411Z</time>
      </trkpt>
      <trkpt lat="47.463107" lon="7.997172">
        <ele>437.754817</ele>
        <time>2021-11-22T08:03:11.689Z</time>
      </trkpt>
      <trkpt lat="47.463019" lon="7.997210">
        <ele>437.745205</ele>
        <time>2021-11-22T08:03:13.121Z</time>
      </trkpt>
      <trkpt lat="47.462705" lon="7.997285">
        <ele>437.751438</ele>
        <time>2021-11-22T08:03:18.135Z</time>
      </trkpt>
      <trkpt lat="47.462598" lon="7.997285">
        <ele>437.836003</ele>
        <time>2021-11-22T08:03:19.959Z</time>
      </trkpt>
      <trkpt lat="47.462350" lon="7.997293">
        <ele>438.032050</ele>
        <time>2021-11-22T08:03:24.233Z</time>
      </trkpt>
      <trkpt lat="47.462299" lon="7.997298">
        <ele>438.072445</ele>
        <time>2021-11-22T08:03:25.272Z</time>
      </trkpt>
      <trkpt lat="47.461927" lon="7.997527">
        <ele>438.390891</ele>
        <time>2021-11-22T08:03:32.125Z</time>
      </trkpt>
      <trkpt lat="47.461552" lon="7.997973">
        <ele>438.771190</ele>
        <time>2021-11-22T08:03:40.340Z</time>
      </trkpt>
      <trkpt lat="47.461502" lon="7.997997">
        <ele>438.812735</ele>
        <time>2021-11-22T08:03:41.757Z</time>
      </trkpt>
      <trkpt lat="47.461438" lon="7.998032">
        <ele>438.866663</ele>
        <time>2021-11-22T08:03:43.014Z</time>
      </trkpt>
      <trkpt lat="47.461284" lon="7.998059">
        <ele>438.989225</ele>
        <time>2021-11-22T08:03:46.047Z</time>
      </trkpt>
      <trkpt lat="47.461149" lon="7.998038">
        <ele>439.096507</ele>
        <time>2021-11-22T08:03:49.073Z</time>
      </trkpt>
      <trkpt lat="47.461062" lon="7.998039">
        <ele>439.196137</ele>
        <time>2021-11-22T08:03:50.691Z</time>
      </trkpt>
      <trkpt lat="47.460985" lon="7.998062">
        <ele>439.328521</ele>
        <time>2021-11-22T08:03:52.590Z</time>
      </trkpt>
      <trkpt lat="47.460942" lon="7.998082">
        <ele>439.404486</ele>
        <time>2021-11-22T08:03:53.452Z</time>
      </trkpt>
      <trkpt lat="47.460924" lon="7.998094">
        <ele>439.437760</ele>
        <time>2021-11-22T08:03:53.787Z</time>
      </trkpt>
      <trkpt lat="47.460857" lon="7.998139">
        <ele>439.561768</ele>
        <time>2021-11-22T08:03:55.088Z</time>
      </trkpt>
      <trkpt lat="47.460836" lon="7.998161">
        <ele>439.605137</ele>
        <time>2021-11-22T08:03:55.842Z</time>
      </trkpt>
      <trkpt lat="47.460660" lon="7.998379">
        <ele>439.992011</ele>
        <time>2021-11-22T08:04:00.570Z</time>
      </trkpt>
      <trkpt lat="47.460488" lon="7.998555">
        <ele>440.344482</ele>
        <time>2021-11-22T08:04:05.167Z</time>
      </trkpt>
      <trkpt lat="47.460218" lon="7.998745">
        <ele>440.848377</ele>
        <time>2021-11-22T08:04:11.415Z</time>
      </trkpt>
      <trkpt lat="47.459934" lon="7.998910">
        <ele>441.362591</ele>
        <time>2021-11-22T08:04:17.798Z</time>
      </trkpt>
      <trkpt lat="47.459866" lon="7.998934">
        <ele>441.480406</ele>
        <time>2021-11-22T08:04:19.634Z</time>
      </trkpt>
      <trkpt lat="47.459773" lon="7.998935">
        <ele>441.637140</ele>
        <time>2021-11-22T08:04:21.803Z</time>
      </trkpt>
      <trkpt lat="47.459283" lon="7.998698">
        <ele>442.747087</ele>
        <time>2021-11-22T08:04:33.221Z</time>
      </trkpt>
      <trkpt lat="47.459205" lon="7.998672">
        <ele>442.978319</ele>
        <time>2021-11-22T08:04:35.143Z</time>
      </trkpt>
      <trkpt lat="47.459150" lon="7.998657">
        <ele>443.140060</ele>
        <time>2021-11-22T08:04:36.683Z</time>
      </trkpt>
      <trkpt lat="47.459032" lon="7.998632">
        <ele>443.484797</ele>
        <time>2021-11-22T08:04:39.474Z</time>
      </trkpt>
      <trkpt lat="47.458630" lon="7.998609">
        <ele>444.648244</ele>
        <time>2021-11-22T08:04:48.889Z</time>
      </trkpt>
      <trkpt lat="47.458509" lon="7.998633">
        <ele>445.001306</ele>
        <time>2021-11-22T08:04:52.064Z</time>
      </trkpt>
      <trkpt lat="47.458410" lon="7.998658">
        <ele>445.291756</ele>
        <time>2021-11-22T08:04:55.561Z</time>
      </trkpt>
      <trkpt lat="47.457243" lon="7.999411">
        <ele>449.109705</ele>
        <time>2021-11-22T08:05:32.361Z</time>
      </trkpt>
      <trkpt lat="47.457133" lon="7.999505">
        <ele>449.508231</ele>
        <time>2021-11-22T08:05:37.301Z</time>
      </trkpt>
      <trkpt lat="47.457107" lon="7.999528">
        <ele>449.603269</ele>
        <time>2021-11-22T08:05:38.359Z</time>
      </trkpt>
      <trkpt lat="47.456363" lon="8.000219">
        <ele>452.359225</ele>
        <time>2021-11-22T08:05:59.648Z</time>
      </trkpt>
      <trkpt lat="47.456267" lon="8.000301">
        <ele>452.706993</ele>
        <time>2021-11-22T08:06:04.246Z</time>
      </trkpt>
      <trkpt lat="47.455740" lon="8.000709">
        <ele>454.338580</ele>
        <time>2021-11-22T08:06:18.334Z</time>
      </trkpt>
      <trkpt lat="47.455049" lon="8.001106">
        <ele>456.314581</ele>
        <time>2021-11-22T08:06:36.906Z</time>
      </trkpt>
      <trkpt lat="47.454570" lon="8.001381">
        <ele>457.684213</ele>
        <time>2021-11-22T08:06:50.629Z</time>
      </trkpt>
      <trkpt lat="47.454148" lon="8.001857">
        <ele>459.474944</ele>
        <time>2021-11-22T08:07:03.891Z</time>
      </trkpt>
      <trkpt lat="47.454027" lon="8.002090">
        <ele>460.158653</ele>
        <time>2021-11-22T08:07:09.566Z</time>
      </trkpt>
      <trkpt lat="47.453983" lon="8.002195">
        <ele>460.446132</ele>
        <time>2021-11-22T08:07:11.898Z</time>
      </trkpt>
      <trkpt lat="47.453932" lon="8.002372">
        <ele>460.893892</ele>
        <time>2021-11-22T08:07:15.460Z</time>
      </trkpt>
      <trkpt lat="47.453903" lon="8.002487">
        <ele>461.179529</ele>
        <time>2021-11-22T08:07:18.016Z</time>
      </trkpt>
      <trkpt lat="47.453815" lon="8.002812">
        <ele>461.994269</ele>
        <time>2021-11-22T08:07:25.018Z</time>
      </trkpt>
      <trkpt lat="47.453556" lon="8.003416">
        <ele>463.658743</ele>
        <time>2021-11-22T08:07:40.478Z</time>
      </trkpt>
      <trkpt lat="47.452892" lon="8.004632">
        <ele>467.397743</ele>
        <time>2021-11-22T08:08:12.016Z</time>
      </trkpt>
      <trkpt lat="47.452809" lon="8.004791">
        <ele>467.879605</ele>
        <time>2021-11-22T08:08:16.034Z</time>
      </trkpt>
      <trkpt lat="47.452707" lon="8.004978">
        <ele>468.455959</ele>
        <time>2021-11-22T08:08:19.922Z</time>
      </trkpt>
      <trkpt lat="47.452632" lon="8.005093">
        <ele>468.839239</ele>
        <time>2021-11-22T08:08:22.833Z</time>
      </trkpt>
      <trkpt lat="47.452544" lon="8.005204">
        <ele>469.249569</ele>
        <time>2021-11-22T08:08:25.966Z</time>
      </trkpt>
      <trkpt lat="47.452429" lon="8.005350">
        <ele>469.787267</ele>
        <time>2021-11-22T08:08:29.770Z</time>
      </trkpt>
      <trkpt lat="47.452304" lon="8.005472">
        <ele>470.318596</ele>
        <time>2021-11-22T08:08:34.220Z</time>
      </trkpt>
      <trkpt lat="47.451940" lon="8.005767">
        <ele>472.239684</ele>
        <time>2021-11-22T08:08:46.215Z</time>
      </trkpt>
      <trkpt lat="47.451777" lon="8.005920">
        <ele>473.142142</ele>
        <time>2021-11-22T08:08:51.891Z</time>
      </trkpt>
      <trkpt lat="47.451777" lon="8.005920">
        <ele>473.142142</ele>
        <time>2021-11-22T08:08:51.906Z</time>
      </trkpt>
      <trkpt lat="47.451704" lon="8.006006">
        <ele>473.578418</ele>
        <time>2021-11-22T08:08:55.333Z</time>
      </trkpt>
      <trkpt lat="47.451617" lon="8.006193">
        <ele>474.295897</ele>
        <time>2021-11-22T08:09:00.665Z</time>
      </trkpt>
      <trkpt lat="47.451459" lon="8.006532">
        <ele>475.597319</ele>
        <time>2021-11-22T08:09:10.440Z</time>
      </trkpt>
      <trkpt lat="47.451374" lon="8.006835">
        <ele>476.634227</ele>
        <time>2021-11-22T08:09:17.859Z</time>
      </trkpt>
      <trkpt lat="47.451223" lon="8.007424">
        <ele>478.625327</ele>
        <time>2021-11-22T08:09:33.443Z</time>
      </trkpt>
      <trkpt lat="47.451152" lon="8.007815">
        <ele>480.418653</ele>
        <time>2021-11-22T08:09:43.798Z</time>
      </trkpt>
      <trkpt lat="47.451125" lon="8.007964">
        <ele>481.130165</ele>
        <time>2021-11-22T08:09:48.151Z</time>
      </trkpt>
      <trkpt lat="47.451025" lon="8.008518">
        <ele>483.774971</ele>
        <time>2021-11-22T08:10:03.761Z</time>
      </trkpt>
      <trkpt lat="47.450739" lon="8.010629">
        <ele>494.245179</ele>
        <time>2021-11-22T08:11:08.467Z</time>
      </trkpt>
      <trkpt lat="47.450620" lon="8.012203">
        <ele>503.038069</ele>
        <time>2021-11-22T08:11:58.602Z</time>
      </trkpt>
      <trkpt lat="47.450695" lon="8.012685">
        <ele>505.783940</ele>
        <time>2021-11-22T08:12:14.346Z</time>
      </trkpt>
      <trkpt lat="47.450792" lon="8.012931">
        <ele>508.039597</ele>
        <time>2021-11-22T08:12:24.702Z</time>
      </trkpt>
      <trkpt lat="47.451318" lon="8.013628">
        <ele>516.373549</ele>
        <time>2021-11-22T08:13:08.481Z</time>
      </trkpt>
      <trkpt lat="47.451629" lon="8.014256">
        <ele>522.584584</ele>
        <time>2021-11-22T08:13:42.418Z</time>
      </trkpt>
      <trkpt lat="47.451647" lon="8.014819">
        <ele>527.081095</ele>
        <time>2021-11-22T08:14:10.777Z</time>
      </trkpt>
      <trkpt lat="47.451482" lon="8.015245">
        <ele>530.910732</ele>
        <time>2021-11-22T08:14:29.615Z</time>
      </trkpt>
      <trkpt lat="47.451445" lon="8.015298">
        <ele>531.504967</ele>
        <time>2021-11-22T08:14:35.253Z</time>
      </trkpt>
      <trkpt lat="47.451437" lon="8.015310">
        <ele>531.636419</ele>
        <time>2021-11-22T08:14:36.542Z</time>
      </trkpt>
      <trkpt lat="47.451269" lon="8.015462">
        <ele>533.908400</ele>
        <time>2021-11-22T08:14:44.468Z</time>
      </trkpt>
      <trkpt lat="47.450380" lon="8.015953">
        <ele>544.855746</ele>
        <time>2021-11-22T08:15:44.512Z</time>
      </trkpt>
      <trkpt lat="47.449870" lon="8.016383">
        <ele>550.299641</ele>
        <time>2021-11-22T08:16:13.732Z</time>
      </trkpt>
      <trkpt lat="47.449594" lon="8.016517">
        <ele>552.489417</ele>
        <time>2021-11-22T08:16:24.782Z</time>
      </trkpt>
      <trkpt lat="47.449353" lon="8.016588">
        <ele>554.341798</ele>
        <time>2021-11-22T08:16:35.820Z</time>
      </trkpt>
      <trkpt lat="47.449199" lon="8.016667">
        <ele>555.570531</ele>
        <time>2021-11-22T08:16:42.732Z</time>
      </trkpt>
      <trkpt lat="47.449073" lon="8.016786">
        <ele>556.697518</ele>
        <time>2021-11-22T08:16:49.126Z</time>
      </trkpt>
      <trkpt lat="47.448981" lon="8.016904">
        <ele>557.615543</ele>
        <time>2021-11-22T08:16:54.471Z</time>
      </trkpt>
      <trkpt lat="47.448929" lon="8.016978">
        <ele>558.159553</ele>
        <time>2021-11-22T08:16:57.426Z</time>
      </trkpt>
      <trkpt lat="47.448801" lon="8.017178">
        <ele>559.563267</ele>
        <time>2021-11-22T08:17:05.547Z</time>
      </trkpt>
      <trkpt lat="47.448431" lon="8.017568">
        <ele>562.876108</ele>
        <time>2021-11-22T08:17:24.606Z</time>
      </trkpt>
      <trkpt lat="47.448305" lon="8.017672">
        <ele>563.889166</ele>
        <time>2021-11-22T08:17:32.103Z</time>
      </trkpt>
      <trkpt lat="47.448218" lon="8.017755">
        <ele>564.616035</ele>
        <time>2021-11-22T08:17:35.841Z</time>
      </trkpt>
      <trkpt lat="47.448127" lon="8.017842">
        <ele>565.376798</ele>
        <time>2021-11-22T08:17:40.509Z</time>
      </trkpt>
      <trkpt lat="47.447917" lon="8.018256">
        <ele>567.833817</ele>
        <time>2021-11-22T08:17:55.498Z</time>
      </trkpt>
      <trkpt lat="47.447791" lon="8.018721">
        <ele>570.212125</ele>
        <time>2021-11-22T08:18:10.590Z</time>
      </trkpt>
      <trkpt lat="47.447593" lon="8.019200">
        <ele>572.877469</ele>
        <time>2021-11-22T08:18:26.107Z</time>
      </trkpt>
      <trkpt lat="47.447512" lon="8.019351">
        <ele>573.792528</ele>
        <time>2021-11-22T08:18:32.991Z</time>
      </trkpt>
      <trkpt lat="47.447432" lon="8.019478">
        <ele>574.596239</ele>
        <time>2021-11-22T08:18:36.921Z</time>
      </trkpt>
      <trkpt lat="47.446940" lon="8.020031">
        <ele>578.796414</ele>
        <time>2021-11-22T08:19:02.648Z</time>
      </trkpt>
      <trkpt lat="47.446778" lon="8.020358">
        <ele>580.659517</ele>
        <time>2021-11-22T08:19:13.622Z</time>
      </trkpt>
      <trkpt lat="47.446723" lon="8.020643">
        <ele>582.021737</ele>
        <time>2021-11-22T08:19:22.135Z</time>
      </trkpt>
      <trkpt lat="47.446606" lon="8.022220">
        <ele>588.873730</ele>
        <time>2021-11-22T08:20:08.175Z</time>
      </trkpt>
      <trkpt lat="47.446477" lon="8.022664">
        <ele>590.780623</ele>
        <time>2021-11-22T08:20:22.117Z</time>
      </trkpt>
      <trkpt lat="47.446349" lon="8.022919">
        <ele>592.033760</ele>
        <time>2021-11-22T08:20:30.941Z</time>
      </trkpt>
      <trkpt lat="47.446154" lon="8.023202">
        <ele>593.628042</ele>
        <time>2021-11-22T08:20:41.482Z</time>
      </trkpt>
      <trkpt lat="47.445885" lon="8.023440">
        <ele>595.457166</ele>
        <time>2021-11-22T08:20:52.420Z</time>
      </trkpt>
      <trkpt lat="47.445182" lon="8.023668">
        <ele>598.192987</ele>
        <time>2021-11-22T08:21:12.876Z</time>
      </trkpt>
      <trkpt lat="47.445020" lon="8.023772">
        <ele>598.713396</ele>
        <time>2021-11-22T08:21:17.044Z</time>
      </trkpt>
      <trkpt lat="47.444482" lon="8.024455">
        <ele>600.802846</ele>
        <time>2021-11-22T08:21:33.530Z</time>
      </trkpt>
      <trkpt lat="47.444181" lon="8.025029">
        <ele>602.506273</ele>
        <time>2021-11-22T08:21:46.327Z</time>
      </trkpt>
      <trkpt lat="47.444086" lon="8.025459">
        <ele>604.328610</ele>
        <time>2021-11-22T08:21:55.198Z</time>
      </trkpt>
      <trkpt lat="47.444094" lon="8.025849">
        <ele>605.900445</ele>
        <time>2021-11-22T08:22:03.625Z</time>
      </trkpt>
      <trkpt lat="47.444190" lon="8.026300">
        <ele>607.805158</ele>
        <time>2021-11-22T08:22:14.889Z</time>
      </trkpt>
      <trkpt lat="47.444535" lon="8.027371">
        <ele>612.584069</ele>
        <time>2021-11-22T08:22:54.354Z</time>
      </trkpt>
      <trkpt lat="47.444596" lon="8.027836">
        <ele>615.427525</ele>
        <time>2021-11-22T08:23:08.412Z</time>
      </trkpt>
      <trkpt lat="47.444512" lon="8.028362">
        <ele>618.749642</ele>
        <time>2021-11-22T08:23:27.339Z</time>
      </trkpt>
      <trkpt lat="47.444390" lon="8.028577">
        <ele>620.474758</ele>
        <time>2021-11-22T08:23:34.115Z</time>
      </trkpt>
      <trkpt lat="47.444252" lon="8.028702">
        <ele>621.945644</ele>
        <time>2021-11-22T08:23:45.674Z</time>
      </trkpt>
      <trkpt lat="47.444200" lon="8.028735">
        <ele>622.459952</ele>
        <time>2021-11-22T08:23:51.701Z</time>
      </trkpt>
      <trkpt lat="47.444130" lon="8.028762">
        <ele>623.117457</ele>
        <time>2021-11-22T08:23:54.680Z</time>
      </trkpt>
      <trkpt lat="47.444103" lon="8.028769">
        <ele>623.366598</ele>
        <time>2021-11-22T08:23:55.801Z</time>
      </trkpt>
      <trkpt lat="47.444082" lon="8.028771">
        <ele>623.557858</ele>
        <time>2021-11-22T08:23:55.985Z</time>
      </trkpt>
      <trkpt lat="47.443829" lon="8.028756">
        <ele>625.859166</ele>
        <time>2021-11-22T08:24:17.093Z</time>
      </trkpt>
      <trkpt lat="47.443680" lon="8.028687">
        <ele>627.278259</ele>
        <time>2021-11-22T08:24:19.295Z</time>
      </trkpt>
      <trkpt lat="47.443354" lon="8.028536">
        <ele>630.262623</ele>
        <time>2021-11-22T08:24:38.074Z</time>
      </trkpt>
      <trkpt lat="47.442237" lon="8.027604">
        <ele>640.856820</ele>
        <time>2021-11-22T08:25:42.456Z</time>
      </trkpt>
      <trkpt lat="47.441755" lon="8.027353">
        <ele>644.698121</ele>
        <time>2021-11-22T08:26:03.563Z</time>
      </trkpt>
      <trkpt lat="47.441109" lon="8.027297">
        <ele>648.293352</ele>
        <time>2021-11-22T08:26:29.042Z</time>
      </trkpt>
      <trkpt lat="47.440647" lon="8.027439">
        <ele>650.915021</ele>
        <time>2021-11-22T08:26:45.255Z</time>
      </trkpt>
      <trkpt lat="47.440263" lon="8.027666">
        <ele>653.212667</ele>
        <time>2021-11-22T08:26:59.045Z</time>
      </trkpt>
      <trkpt lat="47.439363" lon="8.028350">
        <ele>658.473475</ele>
        <time>2021-11-22T08:27:33.280Z</time>
      </trkpt>
      <trkpt lat="47.439279" lon="8.028420">
        <ele>658.969875</ele>
        <time>2021-11-22T08:27:36.922Z</time>
      </trkpt>
      <trkpt lat="47.438761" lon="8.028824">
        <ele>661.984877</ele>
        <time>2021-11-22T08:27:57.834Z</time>
      </trkpt>
      <trkpt lat="47.437975" lon="8.029310">
        <ele>666.307356</ele>
        <time>2021-11-22T08:28:30.783Z</time>
      </trkpt>
      <trkpt lat="47.436857" lon="8.029750">
        <ele>672.145113</ele>
        <time>2021-11-22T08:29:12.679Z</time>
      </trkpt>
      <trkpt lat="47.436763" lon="8.029782">
        <ele>671.993756</ele>
        <time>2021-11-22T08:29:16.020Z</time>
      </trkpt>
      <trkpt lat="47.436700" lon="8.029803">
        <ele>671.780502</ele>
        <time>2021-11-22T08:29:18.531Z</time>
      </trkpt>
      <trkpt lat="47.436042" lon="8.030035">
        <ele>669.546788</ele>
        <time>2021-11-22T08:29:28.837Z</time>
      </trkpt>
      <trkpt lat="47.435896" lon="8.030060">
        <ele>669.061459</ele>
        <time>2021-11-22T08:29:32.418Z</time>
      </trkpt>
      <trkpt lat="47.435481" lon="8.030087">
        <ele>667.689764</ele>
        <time>2021-11-22T08:29:36.195Z</time>
      </trkpt>
      <trkpt lat="47.435436" lon="8.030087">
        <ele>667.541170</ele>
        <time>2021-11-22T08:29:36.569Z</time>
      </trkpt>
      <trkpt lat="47.434990" lon="8.030088">
        <ele>665.277679</ele>
        <time>2021-11-22T08:29:40.456Z</time>
      </trkpt>
      <trkpt lat="47.434275" lon="8.030088">
        <ele>655.086439</ele>
        <time>2021-11-22T08:29:46.447Z</time>
      </trkpt>
      <trkpt lat="47.434167" lon="8.030147">
        <ele>653.445320</ele>
        <time>2021-11-22T08:29:47.404Z</time>
      </trkpt>
      <trkpt lat="47.434108" lon="8.030185">
        <ele>652.528019</ele>
        <time>2021-11-22T08:29:47.932Z</time>
      </trkpt>
      <trkpt lat="47.433829" lon="8.030548">
        <ele>647.230504</ele>
        <time>2021-11-22T08:29:50.996Z</time>
      </trkpt>
      <trkpt lat="47.433660" lon="8.031143">
        <ele>641.008509</ele>
        <time>2021-11-22T08:29:54.653Z</time>
      </trkpt>
      <trkpt lat="47.433547" lon="8.032532">
        <ele>628.165971</ele>
        <time>2021-11-22T08:30:02.475Z</time>
      </trkpt>
      <trkpt lat="47.433630" lon="8.033110">
        <ele>622.748872</ele>
        <time>2021-11-22T08:30:05.873Z</time>
      </trkpt>
      <trkpt lat="47.433692" lon="8.033363">
        <ele>620.281893</ele>
        <time>2021-11-22T08:30:07.439Z</time>
      </trkpt>
      <trkpt lat="47.433704" lon="8.033446">
        <ele>619.503777</ele>
        <time>2021-11-22T08:30:07.905Z</time>
      </trkpt>
      <trkpt lat="47.433695" lon="8.033652">
        <ele>617.611269</ele>
        <time>2021-11-22T08:30:09.123Z</time>
      </trkpt>
      <trkpt lat="47.433621" lon="8.033768">
        <ele>616.182913</ele>
        <time>2021-11-22T08:30:10.052Z</time>
      </trkpt>
      <trkpt lat="47.433485" lon="8.033776">
        <ele>614.768131</ele>
        <time>2021-11-22T08:30:11.187Z</time>
      </trkpt>
      <trkpt lat="47.433381" lon="8.033653">
        <ele>613.383709</ele>
        <time>2021-11-22T08:30:12.352Z</time>
      </trkpt>
      <trkpt lat="47.432764" lon="8.031627">
        <ele>597.760914</ele>
        <time>2021-11-22T08:30:25.301Z</time>
      </trkpt>
      <trkpt lat="47.432675" lon="8.031189">
        <ele>593.977507</ele>
        <time>2021-11-22T08:30:27.944Z</time>
      </trkpt>
      <trkpt lat="47.432631" lon="8.030656">
        <ele>589.499565</ele>
        <time>2021-11-22T08:30:31.022Z</time>
      </trkpt>
      <trkpt lat="47.432542" lon="8.030469">
        <ele>587.592762</ele>
        <time>2021-11-22T08:30:32.340Z</time>
      </trkpt>
      <trkpt lat="47.432467" lon="8.030406">
        <ele>586.529298</ele>
        <time>2021-11-22T08:30:33.080Z</time>
      </trkpt>
      <trkpt lat="47.432409" lon="8.030404">
        <ele>585.814065</ele>
        <time>2021-11-22T08:30:33.554Z</time>
      </trkpt>
      <trkpt lat="47.432234" lon="8.030524">
        <ele>583.435818</ele>
        <time>2021-11-22T08:30:35.183Z</time>
      </trkpt>
      <trkpt lat="47.432157" lon="8.030749">
        <ele>581.332954</ele>
        <time>2021-11-22T08:30:36.614Z</time>
      </trkpt>
      <trkpt lat="47.432133" lon="8.030906">
        <ele>579.990622</ele>
        <time>2021-11-22T08:30:37.521Z</time>
      </trkpt>
      <trkpt lat="47.432025" lon="8.031663">
        <ele>573.192912</ele>
        <time>2021-11-22T08:30:41.915Z</time>
      </trkpt>
      <trkpt lat="47.431924" lon="8.032307">
        <ele>566.667978</ele>
        <time>2021-11-22T08:30:45.623Z</time>
      </trkpt>
      <trkpt lat="47.431773" lon="8.032676">
        <ele>562.411362</ele>
        <time>2021-11-22T08:30:48.046Z</time>
      </trkpt>
      <trkpt lat="47.430470" lon="8.034052">
        <ele>540.553143</ele>
        <time>2021-11-22T08:31:01.373Z</time>
      </trkpt>
      <trkpt lat="47.430169" lon="8.034362">
        <ele>535.996260</ele>
        <time>2021-11-22T08:31:04.505Z</time>
      </trkpt>
      <trkpt lat="47.430089" lon="8.034453">
        <ele>534.742372</ele>
        <time>2021-11-22T08:31:05.360Z</time>
      </trkpt>
      <trkpt lat="47.429784" lon="8.034795">
        <ele>529.987107</ele>
        <time>2021-11-22T08:31:08.654Z</time>
      </trkpt>
      <trkpt lat="47.429735" lon="8.034851">
        <ele>529.217751</ele>
        <time>2021-11-22T08:31:15.504Z</time>
      </trkpt>
      <trkpt lat="47.429183" lon="8.035457">
        <ele>525.289860</ele>
        <time>2021-11-22T08:31:21.387Z</time>
      </trkpt>
      <trkpt lat="47.429108" lon="8.035534">
        <ele>525.004963</ele>
        <time>2021-11-22T08:31:25.757Z</time>
      </trkpt>
      <trkpt lat="47.428937" lon="8.035687">
        <ele>524.381331</ele>
        <time>2021-11-22T08:31:27.405Z</time>
      </trkpt>
      <trkpt lat="47.428779" lon="8.035805">
        <ele>523.829036</ele>
        <time>2021-11-22T08:31:36.641Z</time>
      </trkpt>
      <trkpt lat="47.428589" lon="8.035948">
        <ele>523.163832</ele>
        <time>2021-11-22T08:31:39.222Z</time>
      </trkpt>
      <trkpt lat="47.428425" lon="8.036042">
        <ele>522.615042</ele>
        <time>2021-11-22T08:31:51.108Z</time>
      </trkpt>
      <trkpt lat="47.428173" lon="8.036125">
        <ele>521.809536</ele>
        <time>2021-11-22T08:31:53.711Z</time>
      </trkpt>
      <trkpt lat="47.428073" lon="8.036147">
        <ele>521.494105</ele>
        <time>2021-11-22T08:31:54.697Z</time>
      </trkpt>
      <trkpt lat="47.427488" lon="8.036131">
        <ele>519.066011</ele>
        <time>2021-11-22T08:32:00.845Z</time>
      </trkpt>
      <trkpt lat="47.427288" lon="8.036127">
        <ele>518.200414</ele>
        <time>2021-11-22T08:32:02.702Z</time>
      </trkpt>
      <trkpt lat="47.426959" lon="8.036087">
        <ele>516.771829</ele>
        <time>2021-11-22T08:32:05.909Z</time>
      </trkpt>
      <trkpt lat="47.426739" lon="8.036025">
        <ele>515.802610</ele>
        <time>2021-11-22T08:32:08.178Z</time>
      </trkpt>
      <trkpt lat="47.426081" lon="8.035824">
        <ele>512.110690</ele>
        <time>2021-11-22T08:32:14.382Z</time>
      </trkpt>
      <trkpt lat="47.426010" lon="8.035820">
        <ele>511.362235</ele>
        <time>2021-11-22T08:32:14.979Z</time>
      </trkpt>
      <trkpt lat="47.425906" lon="8.035815">
        <ele>510.266124</ele>
        <time>2021-11-22T08:32:15.926Z</time>
      </trkpt>
      <trkpt lat="47.425277" lon="8.035886">
        <ele>503.620966</ele>
        <time>2021-11-22T08:32:21.324Z</time>
      </trkpt>
      <trkpt lat="47.425112" lon="8.035869">
        <ele>501.878644</ele>
        <time>2021-11-22T08:32:22.762Z</time>
      </trkpt>
      <trkpt lat="47.425031" lon="8.035847">
        <ele>501.011107</ele>
        <time>2021-11-22T08:32:23.473Z</time>
      </trkpt>
      <trkpt lat="47.424864" lon="8.035811">
        <ele>499.233323</ele>
        <time>2021-11-22T08:32:24.894Z</time>
      </trkpt>
      <trkpt lat="47.424719" lon="8.035799">
        <ele>497.703506</ele>
        <time>2021-11-22T08:32:26.139Z</time>
      </trkpt>
      <trkpt lat="47.424613" lon="8.035824">
        <ele>496.572780</ele>
        <time>2021-11-22T08:32:27.029Z</time>
      </trkpt>
      <trkpt lat="47.424388" lon="8.035926">
        <ele>494.010691</ele>
        <time>2021-11-22T08:32:28.982Z</time>
      </trkpt>
      <trkpt lat="47.424082" lon="8.036169">
        <ele>489.594721</ele>
        <time>2021-11-22T08:32:31.889Z</time>
      </trkpt>
      <trkpt lat="47.423560" lon="8.036763">
        <ele>481.219873</ele>
        <time>2021-11-22T08:32:37.432Z</time>
      </trkpt>
      <trkpt lat="47.423448" lon="8.036933">
        <ele>479.178989</ele>
        <time>2021-11-22T08:32:38.782Z</time>
      </trkpt>
      <trkpt lat="47.423244" lon="8.037267">
        <ele>475.308807</ele>
        <time>2021-11-22T08:32:41.361Z</time>
      </trkpt>
      <trkpt lat="47.422905" lon="8.037963">
        <ele>468.653856</ele>
        <time>2021-11-22T08:32:46.267Z</time>
      </trkpt>
      <trkpt lat="47.422868" lon="8.038042">
        <ele>467.988691</ele>
        <time>2021-11-22T08:32:46.829Z</time>
      </trkpt>
      <trkpt lat="47.422730" lon="8.038382">
        <ele>465.243834</ele>
        <time>2021-11-22T08:32:49.080Z</time>
      </trkpt>
      <trkpt lat="47.422474" lon="8.038973">
        <ele>460.385683</ele>
        <time>2021-11-22T08:32:53.134Z</time>
      </trkpt>
      <trkpt lat="47.422435" lon="8.039041">
        <ele>459.768542</ele>
        <time>2021-11-22T08:32:53.642Z</time>
      </trkpt>
      <trkpt lat="47.422173" lon="8.039494">
        <ele>455.642752</ele>
        <time>2021-11-22T08:32:57.241Z</time>
      </trkpt>
      <trkpt lat="47.422065" lon="8.039680">
        <ele>453.945894</ele>
        <time>2021-11-22T08:32:58.690Z</time>
      </trkpt>
      <trkpt lat="47.421926" lon="8.039862">
        <ele>452.344197</ele>
        <time>2021-11-22T08:33:00.371Z</time>
      </trkpt>
      <trkpt lat="47.421857" lon="8.039952">
        <ele>451.640800</ele>
        <time>2021-11-22T08:33:01.182Z</time>
      </trkpt>
      <trkpt lat="47.421614" lon="8.040268">
        <ele>449.166885</ele>
        <time>2021-11-22T08:33:04.047Z</time>
      </trkpt>
      <trkpt lat="47.421515" lon="8.040542">
        <ele>447.560511</ele>
        <time>2021-11-22T08:33:05.890Z</time>
      </trkpt>
      <trkpt lat="47.421369" lon="8.040943">
        <ele>445.205554</ele>
        <time>2021-11-22T08:33:08.582Z</time>
      </trkpt>
      <trkpt lat="47.421212" lon="8.041305">
        <ele>442.981879</ele>
        <time>2021-11-22T08:33:11.210Z</time>
      </trkpt>
      <trkpt lat="47.421194" lon="8.041345">
        <ele>442.733444</ele>
        <time>2021-11-22T08:33:11.479Z</time>
      </trkpt>
      <trkpt lat="47.421132" lon="8.041487">
        <ele>441.859459</ele>
        <time>2021-11-22T08:33:12.551Z</time>
      </trkpt>
      <trkpt lat="47.420713" lon="8.042016">
        <ele>438.158166</ele>
        <time>2021-11-22T08:33:17.530Z</time>
      </trkpt>
      <trkpt lat="47.420686" lon="8.042054">
        <ele>437.952715</ele>
        <time>2021-11-22T08:33:17.840Z</time>
      </trkpt>
      <trkpt lat="47.420610" lon="8.042144">
        <ele>437.416063</ele>
        <time>2021-11-22T08:33:18.699Z</time>
      </trkpt>
      <trkpt lat="47.420398" lon="8.042394">
        <ele>435.921538</ele>
        <time>2021-11-22T08:33:21.226Z</time>
      </trkpt>
      <trkpt lat="47.420118" lon="8.042829">
        <ele>433.682961</ele>
        <time>2021-11-22T08:33:24.992Z</time>
      </trkpt>
      <trkpt lat="47.420109" lon="8.042846">
        <ele>433.602480</ele>
        <time>2021-11-22T08:33:25.124Z</time>
      </trkpt>
      <trkpt lat="47.419963" lon="8.043060">
        <ele>432.469376</ele>
        <time>2021-11-22T08:33:27.299Z</time>
      </trkpt>
      <trkpt lat="47.419839" lon="8.043244">
        <ele>431.501096</ele>
        <time>2021-11-22T08:33:28.875Z</time>
      </trkpt>
      <trkpt lat="47.419549" lon="8.043696">
        <ele>429.325009</ele>
        <time>2021-11-22T08:33:32.899Z</time>
      </trkpt>
      <trkpt lat="47.419418" lon="8.043891">
        <ele>428.687511</ele>
        <time>2021-11-22T08:33:34.768Z</time>
      </trkpt>
      <trkpt lat="47.419290" lon="8.044087">
        <ele>428.055550</ele>
        <time>2021-11-22T08:33:36.502Z</time>
      </trkpt>
      <trkpt lat="47.419003" lon="8.044708">
        <ele>426.310855</ele>
        <time>2021-11-22T08:33:41.704Z</time>
      </trkpt>
      <trkpt lat="47.418931" lon="8.044951">
        <ele>425.695418</ele>
        <time>2021-11-22T08:33:43.398Z</time>
      </trkpt>
      <trkpt lat="47.418751" lon="8.045723">
        <ele>423.801037</ele>
        <time>2021-11-22T08:33:49.477Z</time>
      </trkpt>
      <trkpt lat="47.418700" lon="8.045929">
        <ele>423.288321</ele>
        <time>2021-11-22T08:33:50.976Z</time>
      </trkpt>
      <trkpt lat="47.418443" lon="8.046572">
        <ele>421.494002</ele>
        <time>2021-11-22T08:33:56.163Z</time>
      </trkpt>
      <trkpt lat="47.418416" lon="8.046623">
        <ele>421.338415</ele>
        <time>2021-11-22T08:33:56.587Z</time>
      </trkpt>
      <trkpt lat="47.418380" lon="8.046691">
        <ele>421.130967</ele>
        <time>2021-11-22T08:33:57.166Z</time>
      </trkpt>
      <trkpt lat="47.418150" lon="8.046912">
        <ele>420.156818</ele>
        <time>2021-11-22T08:33:59.771Z</time>
      </trkpt>
      <trkpt lat="47.418081" lon="8.046958">
        <ele>419.888031</ele>
        <time>2021-11-22T08:34:00.476Z</time>
      </trkpt>
      <trkpt lat="47.417974" lon="8.047018">
        <ele>419.481654</ele>
        <time>2021-11-22T08:34:01.634Z</time>
      </trkpt>
      <trkpt lat="47.417855" lon="8.047064">
        <ele>419.044882</ele>
        <time>2021-11-22T08:34:02.792Z</time>
      </trkpt>
      <trkpt lat="47.417795" lon="8.047088">
        <ele>418.824162</ele>
        <time>2021-11-22T08:34:03.369Z</time>
      </trkpt>
      <trkpt lat="47.417655" lon="8.047116">
        <ele>418.322504</ele>
        <time>2021-11-22T08:34:05.118Z</time>
      </trkpt>
      <trkpt lat="47.417615" lon="8.047155">
        <ele>418.152342</ele>
        <time>2021-11-22T08:34:05.662Z</time>
      </trkpt>
      <trkpt lat="47.417590" lon="8.047205">
        <ele>418.002966</ele>
        <time>2021-11-22T08:34:06.051Z</time>
      </trkpt>
      <trkpt lat="47.417451" lon="8.047152">
        <ele>417.493228</ele>
        <time>2021-11-22T08:34:07.387Z</time>
      </trkpt>
      <trkpt lat="47.417333" lon="8.047125">
        <ele>417.069229</ele>
        <time>2021-11-22T08:34:08.972Z</time>
      </trkpt>
      <trkpt lat="47.417145" lon="8.047144">
        <ele>416.520233</ele>
        <time>2021-11-22T08:34:10.791Z</time>
      </trkpt>
      <trkpt lat="47.417130" lon="8.047145">
        <ele>416.477377</ele>
        <time>2021-11-22T08:34:10.928Z</time>
      </trkpt>
      <trkpt lat="47.417058" lon="8.047168">
        <ele>416.267135</ele>
        <time>2021-11-22T08:34:11.632Z</time>
      </trkpt>
      <trkpt lat="47.417004" lon="8.047190">
        <ele>416.107264</ele>
        <time>2021-11-22T08:34:12.409Z</time>
      </trkpt>
      <trkpt lat="47.416861" lon="8.047252">
        <ele>415.681924</ele>
        <time>2021-11-22T08:34:13.906Z</time>
      </trkpt>
      <trkpt lat="47.416680" lon="8.047368">
        <ele>415.118845</ele>
        <time>2021-11-22T08:34:15.830Z</time>
      </trkpt>
      <trkpt lat="47.416606" lon="8.047423">
        <ele>414.882434</ele>
        <time>2021-11-22T08:34:17.026Z</time>
      </trkpt>
      <trkpt lat="47.416439" lon="8.047556">
        <ele>414.340992</ele>
        <time>2021-11-22T08:34:18.783Z</time>
      </trkpt>
      <trkpt lat="47.416294" lon="8.047671">
        <ele>413.871315</ele>
        <time>2021-11-22T08:34:21.145Z</time>
      </trkpt>
      <trkpt lat="47.416172" lon="8.047770">
        <ele>413.474073</ele>
        <time>2021-11-22T08:34:22.454Z</time>
      </trkpt>
      <trkpt lat="47.416092" lon="8.047830">
        <ele>413.218023</ele>
        <time>2021-11-22T08:34:23.384Z</time>
      </trkpt>
      <trkpt lat="47.415894" lon="8.047980">
        <ele>412.582982</ele>
        <time>2021-11-22T08:34:25.950Z</time>
      </trkpt>
      <trkpt lat="47.415806" lon="8.048043">
        <ele>412.303900</ele>
        <time>2021-11-22T08:34:26.899Z</time>
      </trkpt>
      <trkpt lat="47.415651" lon="8.048153">
        <ele>411.835260</ele>
        <time>2021-11-22T08:34:29.700Z</time>
      </trkpt>
      <trkpt lat="47.415485" lon="8.048228">
        <ele>411.506764</ele>
        <time>2021-11-22T08:34:31.376Z</time>
      </trkpt>
      <trkpt lat="47.415342" lon="8.048265">
        <ele>411.232031</ele>
        <time>2021-11-22T08:34:33.773Z</time>
      </trkpt>
      <trkpt lat="47.415207" lon="8.048280">
        <ele>410.975833</ele>
        <time>2021-11-22T08:34:35.242Z</time>
      </trkpt>
      <trkpt lat="47.415204" lon="8.048501">
        <ele>410.692771</ele>
        <time>2021-11-22T08:34:37.839Z</time>
      </trkpt>
      <trkpt lat="47.415173" lon="8.048677">
        <ele>410.459882</ele>
        <time>2021-11-22T08:34:40.928Z</time>
      </trkpt>
      <trkpt lat="47.415066" lon="8.048847">
        <ele>410.162571</ele>
        <time>2021-11-22T08:34:43.193Z</time>
      </trkpt>
      <trkpt lat="47.415034" lon="8.049054">
        <ele>409.890664</ele>
        <time>2021-11-22T08:34:45.636Z</time>
      </trkpt>
      <trkpt lat="47.415024" lon="8.049102">
        <ele>409.826349</ele>
        <time>2021-11-22T08:34:46.293Z</time>
      </trkpt>
      <trkpt lat="47.414997" lon="8.049151">
        <ele>409.745429</ele>
        <time>2021-11-22T08:34:46.895Z</time>
      </trkpt>
      <trkpt lat="47.414894" lon="8.049271">
        <ele>409.497220</ele>
        <time>2021-11-22T08:34:48.825Z</time>
      </trkpt>
      <trkpt lat="47.414872" lon="8.049314">
        <ele>409.428188</ele>
        <time>2021-11-22T08:34:49.468Z</time>
      </trkpt>
      <trkpt lat="47.414853" lon="8.049350">
        <ele>409.369724</ele>
        <time>2021-11-22T08:34:50.050Z</time>
      </trkpt>
      <trkpt lat="47.414829" lon="8.049416">
        <ele>409.273775</ele>
        <time>2021-11-22T08:34:50.944Z</time>
      </trkpt>
      <trkpt lat="47.414820" lon="8.049459">
        <ele>409.216137</ele>
        <time>2021-11-22T08:34:51.418Z</time>
      </trkpt>
      <trkpt lat="47.414800" lon="8.049553">
        <ele>409.089953</ele>
        <time>2021-11-22T08:34:52.381Z</time>
      </trkpt>
      <trkpt lat="47.414635" lon="8.049963">
        <ele>408.479082</ele>
        <time>2021-11-22T08:34:57.549Z</time>
      </trkpt>
      <trkpt lat="47.414579" lon="8.050081">
        <ele>408.185764</ele>
        <time>2021-11-22T08:34:58.936Z</time>
      </trkpt>
      <trkpt lat="47.414537" lon="8.050163">
        <ele>407.974706</ele>
        <time>2021-11-22T08:34:59.957Z</time>
      </trkpt>
      <trkpt lat="47.414116" lon="8.051267">
        <ele>405.373979</ele>
        <time>2021-11-22T08:35:12.950Z</time>
      </trkpt>
      <trkpt lat="47.414026" lon="8.051355">
        <ele>405.046686</ele>
        <time>2021-11-22T08:35:14.386Z</time>
      </trkpt>
      <trkpt lat="47.414168" lon="8.051800">
        <ele>404.036966</ele>
        <time>2021-11-22T08:35:19.155Z</time>
      </trkpt>
      <trkpt lat="47.413974" lon="8.051951">
        <ele>403.371975</ele>
        <time>2021-11-22T08:35:22.245Z</time>
      </trkpt>
      <trkpt lat="47.413758" lon="8.052151">
        <ele>402.672453</ele>
        <time>2021-11-22T08:35:25.947Z</time>
      </trkpt>
      <trkpt lat="47.413635" lon="8.052265">
        <ele>402.309015</ele>
        <time>2021-11-22T08:35:28.078Z</time>
      </trkpt>
      <trkpt lat="47.413317" lon="8.052581">
        <ele>401.349765</ele>
        <time>2021-11-22T08:35:33.652Z</time>
      </trkpt>
      <trkpt lat="47.413186" lon="8.052656">
        <ele>400.998097</ele>
        <time>2021-11-22T08:35:35.606Z</time>
      </trkpt>
      <trkpt lat="47.413162" lon="8.052742">
        <ele>400.840518</ele>
        <time>2021-11-22T08:35:36.584Z</time>
      </trkpt>
      <trkpt lat="47.413178" lon="8.053085">
        <ele>400.258122</ele>
        <time>2021-11-22T08:35:40.079Z</time>
      </trkpt>
      <trkpt lat="47.413169" lon="8.053324">
        <ele>399.852648</ele>
        <time>2021-11-22T08:35:42.564Z</time>
      </trkpt>
      <trkpt lat="47.413166" lon="8.053493">
        <ele>399.566276</ele>
        <time>2021-11-22T08:35:44.389Z</time>
      </trkpt>
      <trkpt lat="47.413154" lon="8.053586">
        <ele>399.405903</ele>
        <time>2021-11-22T08:35:45.422Z</time>
      </trkpt>
      <trkpt lat="47.413124" lon="8.053817">
        <ele>399.007465</ele>
        <time>2021-11-22T08:35:48.019Z</time>
      </trkpt>
      <trkpt lat="47.413095" lon="8.053912">
        <ele>398.830926</ele>
        <time>2021-11-22T08:35:49.142Z</time>
      </trkpt>
      <trkpt lat="47.413141" lon="8.054110">
        <ele>398.530485</ele>
        <time>2021-11-22T08:35:51.614Z</time>
      </trkpt>
      <trkpt lat="47.413108" lon="8.054809">
        <ele>398.898367</ele>
        <time>2021-11-22T08:36:00.487Z</time>
      </trkpt>
      <trkpt lat="47.413090" lon="8.055181">
        <ele>399.094174</ele>
        <time>2021-11-22T08:36:06.188Z</time>
      </trkpt>
      <trkpt lat="47.413029" lon="8.055478">
        <ele>399.257130</ele>
        <time>2021-11-22T08:36:10.979Z</time>
      </trkpt>
      <trkpt lat="47.412936" lon="8.055688">
        <ele>399.388896</ele>
        <time>2021-11-22T08:36:15.316Z</time>
      </trkpt>
      <trkpt lat="47.412413" lon="8.056424">
        <ele>399.989629</ele>
        <time>2021-11-22T08:36:35.797Z</time>
      </trkpt>
      <trkpt lat="47.411818" lon="8.057645">
        <ele>401.664176</ele>
        <time>2021-11-22T08:37:04.987Z</time>
      </trkpt>
      <trkpt lat="47.411629" lon="8.057877">
        <ele>402.068258</ele>
        <time>2021-11-22T08:37:10.428Z</time>
      </trkpt>
      <trkpt lat="47.411545" lon="8.057958">
        <ele>402.233216</ele>
        <time>2021-11-22T08:37:13.988Z</time>
      </trkpt>
      <trkpt lat="47.411396" lon="8.058058">
        <ele>402.502350</ele>
        <time>2021-11-22T08:37:17.544Z</time>
      </trkpt>
      <trkpt lat="47.411218" lon="8.058271">
        <ele>402.875578</ele>
        <time>2021-11-22T08:37:23.615Z</time>
      </trkpt>
      <trkpt lat="47.410857" lon="8.058864">
        <ele>403.372454</ele>
        <time>2021-11-22T08:37:35.717Z</time>
      </trkpt>
      <trkpt lat="47.410821" lon="8.058941">
        <ele>403.430755</ele>
        <time>2021-11-22T08:37:36.928Z</time>
      </trkpt>
      <trkpt lat="47.410779" lon="8.059157">
        <ele>403.570755</ele>
        <time>2021-11-22T08:37:41.088Z</time>
      </trkpt>
      <trkpt lat="47.410783" lon="8.060536">
        <ele>404.429805</ele>
        <time>2021-11-22T08:38:05.831Z</time>
      </trkpt>
      <trkpt lat="47.410789" lon="8.060894">
        <ele>404.118799</ele>
        <time>2021-11-22T08:38:10.385Z</time>
      </trkpt>
      <trkpt lat="47.410815" lon="8.061194">
        <ele>403.508783</ele>
        <time>2021-11-22T08:38:14.074Z</time>
      </trkpt>
      <trkpt lat="47.410851" lon="8.061363">
        <ele>403.151437</ele>
        <time>2021-11-22T08:38:15.889Z</time>
      </trkpt>
      <trkpt lat="47.410881" lon="8.061443">
        <ele>402.966968</ele>
        <time>2021-11-22T08:38:16.810Z</time>
      </trkpt>
      <trkpt lat="47.411023" lon="8.061464">
        <ele>402.541644</ele>
        <time>2021-11-22T08:38:19.557Z</time>
      </trkpt>
      <trkpt lat="47.411035" lon="8.061466">
        <ele>402.505653</ele>
        <time>2021-11-22T08:38:19.775Z</time>
      </trkpt>
      <trkpt lat="47.411152" lon="8.061490">
        <ele>402.153608</ele>
        <time>2021-11-22T08:38:21.479Z</time>
      </trkpt>
      <trkpt lat="47.411217" lon="8.061524">
        <ele>401.948107</ele>
        <time>2021-11-22T08:38:22.572Z</time>
      </trkpt>
      <trkpt lat="47.411292" lon="8.061644">
        <ele>401.618650</ele>
        <time>2021-11-22T08:38:24.230Z</time>
      </trkpt>
      <trkpt lat="47.411360" lon="8.061902">
        <ele>401.060219</ele>
        <time>2021-11-22T08:38:26.854Z</time>
      </trkpt>
      <trkpt lat="47.411324" lon="8.062373">
        <ele>400.104223</ele>
        <time>2021-11-22T08:38:31.365Z</time>
      </trkpt>
      <trkpt lat="47.411310" lon="8.062557">
        <ele>399.730776</ele>
        <time>2021-11-22T08:38:32.951Z</time>
      </trkpt>
      <trkpt lat="47.411147" lon="8.063820">
        <ele>394.445244</ele>
        <time>2021-11-22T08:38:44.342Z</time>
      </trkpt>
      <trkpt lat="47.411030" lon="8.064234">
        <ele>392.339519</ele>
        <time>2021-11-22T08:38:48.103Z</time>
      </trkpt>
      <trkpt lat="47.411009" lon="8.064289">
        <ele>392.043125</ele>
        <time>2021-11-22T08:38:48.657Z</time>
      </trkpt>
      <trkpt lat="47.411125" lon="8.064353">
        <ele>391.184362</ele>
        <time>2021-11-22T08:38:50.226Z</time>
      </trkpt>
      <trkpt lat="47.411040" lon="8.064796">
        <ele>389.023197</ele>
        <time>2021-11-22T08:38:54.106Z</time>
      </trkpt>
      <trkpt lat="47.411012" lon="8.064966">
        <ele>388.202014</ele>
        <time>2021-11-22T08:38:55.605Z</time>
      </trkpt>
      <trkpt lat="47.410973" lon="8.065575">
        <ele>385.790430</ele>
        <time>2021-11-22T08:39:01.004Z</time>
      </trkpt>
      <trkpt lat="47.411060" lon="8.066219">
        <ele>383.748923</ele>
        <time>2021-11-22T08:39:06.893Z</time>
      </trkpt>
      <trkpt lat="47.411089" lon="8.066312">
        <ele>383.430598</ele>
        <time>2021-11-22T08:39:07.836Z</time>
      </trkpt>
      <trkpt lat="47.411308" lon="8.067009">
        <ele>381.041681</ele>
        <time>2021-11-22T08:39:15.122Z</time>
      </trkpt>
      <trkpt lat="47.411470" lon="8.067506">
        <ele>379.326784</ele>
        <time>2021-11-22T08:39:20.547Z</time>
      </trkpt>
      <trkpt lat="47.411541" lon="8.068096">
        <ele>377.958046</ele>
        <time>2021-11-22T08:39:26.497Z</time>
      </trkpt>
      <trkpt lat="47.411697" lon="8.068608">
        <ele>377.105880</ele>
        <time>2021-11-22T08:39:32.124Z</time>
      </trkpt>
      <trkpt lat="47.411805" lon="8.068819">
        <ele>376.704374</ele>
        <time>2021-11-22T08:39:34.800Z</time>
      </trkpt>
      <trkpt lat="47.411858" lon="8.068922">
        <ele>376.507999</ele>
        <time>2021-11-22T08:39:36.234Z</time>
      </trkpt>
      <trkpt lat="47.411904" lon="8.069127">
        <ele>376.180224</ele>
        <time>2021-11-22T08:39:38.562Z</time>
      </trkpt>
      <trkpt lat="47.412048" lon="8.069786">
        <ele>375.129250</ele>
        <time>2021-11-22T08:39:46.008Z</time>
      </trkpt>
      <trkpt lat="47.412200" lon="8.070334">
        <ele>374.342863</ele>
        <time>2021-11-22T08:39:52.457Z</time>
      </trkpt>
      <trkpt lat="47.412249" lon="8.070484">
        <ele>374.262042</ele>
        <time>2021-11-22T08:39:54.470Z</time>
      </trkpt>
      <trkpt lat="47.412278" lon="8.070617">
        <ele>374.194239</ele>
        <time>2021-11-22T08:39:56.069Z</time>
      </trkpt>
      <trkpt lat="47.412297" lon="8.070819">
        <ele>374.095280</ele>
        <time>2021-11-22T08:39:58.289Z</time>
      </trkpt>
      <trkpt lat="47.412312" lon="8.071009">
        <ele>374.002461</ele>
        <time>2021-11-22T08:40:00.691Z</time>
      </trkpt>
      <trkpt lat="47.412325" lon="8.071183">
        <ele>373.917518</ele>
        <time>2021-11-22T08:40:02.905Z</time>
      </trkpt>
      <trkpt lat="47.412370" lon="8.071607">
        <ele>373.709266</ele>
        <time>2021-11-22T08:40:08.613Z</time>
      </trkpt>
      <trkpt lat="47.412455" lon="8.072516">
        <ele>373.264001</ele>
        <time>2021-11-22T08:40:20.242Z</time>
      </trkpt>
      <trkpt lat="47.412501" lon="8.072764">
        <ele>373.139226</ele>
        <time>2021-11-22T08:40:23.488Z</time>
      </trkpt>
      <trkpt lat="47.412735" lon="8.073330">
        <ele>373.056608</ele>
        <time>2021-11-22T08:40:31.693Z</time>
      </trkpt>
      <trkpt lat="47.412805" lon="8.073508">
        <ele>373.039508</ele>
        <time>2021-11-22T08:40:34.545Z</time>
      </trkpt>
      <trkpt lat="47.412891" lon="8.073728">
        <ele>373.018405</ele>
        <time>2021-11-22T08:40:37.645Z</time>
      </trkpt>
      <trkpt lat="47.412971" lon="8.074232">
        <ele>372.975406</ele>
        <time>2021-11-22T08:40:44.628Z</time>
      </trkpt>
      <trkpt lat="47.413172" lon="8.074761">
        <ele>372.925015</ele>
        <time>2021-11-22T08:40:53.287Z</time>
      </trkpt>
      <trkpt lat="47.413293" lon="8.075248">
        <ele>372.897429</ele>
        <time>2021-11-22T08:41:00.614Z</time>
      </trkpt>
      <trkpt lat="47.413408" lon="8.075571">
        <ele>373.008605</ele>
        <time>2021-11-22T08:41:05.881Z</time>
      </trkpt>
      <trkpt lat="47.413620" lon="8.076062">
        <ele>373.186020</ele>
        <time>2021-11-22T08:41:13.954Z</time>
      </trkpt>
      <trkpt lat="47.413817" lon="8.076562">
        <ele>373.362259</ele>
        <time>2021-11-22T08:41:22.367Z</time>
      </trkpt>
      <trkpt lat="47.413986" lon="8.077590">
        <ele>373.684504</ele>
        <time>2021-11-22T08:41:38.801Z</time>
      </trkpt>
      <trkpt lat="47.414002" lon="8.077706">
        <ele>373.759647</ele>
        <time>2021-11-22T08:41:41.244Z</time>
      </trkpt>
      <trkpt lat="47.414002" lon="8.077706">
        <ele>373.759647</ele>
        <time>2021-11-22T08:41:41.545Z</time>
      </trkpt>
      <trkpt lat="47.414002" lon="8.077706">
        <ele>373.759647</ele>
        <time>2021-11-22T08:41:41.575Z</time>
      </trkpt>
      <trkpt lat="47.413930" lon="8.078329">
        <ele>374.245161</ele>
        <time>2021-11-22T08:41:51.613Z</time>
      </trkpt>
      <trkpt lat="47.413885" lon="8.078419">
        <ele>374.331123</ele>
        <time>2021-11-22T08:41:53.218Z</time>
      </trkpt>
      <trkpt lat="47.413852" lon="8.078433">
        <ele>374.370098</ele>
        <time>2021-11-22T08:41:53.700Z</time>
      </trkpt>
      <trkpt lat="47.413861" lon="8.078615">
        <ele>374.510283</ele>
        <time>2021-11-22T08:41:57.447Z</time>
      </trkpt>
      <trkpt lat="47.413677" lon="8.081136">
        <ele>376.787648</ele>
        <time>2021-11-22T08:42:40.986Z</time>
      </trkpt>
      <trkpt lat="47.413656" lon="8.081309">
        <ele>376.984339</ele>
        <time>2021-11-22T08:42:43.299Z</time>
      </trkpt>
      <trkpt lat="47.413627" lon="8.081504">
        <ele>377.207767</ele>
        <time>2021-11-22T08:42:48.090Z</time>
      </trkpt>
      <trkpt lat="47.413599" lon="8.081785">
        <ele>377.525620</ele>
        <time>2021-11-22T08:42:54.235Z</time>
      </trkpt>
      <trkpt lat="47.413596" lon="8.082128">
        <ele>377.909497</ele>
        <time>2021-11-22T08:43:01.988Z</time>
      </trkpt>
      <trkpt lat="47.413603" lon="8.082277">
        <ele>378.076641</ele>
        <time>2021-11-22T08:43:04.013Z</time>
      </trkpt>
      <trkpt lat="47.413609" lon="8.082416">
        <ele>378.232509</ele>
        <time>2021-11-22T08:43:05.552Z</time>
      </trkpt>
      <trkpt lat="47.413640" lon="8.082556">
        <ele>378.397355</ele>
        <time>2021-11-22T08:43:08.647Z</time>
      </trkpt>
      <trkpt lat="47.413794" lon="8.083040">
        <ele>378.848971</ele>
        <time>2021-11-22T08:43:17.930Z</time>
      </trkpt>
      <trkpt lat="47.413791" lon="8.083121">
        <ele>378.892907</ele>
        <time>2021-11-22T08:43:20.635Z</time>
      </trkpt>
      <trkpt lat="47.413790" lon="8.083144">
        <ele>378.905389</ele>
        <time>2021-11-22T08:43:21.193Z</time>
      </trkpt>
      <trkpt lat="47.413781" lon="8.083242">
        <ele>378.958953</ele>
        <time>2021-11-22T08:43:22.377Z</time>
      </trkpt>
      <trkpt lat="47.413767" lon="8.083362">
        <ele>379.024905</ele>
        <time>2021-11-22T08:43:23.565Z</time>
      </trkpt>
      <trkpt lat="47.413721" lon="8.083537">
        <ele>379.126585</ele>
        <time>2021-11-22T08:43:25.818Z</time>
      </trkpt>
      <trkpt lat="47.413670" lon="8.083685">
        <ele>379.216537</ele>
        <time>2021-11-22T08:43:29.450Z</time>
      </trkpt>
      <trkpt lat="47.413607" lon="8.083830">
        <ele>379.309864</ele>
        <time>2021-11-22T08:43:30.823Z</time>
      </trkpt>
      <trkpt lat="47.413511" lon="8.084039">
        <ele>379.446674</ele>
        <time>2021-11-22T08:43:33.862Z</time>
      </trkpt>
      <trkpt lat="47.413294" lon="8.084553">
        <ele>379.774796</ele>
        <time>2021-11-22T08:43:42.588Z</time>
      </trkpt>
      <trkpt lat="47.413177" lon="8.084992">
        <ele>380.030338</ele>
        <time>2021-11-22T08:43:46.975Z</time>
      </trkpt>
      <trkpt lat="47.413137" lon="8.085779">
        <ele>381.428340</ele>
        <time>2021-11-22T08:43:54.427Z</time>
      </trkpt>
      <trkpt lat="47.413145" lon="8.085887">
        <ele>381.673195</ele>
        <time>2021-11-22T08:43:55.219Z</time>
      </trkpt>
      <trkpt lat="47.413173" lon="8.086079">
        <ele>382.115843</ele>
        <time>2021-11-22T08:43:58.005Z</time>
      </trkpt>
      <trkpt lat="47.413215" lon="8.086271">
        <ele>382.570602</ele>
        <time>2021-11-22T08:44:00.886Z</time>
      </trkpt>
      <trkpt lat="47.413391" lon="8.086974">
        <ele>384.259911</ele>
        <time>2021-11-22T08:44:13.238Z</time>
      </trkpt>
      <trkpt lat="47.413532" lon="8.087788">
        <ele>386.177472</ele>
        <time>2021-11-22T08:44:38.043Z</time>
      </trkpt>
      <trkpt lat="47.413531" lon="8.088154">
        <ele>388.569062</ele>
        <time>2021-11-22T08:44:48.457Z</time>
      </trkpt>
      <trkpt lat="47.413531" lon="8.088154">
        <ele>388.569062</ele>
        <time>2021-11-22T08:44:48.657Z</time>
      </trkpt>
      <trkpt lat="47.413531" lon="8.088154">
        <ele>388.569062</ele>
        <time>2021-11-22T08:44:48.854Z</time>
      </trkpt>
      <trkpt lat="47.413528" lon="8.088231">
        <ele>389.073040</ele>
        <time>2021-11-22T08:44:52.862Z</time>
      </trkpt>
      <trkpt lat="47.413517" lon="8.088629">
        <ele>391.675879</ele>
        <time>2021-11-22T08:45:06.490Z</time>
      </trkpt>
      <trkpt lat="47.413542" lon="8.088830">
        <ele>393.011284</ele>
        <time>2021-11-22T08:45:16.007Z</time>
      </trkpt>
      <trkpt lat="47.413624" lon="8.089064">
        <ele>394.733174</ele>
        <time>2021-11-22T08:45:26.112Z</time>
      </trkpt>
      <trkpt lat="47.413688" lon="8.089155">
        <ele>395.590784</ele>
        <time>2021-11-22T08:45:31.264Z</time>
      </trkpt>
      <trkpt lat="47.413707" lon="8.089172">
        <ele>395.805260</ele>
        <time>2021-11-22T08:45:33.430Z</time>
      </trkpt>
      <trkpt lat="47.413753" lon="8.089216">
        <ele>396.334373</ele>
        <time>2021-11-22T08:45:36.993Z</time>
      </trkpt>
      <trkpt lat="47.413895" lon="8.089286">
        <ele>397.779828</ele>
        <time>2021-11-22T08:45:44.400Z</time>
      </trkpt>
      <trkpt lat="47.413981" lon="8.089320">
        <ele>398.639463</ele>
        <time>2021-11-22T08:45:49.156Z</time>
      </trkpt>
      <trkpt lat="47.414016" lon="8.089354">
        <ele>399.043911</ele>
        <time>2021-11-22T08:45:51.691Z</time>
      </trkpt>
      <trkpt lat="47.414086" lon="8.089557">
        <ele>400.532662</ele>
        <time>2021-11-22T08:46:01.163Z</time>
      </trkpt>
      <trkpt lat="47.414152" lon="8.090034">
        <ele>403.643377</ele>
        <time>2021-11-22T08:46:19.469Z</time>
      </trkpt>
      <trkpt lat="47.414185" lon="8.090104">
        <ele>404.008801</ele>
        <time>2021-11-22T08:46:22.153Z</time>
      </trkpt>
      <trkpt lat="47.414223" lon="8.090148">
        <ele>404.314378</ele>
        <time>2021-11-22T08:46:24.268Z</time>
      </trkpt>
      <trkpt lat="47.414263" lon="8.090177">
        <ele>404.596402</ele>
        <time>2021-11-22T08:46:26.489Z</time>
      </trkpt>
      <trkpt lat="47.414311" lon="8.090206">
        <ele>404.924646</ele>
        <time>2021-11-22T08:46:28.833Z</time>
      </trkpt>
      <trkpt lat="47.414455" lon="8.090224">
        <ele>405.839401</ele>
        <time>2021-11-22T08:46:36.989Z</time>
      </trkpt>
      <trkpt lat="47.414478" lon="8.090226">
        <ele>405.985239</ele>
        <time>2021-11-22T08:46:38.539Z</time>
      </trkpt>
      <trkpt lat="47.414549" lon="8.090243">
        <ele>406.440520</ele>
        <time>2021-11-22T08:46:41.447Z</time>
      </trkpt>
      <trkpt lat="47.414616" lon="8.090305">
        <ele>406.940907</ele>
        <time>2021-11-22T08:46:45.434Z</time>
      </trkpt>
      <trkpt lat="47.414644" lon="8.090357">
        <ele>407.225552</ele>
        <time>2021-11-22T08:46:47.344Z</time>
      </trkpt>
      <trkpt lat="47.414620" lon="8.090763">
        <ele>408.971210</ele>
        <time>2021-11-22T08:47:00.214Z</time>
      </trkpt>
      <trkpt lat="47.414618" lon="8.090799">
        <ele>409.125929</ele>
        <time>2021-11-22T08:47:01.264Z</time>
      </trkpt>
      <trkpt lat="47.414614" lon="8.090877">
        <ele>409.460988</ele>
        <time>2021-11-22T08:47:03.554Z</time>
      </trkpt>
      <trkpt lat="47.414713" lon="8.092540">
        <ele>415.300904</ele>
        <time>2021-11-22T08:47:38.605Z</time>
      </trkpt>
      <trkpt lat="47.414903" lon="8.093941">
        <ele>416.750357</ele>
        <time>2021-11-22T08:47:56.715Z</time>
      </trkpt>
      <trkpt lat="47.414916" lon="8.094068">
        <ele>416.880653</ele>
        <time>2021-11-22T08:47:58.853Z</time>
      </trkpt>
      <trkpt lat="47.414968" lon="8.094524">
        <ele>417.349747</ele>
        <time>2021-11-22T08:48:03.939Z</time>
      </trkpt>
      <trkpt lat="47.415215" lon="8.095887">
        <ele>417.151852</ele>
        <time>2021-11-22T08:48:19.336Z</time>
      </trkpt>
      <trkpt lat="47.415283" lon="8.096239">
        <ele>417.015056</ele>
        <time>2021-11-22T08:48:23.505Z</time>
      </trkpt>
      <trkpt lat="47.415297" lon="8.096293">
        <ele>416.993446</ele>
        <time>2021-11-22T08:48:23.971Z</time>
      </trkpt>
      <trkpt lat="47.415477" lon="8.097066">
        <ele>416.687956</ele>
        <time>2021-11-22T08:48:30.657Z</time>
      </trkpt>
      <trkpt lat="47.415504" lon="8.097256">
        <ele>416.615405</ele>
        <time>2021-11-22T08:48:32.229Z</time>
      </trkpt>
      <trkpt lat="47.415531" lon="8.097443">
        <ele>416.180374</ele>
        <time>2021-11-22T08:48:33.598Z</time>
      </trkpt>
      <trkpt lat="47.415537" lon="8.098107">
        <ele>414.236973</ele>
        <time>2021-11-22T08:48:38.025Z</time>
      </trkpt>
      <trkpt lat="47.415527" lon="8.098358">
        <ele>413.501137</ele>
        <time>2021-11-22T08:48:39.698Z</time>
      </trkpt>
      <trkpt lat="47.415523" lon="8.098469">
        <ele>413.175830</ele>
        <time>2021-11-22T08:48:40.379Z</time>
      </trkpt>
      <trkpt lat="47.415494" lon="8.098736">
        <ele>412.384439</ele>
        <time>2021-11-22T08:48:42.165Z</time>
      </trkpt>
      <trkpt lat="47.415444" lon="8.098950">
        <ele>411.721875</ele>
        <time>2021-11-22T08:48:43.617Z</time>
      </trkpt>
      <trkpt lat="47.415420" lon="8.099037">
        <ele>411.446920</ele>
        <time>2021-11-22T08:48:44.179Z</time>
      </trkpt>
      <trkpt lat="47.415223" lon="8.099531">
        <ele>409.768821</ele>
        <time>2021-11-22T08:48:47.823Z</time>
      </trkpt>
      <trkpt lat="47.415159" lon="8.099742">
        <ele>409.092118</ele>
        <time>2021-11-22T08:48:49.377Z</time>
      </trkpt>
      <trkpt lat="47.415142" lon="8.100043">
        <ele>408.160391</ele>
        <time>2021-11-22T08:48:51.205Z</time>
      </trkpt>
      <trkpt lat="47.415178" lon="8.100941">
        <ele>405.321598</ele>
        <time>2021-11-22T08:48:56.821Z</time>
      </trkpt>
      <trkpt lat="47.415260" lon="8.101494">
        <ele>403.535087</ele>
        <time>2021-11-22T08:49:00.379Z</time>
      </trkpt>
      <trkpt lat="47.415689" lon="8.102575">
        <ele>400.522426</ele>
        <time>2021-11-22T08:49:08.863Z</time>
      </trkpt>
      <trkpt lat="47.415790" lon="8.102844">
        <ele>400.627700</ele>
        <time>2021-11-22T08:49:11.134Z</time>
      </trkpt>
      <trkpt lat="47.415831" lon="8.102972">
        <ele>400.676162</ele>
        <time>2021-11-22T08:49:12.284Z</time>
      </trkpt>
      <trkpt lat="47.415849" lon="8.103052">
        <ele>400.705012</ele>
        <time>2021-11-22T08:49:13.074Z</time>
      </trkpt>
      <trkpt lat="47.416031" lon="8.103825">
        <ele>400.985091</ele>
        <time>2021-11-22T08:49:20.089Z</time>
      </trkpt>
      <trkpt lat="47.416047" lon="8.104088">
        <ele>401.075454</ele>
        <time>2021-11-22T08:49:24.451Z</time>
      </trkpt>
      <trkpt lat="47.416028" lon="8.104385">
        <ele>401.177542</ele>
        <time>2021-11-22T08:49:29.464Z</time>
      </trkpt>
      <trkpt lat="47.416014" lon="8.104593">
        <ele>401.249071</ele>
        <time>2021-11-22T08:49:33.749Z</time>
      </trkpt>
      <trkpt lat="47.416062" lon="8.105399">
        <ele>404.083509</ele>
        <time>2021-11-22T08:49:52.595Z</time>
      </trkpt>
      <trkpt lat="47.416098" lon="8.105876">
        <ele>406.505135</ele>
        <time>2021-11-22T08:50:06.422Z</time>
      </trkpt>
      <trkpt lat="47.416086" lon="8.106072">
        <ele>407.498092</ele>
        <time>2021-11-22T08:50:12.033Z</time>
      </trkpt>
      <trkpt lat="47.416051" lon="8.106404">
        <ele>409.193404</ele>
        <time>2021-11-22T08:50:24.476Z</time>
      </trkpt>
      <trkpt lat="47.415963" lon="8.107311">
        <ele>413.816479</ele>
        <time>2021-11-22T08:50:56.373Z</time>
      </trkpt>
      <trkpt lat="47.415914" lon="8.108288">
        <ele>417.964151</ele>
        <time>2021-11-22T08:51:29.887Z</time>
      </trkpt>
      <trkpt lat="47.415904" lon="8.108426">
        <ele>418.525467</ele>
        <time>2021-11-22T08:51:34.736Z</time>
      </trkpt>
      <trkpt lat="47.415825" lon="8.109168">
        <ele>421.563323</ele>
        <time>2021-11-22T08:51:53.508Z</time>
      </trkpt>
      <trkpt lat="47.415819" lon="8.109294">
        <ele>422.074176</ele>
        <time>2021-11-22T08:51:57.413Z</time>
      </trkpt>
      <trkpt lat="47.415828" lon="8.109519">
        <ele>422.985753</ele>
        <time>2021-11-22T08:52:02.235Z</time>
      </trkpt>
      <trkpt lat="47.415887" lon="8.109940">
        <ele>424.724574</ele>
        <time>2021-11-22T08:52:11.618Z</time>
      </trkpt>
      <trkpt lat="47.416029" lon="8.110430">
        <ele>425.767746</ele>
        <time>2021-11-22T08:52:20.140Z</time>
      </trkpt>
      <trkpt lat="47.416110" lon="8.110685">
        <ele>425.987728</ele>
        <time>2021-11-22T08:52:22.563Z</time>
      </trkpt>
      <trkpt lat="47.416140" lon="8.110825">
        <ele>426.102407</ele>
        <time>2021-11-22T08:52:25.165Z</time>
      </trkpt>
      <trkpt lat="47.416289" lon="8.112654">
        <ele>427.541005</ele>
        <time>2021-11-22T08:52:43.660Z</time>
      </trkpt>
      <trkpt lat="47.416317" lon="8.112836">
        <ele>428.017826</ele>
        <time>2021-11-22T08:52:45.801Z</time>
      </trkpt>
      <trkpt lat="47.416367" lon="8.113057">
        <ele>428.749821</ele>
        <time>2021-11-22T08:52:49.750Z</time>
      </trkpt>
      <trkpt lat="47.416914" lon="8.114547">
        <ele>434.074746</ele>
        <time>2021-11-22T08:53:29.354Z</time>
      </trkpt>
      <trkpt lat="47.417019" lon="8.115079">
        <ele>435.815517</ele>
        <time>2021-11-22T08:53:46.094Z</time>
      </trkpt>
      <trkpt lat="47.417128" lon="8.115588">
        <ele>437.779278</ele>
        <time>2021-11-22T08:54:01.941Z</time>
      </trkpt>
      <trkpt lat="47.417162" lon="8.115799">
        <ele>438.585391</ele>
        <time>2021-11-22T08:54:06.578Z</time>
      </trkpt>
      <trkpt lat="47.417169" lon="8.115967">
        <ele>439.210947</ele>
        <time>2021-11-22T08:54:11.919Z</time>
      </trkpt>
      <trkpt lat="47.417159" lon="8.116098">
        <ele>439.700898</ele>
        <time>2021-11-22T08:54:16.943Z</time>
      </trkpt>
      <trkpt lat="47.417111" lon="8.116280">
        <ele>440.426866</ele>
        <time>2021-11-22T08:54:20.875Z</time>
      </trkpt>
      <trkpt lat="47.416825" lon="8.116822">
        <ele>442.981311</ele>
        <time>2021-11-22T08:54:39.212Z</time>
      </trkpt>
      <trkpt lat="47.416771" lon="8.116964">
        <ele>443.586692</ele>
        <time>2021-11-22T08:54:45.078Z</time>
      </trkpt>
      <trkpt lat="47.416715" lon="8.117196">
        <ele>444.502146</ele>
        <time>2021-11-22T08:54:49.171Z</time>
      </trkpt>
      <trkpt lat="47.416676" lon="8.117709">
        <ele>445.645967</ele>
        <time>2021-11-22T08:54:59.484Z</time>
      </trkpt>
      <trkpt lat="47.416641" lon="8.118223">
        <ele>445.146127</ele>
        <time>2021-11-22T08:55:07.118Z</time>
      </trkpt>
      <trkpt lat="47.416569" lon="8.118732">
        <ele>444.642991</ele>
        <time>2021-11-22T08:55:11.261Z</time>
      </trkpt>
      <trkpt lat="47.416459" lon="8.119431">
        <ele>443.948613</ele>
        <time>2021-11-22T08:55:16.414Z</time>
      </trkpt>
      <trkpt lat="47.416298" lon="8.120228">
        <ele>442.911972</ele>
        <time>2021-11-22T08:55:21.722Z</time>
      </trkpt>
      <trkpt lat="47.416291" lon="8.121196">
        <ele>439.569783</ele>
        <time>2021-11-22T08:55:27.835Z</time>
      </trkpt>
      <trkpt lat="47.416479" lon="8.122061">
        <ele>436.433129</ele>
        <time>2021-11-22T08:55:33.643Z</time>
      </trkpt>
      <trkpt lat="47.416514" lon="8.122219">
        <ele>435.859153</ele>
        <time>2021-11-22T08:55:34.648Z</time>
      </trkpt>
      <trkpt lat="47.416581" lon="8.122489">
        <ele>434.866284</ele>
        <time>2021-11-22T08:55:36.572Z</time>
      </trkpt>
      <trkpt lat="47.416611" lon="8.122801">
        <ele>433.725696</ele>
        <time>2021-11-22T08:55:38.555Z</time>
      </trkpt>
      <trkpt lat="47.416603" lon="8.123016">
        <ele>432.842044</ele>
        <time>2021-11-22T08:55:39.991Z</time>
      </trkpt>
      <trkpt lat="47.416592" lon="8.123486">
        <ele>430.912101</ele>
        <time>2021-11-22T08:55:42.906Z</time>
      </trkpt>
      <trkpt lat="47.416602" lon="8.123985">
        <ele>428.863404</ele>
        <time>2021-11-22T08:55:46.030Z</time>
      </trkpt>
      <trkpt lat="47.416656" lon="8.123917">
        <ele>428.433138</ele>
        <time>2021-11-22T08:55:48.156Z</time>
      </trkpt>
      <trkpt lat="47.416602" lon="8.123985">
        <ele>428.002872</ele>
        <time>2021-11-22T08:55:49.997Z</time>
      </trkpt>
      <trkpt lat="47.416618" lon="8.125016">
        <ele>423.770735</ele>
        <time>2021-11-22T08:55:56.319Z</time>
      </trkpt>
      <trkpt lat="47.416621" lon="8.125394">
        <ele>421.854169</ele>
        <time>2021-11-22T08:55:58.593Z</time>
      </trkpt>
      <trkpt lat="47.416600" lon="8.126042">
        <ele>418.145599</ele>
        <time>2021-11-22T08:56:02.522Z</time>
      </trkpt>
      <trkpt lat="47.416577" lon="8.126284">
        <ele>416.748614</ele>
        <time>2021-11-22T08:56:03.948Z</time>
      </trkpt>
      <trkpt lat="47.416502" lon="8.126735">
        <ele>414.093729</ele>
        <time>2021-11-22T08:56:06.730Z</time>
      </trkpt>
      <trkpt lat="47.416433" lon="8.127309">
        <ele>410.761045</ele>
        <time>2021-11-22T08:56:10.122Z</time>
      </trkpt>
      <trkpt lat="47.416388" lon="8.127799">
        <ele>407.934058</ele>
        <time>2021-11-22T08:56:13.036Z</time>
      </trkpt>
      <trkpt lat="47.416342" lon="8.127992">
        <ele>406.753022</ele>
        <time>2021-11-22T08:56:14.233Z</time>
      </trkpt>
      <trkpt lat="47.416247" lon="8.128328">
        <ele>404.651215</ele>
        <time>2021-11-22T08:56:16.366Z</time>
      </trkpt>
      <trkpt lat="47.416135" lon="8.128791">
        <ele>401.813244</ele>
        <time>2021-11-22T08:56:19.307Z</time>
      </trkpt>
      <trkpt lat="47.416094" lon="8.128954">
        <ele>400.809542</ele>
        <time>2021-11-22T08:56:20.322Z</time>
      </trkpt>
      <trkpt lat="47.416075" lon="8.129039">
        <ele>400.292863</ele>
        <time>2021-11-22T08:56:20.865Z</time>
      </trkpt>
      <trkpt lat="47.416061" lon="8.129132">
        <ele>399.742961</ele>
        <time>2021-11-22T08:56:21.446Z</time>
      </trkpt>
      <trkpt lat="47.416055" lon="8.129260">
        <ele>399.002398</ele>
        <time>2021-11-22T08:56:22.230Z</time>
      </trkpt>
      <trkpt lat="47.416060" lon="8.129331">
        <ele>398.590386</ele>
        <time>2021-11-22T08:56:22.640Z</time>
      </trkpt>
      <trkpt lat="47.416325" lon="8.130531">
        <ele>391.343676</ele>
        <time>2021-11-22T08:56:30.162Z</time>
      </trkpt>
      <trkpt lat="47.416527" lon="8.132520">
        <ele>380.081142</ele>
        <time>2021-11-22T08:56:42.100Z</time>
      </trkpt>
      <trkpt lat="47.416534" lon="8.132698">
        <ele>379.082717</ele>
        <time>2021-11-22T08:56:43.135Z</time>
      </trkpt>
      <trkpt lat="47.416563" lon="8.133578">
        <ele>374.991069</ele>
        <time>2021-11-22T08:56:48.494Z</time>
      </trkpt>
      <trkpt lat="47.416587" lon="8.134102">
        <ele>372.742162</ele>
        <time>2021-11-22T08:56:51.678Z</time>
      </trkpt>
      <trkpt lat="47.416604" lon="8.134318">
        <ele>371.811013</ele>
        <time>2021-11-22T08:56:52.960Z</time>
      </trkpt>
      <trkpt lat="47.416625" lon="8.134534">
        <ele>370.876602</ele>
        <time>2021-11-22T08:56:54.336Z</time>
      </trkpt>
      <trkpt lat="47.416658" lon="8.134672">
        <ele>370.249871</ele>
        <time>2021-11-22T08:56:55.253Z</time>
      </trkpt>
      <trkpt lat="47.416726" lon="8.134959">
        <ele>368.947777</ele>
        <time>2021-11-22T08:56:57.097Z</time>
      </trkpt>
      <trkpt lat="47.416749" lon="8.135179">
        <ele>367.994561</ele>
        <time>2021-11-22T08:56:58.547Z</time>
      </trkpt>
      <trkpt lat="47.416750" lon="8.135267">
        <ele>367.617692</ele>
        <time>2021-11-22T08:56:59.111Z</time>
      </trkpt>
      <trkpt lat="47.416747" lon="8.135379">
        <ele>367.137733</ele>
        <time>2021-11-22T08:56:59.825Z</time>
      </trkpt>
      <trkpt lat="47.416720" lon="8.135730">
        <ele>366.093310</ele>
        <time>2021-11-22T08:57:02.194Z</time>
      </trkpt>
      <trkpt lat="47.416691" lon="8.136112">
        <ele>365.517905</ele>
        <time>2021-11-22T08:57:04.789Z</time>
      </trkpt>
      <trkpt lat="47.416679" lon="8.136263">
        <ele>365.290318</ele>
        <time>2021-11-22T08:57:05.870Z</time>
      </trkpt>
      <trkpt lat="47.416663" lon="8.136694">
        <ele>364.644182</ele>
        <time>2021-11-22T08:57:08.945Z</time>
      </trkpt>
      <trkpt lat="47.416661" lon="8.136761">
        <ele>364.543792</ele>
        <time>2021-11-22T08:57:09.463Z</time>
      </trkpt>
      <trkpt lat="47.416653" lon="8.136955">
        <ele>364.252853</ele>
        <time>2021-11-22T08:57:10.804Z</time>
      </trkpt>
      <trkpt lat="47.416633" lon="8.137189">
        <ele>363.899794</ele>
        <time>2021-11-22T08:57:12.754Z</time>
      </trkpt>
      <trkpt lat="47.416589" lon="8.137547">
        <ele>363.355133</ele>
        <time>2021-11-22T08:57:15.420Z</time>
      </trkpt>
      <trkpt lat="47.416510" lon="8.138093">
        <ele>362.519345</ele>
        <time>2021-11-22T08:57:20.042Z</time>
      </trkpt>
      <trkpt lat="47.416461" lon="8.138482">
        <ele>362.506825</ele>
        <time>2021-11-22T08:57:23.986Z</time>
      </trkpt>
      <trkpt lat="47.416432" lon="8.138879">
        <ele>362.698531</ele>
        <time>2021-11-22T08:57:28.376Z</time>
      </trkpt>
      <trkpt lat="47.416397" lon="8.138974">
        <ele>362.750463</ele>
        <time>2021-11-22T08:57:29.397Z</time>
      </trkpt>
      <trkpt lat="47.416327" lon="8.139061">
        <ele>362.815358</ele>
        <time>2021-11-22T08:57:31.028Z</time>
      </trkpt>
      <trkpt lat="47.416289" lon="8.139081">
        <ele>362.843978</ele>
        <time>2021-11-22T08:57:31.495Z</time>
      </trkpt>
      <trkpt lat="47.416307" lon="8.139144">
        <ele>362.876810</ele>
        <time>2021-11-22T08:57:32.674Z</time>
      </trkpt>
      <trkpt lat="47.416304" lon="8.139422">
        <ele>363.010295</ele>
        <time>2021-11-22T08:57:35.985Z</time>
      </trkpt>
      <trkpt lat="47.416191" lon="8.139979">
        <ele>363.289471</ele>
        <time>2021-11-22T08:57:43.537Z</time>
      </trkpt>
      <trkpt lat="47.416177" lon="8.140095">
        <ele>363.346042</ele>
        <time>2021-11-22T08:57:45.008Z</time>
      </trkpt>
      <trkpt lat="47.416163" lon="8.140318">
        <ele>363.453565</ele>
        <time>2021-11-22T08:57:48.350Z</time>
      </trkpt>
      <trkpt lat="47.416163" lon="8.140356">
        <ele>363.471808</ele>
        <time>2021-11-22T08:57:49.027Z</time>
      </trkpt>
      <trkpt lat="47.416160" lon="8.140586">
        <ele>363.582252</ele>
        <time>2021-11-22T08:57:52.533Z</time>
      </trkpt>
      <trkpt lat="47.416159" lon="8.140657">
        <ele>363.616347</ele>
        <time>2021-11-22T08:57:53.224Z</time>
      </trkpt>
      <trkpt lat="47.416161" lon="8.141080">
        <ele>363.674530</ele>
        <time>2021-11-22T08:57:59.911Z</time>
      </trkpt>
      <trkpt lat="47.416161" lon="8.141192">
        <ele>363.684343</ele>
        <time>2021-11-22T08:58:01.256Z</time>
      </trkpt>
      <trkpt lat="47.416163" lon="8.141430">
        <ele>363.705198</ele>
        <time>2021-11-22T08:58:04.732Z</time>
      </trkpt>
      <trkpt lat="47.416163" lon="8.141465">
        <ele>363.708264</ele>
        <time>2021-11-22T08:58:05.284Z</time>
      </trkpt>
      <trkpt lat="47.416149" lon="8.141961">
        <ele>363.751759</ele>
        <time>2021-11-22T08:58:11.271Z</time>
      </trkpt>
      <trkpt lat="47.416140" lon="8.142099">
        <ele>363.763906</ele>
        <time>2021-11-22T08:58:12.965Z</time>
      </trkpt>
      <trkpt lat="47.416098" lon="8.142501">
        <ele>363.799545</ele>
        <time>2021-11-22T08:58:17.014Z</time>
      </trkpt>
      <trkpt lat="47.416040" lon="8.142873">
        <ele>363.832992</ele>
        <time>2021-11-22T08:58:20.185Z</time>
      </trkpt>
      <trkpt lat="47.415961" lon="8.143285">
        <ele>363.870512</ele>
        <time>2021-11-22T08:58:23.568Z</time>
      </trkpt>
      <trkpt lat="47.415927" lon="8.143455">
        <ele>363.640470</ele>
        <time>2021-11-22T08:58:24.906Z</time>
      </trkpt>
      <trkpt lat="47.415782" lon="8.144293">
        <ele>362.019733</ele>
        <time>2021-11-22T08:58:31.196Z</time>
      </trkpt>
      <trkpt lat="47.415749" lon="8.144559">
        <ele>361.513004</ele>
        <time>2021-11-22T08:58:33.095Z</time>
      </trkpt>
      <trkpt lat="47.415703" lon="8.145094">
        <ele>360.502477</ele>
        <time>2021-11-22T08:58:36.756Z</time>
      </trkpt>
      <trkpt lat="47.415660" lon="8.145467">
        <ele>359.793491</ele>
        <time>2021-11-22T08:58:39.305Z</time>
      </trkpt>
      <trkpt lat="47.415619" lon="8.145817">
        <ele>359.127917</ele>
        <time>2021-11-22T08:58:41.671Z</time>
      </trkpt>
      <trkpt lat="47.415601" lon="8.145965">
        <ele>358.852478</ele>
        <time>2021-11-22T08:58:42.695Z</time>
      </trkpt>
      <trkpt lat="47.415531" lon="8.146555">
        <ele>357.876967</ele>
        <time>2021-11-22T08:58:46.799Z</time>
      </trkpt>
      <trkpt lat="47.415487" lon="8.146937">
        <ele>357.245906</ele>
        <time>2021-11-22T08:58:49.495Z</time>
      </trkpt>
      <trkpt lat="47.415443" lon="8.147291">
        <ele>356.659747</ele>
        <time>2021-11-22T08:58:52.022Z</time>
      </trkpt>
      <trkpt lat="47.415271" lon="8.148640">
        <ele>354.528698</ele>
        <time>2021-11-22T08:59:02.281Z</time>
      </trkpt>
      <trkpt lat="47.415243" lon="8.149157">
        <ele>354.308103</ele>
        <time>2021-11-22T08:59:06.713Z</time>
      </trkpt>
      <trkpt lat="47.415244" lon="8.149230">
        <ele>354.277048</ele>
        <time>2021-11-22T08:59:07.322Z</time>
      </trkpt>
      <trkpt lat="47.415244" lon="8.149230">
        <ele>354.277048</ele>
        <time>2021-11-22T08:59:07.413Z</time>
      </trkpt>
      <trkpt lat="47.415244" lon="8.149230">
        <ele>354.277048</ele>
        <time>2021-11-22T08:59:07.447Z</time>
      </trkpt>
      <trkpt lat="47.415246" lon="8.149567">
        <ele>354.133709</ele>
        <time>2021-11-22T08:59:10.752Z</time>
      </trkpt>
      <trkpt lat="47.415264" lon="8.149983">
        <ele>353.956414</ele>
        <time>2021-11-22T08:59:14.794Z</time>
      </trkpt>
      <trkpt lat="47.415291" lon="8.150310">
        <ele>353.816302</ele>
        <time>2021-11-22T08:59:17.725Z</time>
      </trkpt>
      <trkpt lat="47.415341" lon="8.150705">
        <ele>353.645386</ele>
        <time>2021-11-22T08:59:21.875Z</time>
      </trkpt>
      <trkpt lat="47.415493" lon="8.151582">
        <ele>353.198107</ele>
        <time>2021-11-22T08:59:29.809Z</time>
      </trkpt>
      <trkpt lat="47.415545" lon="8.151791">
        <ele>353.069677</ele>
        <time>2021-11-22T08:59:31.709Z</time>
      </trkpt>
      <trkpt lat="47.415657" lon="8.152225">
        <ele>352.801783</ele>
        <time>2021-11-22T08:59:35.854Z</time>
      </trkpt>
      <trkpt lat="47.415814" lon="8.152754">
        <ele>352.468629</ele>
        <time>2021-11-22T08:59:40.833Z</time>
      </trkpt>
      <trkpt lat="47.415897" lon="8.152993">
        <ele>352.313694</ele>
        <time>2021-11-22T08:59:42.903Z</time>
      </trkpt>
      <trkpt lat="47.416136" lon="8.153630">
        <ele>351.897371</ele>
        <time>2021-11-22T08:59:48.680Z</time>
      </trkpt>
      <trkpt lat="47.416565" lon="8.154411">
        <ele>351.573966</ele>
        <time>2021-11-22T08:59:56.934Z</time>
      </trkpt>
      <trkpt lat="47.416777" lon="8.154683">
        <ele>351.440577</ele>
        <time>2021-11-22T09:00:00.734Z</time>
      </trkpt>
      <trkpt lat="47.417050" lon="8.155013">
        <ele>351.273007</ele>
        <time>2021-11-22T09:00:06.313Z</time>
      </trkpt>
      <trkpt lat="47.417349" lon="8.155387">
        <ele>351.086893</ele>
        <time>2021-11-22T09:00:12.174Z</time>
      </trkpt>
      <trkpt lat="47.417678" lon="8.155825">
        <ele>350.887088</ele>
        <time>2021-11-22T09:00:18.504Z</time>
      </trkpt>
      <trkpt lat="47.417784" lon="8.155967">
        <ele>350.823320</ele>
        <time>2021-11-22T09:00:20.870Z</time>
      </trkpt>
      <trkpt lat="47.417842" lon="8.156043">
        <ele>350.788769</ele>
        <time>2021-11-22T09:00:21.892Z</time>
      </trkpt>
      <trkpt lat="47.417945" lon="8.156210">
        <ele>350.720619</ele>
        <time>2021-11-22T09:00:23.914Z</time>
      </trkpt>
      <trkpt lat="47.418118" lon="8.156488">
        <ele>350.606707</ele>
        <time>2021-11-22T09:00:27.627Z</time>
      </trkpt>
      <trkpt lat="47.418155" lon="8.156547">
        <ele>350.582446</ele>
        <time>2021-11-22T09:00:28.273Z</time>
      </trkpt>
      <trkpt lat="47.418313" lon="8.156805">
        <ele>350.477497</ele>
        <time>2021-11-22T09:00:31.660Z</time>
      </trkpt>
      <trkpt lat="47.418372" lon="8.156901">
        <ele>350.438384</ele>
        <time>2021-11-22T09:00:32.694Z</time>
      </trkpt>
      <trkpt lat="47.418814" lon="8.157624">
        <ele>350.047501</ele>
        <time>2021-11-22T09:00:40.860Z</time>
      </trkpt>
      <trkpt lat="47.419193" lon="8.158226">
        <ele>349.562060</ele>
        <time>2021-11-22T09:00:47.333Z</time>
      </trkpt>
      <trkpt lat="47.419233" lon="8.158285">
        <ele>349.512753</ele>
        <time>2021-11-22T09:00:48.018Z</time>
      </trkpt>
      <trkpt lat="47.419324" lon="8.158381">
        <ele>349.415204</ele>
        <time>2021-11-22T09:00:49.363Z</time>
      </trkpt>
      <trkpt lat="47.419465" lon="8.158501">
        <ele>349.273242</ele>
        <time>2021-11-22T09:00:51.350Z</time>
      </trkpt>
      <trkpt lat="47.419614" lon="8.158620">
        <ele>349.125473</ele>
        <time>2021-11-22T09:00:53.509Z</time>
      </trkpt>
      <trkpt lat="47.419775" lon="8.158714">
        <ele>348.974437</ele>
        <time>2021-11-22T09:00:55.726Z</time>
      </trkpt>
      <trkpt lat="47.419895" lon="8.158784">
        <ele>348.861877</ele>
        <time>2021-11-22T09:00:57.396Z</time>
      </trkpt>
      <trkpt lat="47.420004" lon="8.158855">
        <ele>348.757948</ele>
        <time>2021-11-22T09:00:58.998Z</time>
      </trkpt>
      <trkpt lat="47.420021" lon="8.158866">
        <ele>348.741757</ele>
        <time>2021-11-22T09:00:59.243Z</time>
      </trkpt>
      <trkpt lat="47.420051" lon="8.158886">
        <ele>348.713042</ele>
        <time>2021-11-22T09:00:59.807Z</time>
      </trkpt>
      <trkpt lat="47.420791" lon="8.159468">
        <ele>348.428004</ele>
        <time>2021-11-22T09:01:11.412Z</time>
      </trkpt>
      <trkpt lat="47.421022" lon="8.159550">
        <ele>348.353869</ele>
        <time>2021-11-22T09:01:15.016Z</time>
      </trkpt>
      <trkpt lat="47.421146" lon="8.159582">
        <ele>348.314588</ele>
        <time>2021-11-22T09:01:16.810Z</time>
      </trkpt>
      <trkpt lat="47.421508" lon="8.159635">
        <ele>348.201071</ele>
        <time>2021-11-22T09:01:22.080Z</time>
      </trkpt>
      <trkpt lat="47.421508" lon="8.159635">
        <ele>348.201071</ele>
        <time>2021-11-22T09:01:22.081Z</time>
      </trkpt>
      <trkpt lat="47.421686" lon="8.159661">
        <ele>348.145254</ele>
        <time>2021-11-22T09:01:24.459Z</time>
      </trkpt>
      <trkpt lat="47.422969" lon="8.160283">
        <ele>347.131699</ele>
        <time>2021-11-22T09:01:41.457Z</time>
      </trkpt>
      <trkpt lat="47.423331" lon="8.160349">
        <ele>346.845643</ele>
        <time>2021-11-22T09:01:45.930Z</time>
      </trkpt>
      <trkpt lat="47.423707" lon="8.160329">
        <ele>346.634105</ele>
        <time>2021-11-22T09:01:50.640Z</time>
      </trkpt>
      <trkpt lat="47.423972" lon="8.160266">
        <ele>346.537742</ele>
        <time>2021-11-22T09:01:54.031Z</time>
      </trkpt>
      <trkpt lat="47.424146" lon="8.160232">
        <ele>346.474729</ele>
        <time>2021-11-22T09:01:56.286Z</time>
      </trkpt>
      <trkpt lat="47.424450" lon="8.160184">
        <ele>346.364966</ele>
        <time>2021-11-22T09:02:00.257Z</time>
      </trkpt>
      <trkpt lat="47.424982" lon="8.160076">
        <ele>346.172175</ele>
        <time>2021-11-22T09:02:07.694Z</time>
      </trkpt>
      <trkpt lat="47.425250" lon="8.160026">
        <ele>346.075195</ele>
        <time>2021-11-22T09:02:11.743Z</time>
      </trkpt>
      <trkpt lat="47.425561" lon="8.159911">
        <ele>346.388904</ele>
        <time>2021-11-22T09:02:16.846Z</time>
      </trkpt>
      <trkpt lat="47.425842" lon="8.159776">
        <ele>346.743290</ele>
        <time>2021-11-22T09:02:22.131Z</time>
      </trkpt>
      <trkpt lat="47.425955" lon="8.159702">
        <ele>346.891528</ele>
        <time>2021-11-22T09:02:24.959Z</time>
      </trkpt>
      <trkpt lat="47.426234" lon="8.159476">
        <ele>347.273114</ele>
        <time>2021-11-22T09:02:31.273Z</time>
      </trkpt>
      <trkpt lat="47.426380" lon="8.159332">
        <ele>347.483630</ele>
        <time>2021-11-22T09:02:34.845Z</time>
      </trkpt>
      <trkpt lat="47.426687" lon="8.158983">
        <ele>347.948149</ele>
        <time>2021-11-22T09:02:43.312Z</time>
      </trkpt>
      <trkpt lat="47.426993" lon="8.158713">
        <ele>348.402948</ele>
        <time>2021-11-22T09:02:51.250Z</time>
      </trkpt>
      <trkpt lat="47.427111" lon="8.158647">
        <ele>348.580248</ele>
        <time>2021-11-22T09:02:54.065Z</time>
      </trkpt>
      <trkpt lat="47.427154" lon="8.158623">
        <ele>348.644840</ele>
        <time>2021-11-22T09:02:55.375Z</time>
      </trkpt>
      <trkpt lat="47.427577" lon="8.158494">
        <ele>349.251801</ele>
        <time>2021-11-22T09:03:04.864Z</time>
      </trkpt>
      <trkpt lat="47.427702" lon="8.158461">
        <ele>349.430243</ele>
        <time>2021-11-22T09:03:07.674Z</time>
      </trkpt>
      <trkpt lat="47.427991" lon="8.158393">
        <ele>349.841487</ele>
        <time>2021-11-22T09:03:13.968Z</time>
      </trkpt>
      <trkpt lat="47.429069" lon="8.158108">
        <ele>350.803459</ele>
        <time>2021-11-22T09:03:33.722Z</time>
      </trkpt>
      <trkpt lat="47.429793" lon="8.157802">
        <ele>350.902630</ele>
        <time>2021-11-22T09:03:44.030Z</time>
      </trkpt>
      <trkpt lat="47.430633" lon="8.157295">
        <ele>351.613750</ele>
        <time>2021-11-22T09:03:56.651Z</time>
      </trkpt>
      <trkpt lat="47.431963" lon="8.156509">
        <ele>354.494963</ele>
        <time>2021-11-22T09:04:28.991Z</time>
      </trkpt>
      <trkpt lat="47.432176" lon="8.156350">
        <ele>355.651417</ele>
        <time>2021-11-22T09:04:38.626Z</time>
      </trkpt>
      <trkpt lat="47.432243" lon="8.156260">
        <ele>356.160936</ele>
        <time>2021-11-22T09:04:41.277Z</time>
      </trkpt>
      <trkpt lat="47.432413" lon="8.156031">
        <ele>357.455389</ele>
        <time>2021-11-22T09:04:50.935Z</time>
      </trkpt>
      <trkpt lat="47.432612" lon="8.155394">
        <ele>360.126744</ele>
        <time>2021-11-22T09:05:08.645Z</time>
      </trkpt>
      <trkpt lat="47.432636" lon="8.155184">
        <ele>360.937596</ele>
        <time>2021-11-22T09:05:14.719Z</time>
      </trkpt>
      <trkpt lat="47.432643" lon="8.155002">
        <ele>361.631634</ele>
        <time>2021-11-22T09:05:20.377Z</time>
      </trkpt>
      <trkpt lat="47.432684" lon="8.153991">
        <ele>365.304370</ele>
        <time>2021-11-22T09:05:47.507Z</time>
      </trkpt>
      <trkpt lat="47.432970" lon="8.152838">
        <ele>368.860811</ele>
        <time>2021-11-22T09:06:18.118Z</time>
      </trkpt>
      <trkpt lat="47.433109" lon="8.152489">
        <ele>370.033666</ele>
        <time>2021-11-22T09:06:25.770Z</time>
      </trkpt>
      <trkpt lat="47.433307" lon="8.152181">
        <ele>371.264147</ele>
        <time>2021-11-22T09:06:33.468Z</time>
      </trkpt>
      <trkpt lat="47.433428" lon="8.152019">
        <ele>371.963023</ele>
        <time>2021-11-22T09:06:37.066Z</time>
      </trkpt>
      <trkpt lat="47.433514" lon="8.151850">
        <ele>372.466284</ele>
        <time>2021-11-22T09:06:40.847Z</time>
      </trkpt>
      <trkpt lat="47.433591" lon="8.151630">
        <ele>372.673297</ele>
        <time>2021-11-22T09:06:44.038Z</time>
      </trkpt>
      <trkpt lat="47.433623" lon="8.151489">
        <ele>372.797589</ele>
        <time>2021-11-22T09:06:46.898Z</time>
      </trkpt>
      <trkpt lat="47.433679" lon="8.151071">
        <ele>373.153708</ele>
        <time>2021-11-22T09:06:52.431Z</time>
      </trkpt>
      <trkpt lat="47.433714" lon="8.150838">
        <ele>373.353175</ele>
        <time>2021-11-22T09:06:56.154Z</time>
      </trkpt>
      <trkpt lat="47.433738" lon="8.150719">
        <ele>373.456952</ele>
        <time>2021-11-22T09:06:57.745Z</time>
      </trkpt>
      <trkpt lat="47.433787" lon="8.150557">
        <ele>373.605257</ele>
        <time>2021-11-22T09:06:59.523Z</time>
      </trkpt>
      <trkpt lat="47.433981" lon="8.150197">
        <ele>373.989918</ele>
        <time>2021-11-22T09:07:05.103Z</time>
      </trkpt>
      <trkpt lat="47.434345" lon="8.149712">
        <ele>374.595331</ele>
        <time>2021-11-22T09:07:14.671Z</time>
      </trkpt>
      <trkpt lat="47.435477" lon="8.148648">
        <ele>375.237924</ele>
        <time>2021-11-22T09:07:36.184Z</time>
      </trkpt>
      <trkpt lat="47.435655" lon="8.148462">
        <ele>375.337336</ele>
        <time>2021-11-22T09:07:39.510Z</time>
      </trkpt>
      <trkpt lat="47.435751" lon="8.148349">
        <ele>375.393302</ele>
        <time>2021-11-22T09:07:41.637Z</time>
      </trkpt>
      <trkpt lat="47.435898" lon="8.148174">
        <ele>375.494753</ele>
        <time>2021-11-22T09:07:44.813Z</time>
      </trkpt>
      <trkpt lat="47.436053" lon="8.147987">
        <ele>375.680122</ele>
        <time>2021-11-22T09:07:48.276Z</time>
      </trkpt>
      <trkpt lat="47.436565" lon="8.147678">
        <ele>376.192527</ele>
        <time>2021-11-22T09:07:58.159Z</time>
      </trkpt>
      <trkpt lat="47.436610" lon="8.147666">
        <ele>376.234895</ele>
        <time>2021-11-22T09:07:58.916Z</time>
      </trkpt>
      <trkpt lat="47.436647" lon="8.147472">
        <ele>376.361222</ele>
        <time>2021-11-22T09:08:01.679Z</time>
      </trkpt>
      <trkpt lat="47.436789" lon="8.147229">
        <ele>376.562480</ele>
        <time>2021-11-22T09:08:05.638Z</time>
      </trkpt>
      <trkpt lat="47.436840" lon="8.147218">
        <ele>376.610235</ele>
        <time>2021-11-22T09:08:06.779Z</time>
      </trkpt>
      <trkpt lat="47.436876" lon="8.147206">
        <ele>376.644428</ele>
        <time>2021-11-22T09:08:07.479Z</time>
      </trkpt>
      <trkpt lat="47.437074" lon="8.147140">
        <ele>376.832493</ele>
        <time>2021-11-22T09:08:11.328Z</time>
      </trkpt>
      <trkpt lat="47.437959" lon="8.146894">
        <ele>379.232044</ele>
        <time>2021-11-22T09:08:28.577Z</time>
      </trkpt>
      <trkpt lat="47.438170" lon="8.146818">
        <ele>380.021035</ele>
        <time>2021-11-22T09:08:34.862Z</time>
      </trkpt>
      <trkpt lat="47.438451" lon="8.146713">
        <ele>381.074018</ele>
        <time>2021-11-22T09:08:43.341Z</time>
      </trkpt>
      <trkpt lat="47.438510" lon="8.146691">
        <ele>381.295079</ele>
        <time>2021-11-22T09:08:45.323Z</time>
      </trkpt>
      <trkpt lat="47.438799" lon="8.146584">
        <ele>382.377447</ele>
        <time>2021-11-22T09:08:55.459Z</time>
      </trkpt>
      <trkpt lat="47.438872" lon="8.146541">
        <ele>382.662932</ele>
        <time>2021-11-22T09:08:58.986Z</time>
      </trkpt>
      <trkpt lat="47.438978" lon="8.146396">
        <ele>383.187583</ele>
        <time>2021-11-22T09:09:04.079Z</time>
      </trkpt>
      <trkpt lat="47.439035" lon="8.146242">
        <ele>383.618961</ele>
        <time>2021-11-22T09:09:09.224Z</time>
      </trkpt>
      <trkpt lat="47.439042" lon="8.146081">
        <ele>384.254272</ele>
        <time>2021-11-22T09:09:14.161Z</time>
      </trkpt>
      <trkpt lat="47.438991" lon="8.145854">
        <ele>385.243367</ele>
        <time>2021-11-22T09:09:20.130Z</time>
      </trkpt>
      <trkpt lat="47.438927" lon="8.145712">
        <ele>385.948971</ele>
        <time>2021-11-22T09:09:25.975Z</time>
      </trkpt>
      <trkpt lat="47.438801" lon="8.145435">
        <ele>387.329327</ele>
        <time>2021-11-22T09:09:34.333Z</time>
      </trkpt>
      <trkpt lat="47.438715" lon="8.144871">
        <ele>389.720060</ele>
        <time>2021-11-22T09:09:50.180Z</time>
      </trkpt>
      <trkpt lat="47.438758" lon="8.144614">
        <ele>390.814817</ele>
        <time>2021-11-22T09:09:58.373Z</time>
      </trkpt>
      <trkpt lat="47.438782" lon="8.144495">
        <ele>391.328304</ele>
        <time>2021-11-22T09:10:00.735Z</time>
      </trkpt>
      <trkpt lat="47.438824" lon="8.144295">
        <ele>392.194270</ele>
        <time>2021-11-22T09:10:06.765Z</time>
      </trkpt>
      <trkpt lat="47.438937" lon="8.144018">
        <ele>393.531899</ele>
        <time>2021-11-22T09:10:14.818Z</time>
      </trkpt>
      <trkpt lat="47.439021" lon="8.143799">
        <ele>394.572962</ele>
        <time>2021-11-22T09:10:22.614Z</time>
      </trkpt>
      <trkpt lat="47.439124" lon="8.143531">
        <ele>395.260238</ele>
        <time>2021-11-22T09:10:29.209Z</time>
      </trkpt>
      <trkpt lat="47.439216" lon="8.143281">
        <ele>395.854203</ele>
        <time>2021-11-22T09:10:36.600Z</time>
      </trkpt>
      <trkpt lat="47.439344" lon="8.142648">
        <ele>397.233023</ele>
        <time>2021-11-22T09:10:50.244Z</time>
      </trkpt>
      <trkpt lat="47.439373" lon="8.142503">
        <ele>397.548584</ele>
        <time>2021-11-22T09:10:52.446Z</time>
      </trkpt>
      <trkpt lat="47.439410" lon="8.142333">
        <ele>397.921282</ele>
        <time>2021-11-22T09:10:56.264Z</time>
      </trkpt>
      <trkpt lat="47.439476" lon="8.142040">
        <ele>398.565778</ele>
        <time>2021-11-22T09:10:59.649Z</time>
      </trkpt>
      <trkpt lat="47.439553" lon="8.141724">
        <ele>399.266746</ele>
        <time>2021-11-22T09:11:04.888Z</time>
      </trkpt>
      <trkpt lat="47.439779" lon="8.140647">
        <ele>400.688626</ele>
        <time>2021-11-22T09:11:18.879Z</time>
      </trkpt>
      <trkpt lat="47.439918" lon="8.140057">
        <ele>401.130271</ele>
        <time>2021-11-22T09:11:26.990Z</time>
      </trkpt>
      <trkpt lat="47.439969" lon="8.139888">
        <ele>401.261087</ele>
        <time>2021-11-22T09:11:29.571Z</time>
      </trkpt>
      <trkpt lat="47.440259" lon="8.139001">
        <ele>401.957512</ele>
        <time>2021-11-22T09:11:42.022Z</time>
      </trkpt>
      <trkpt lat="47.440731" lon="8.137532">
        <ele>403.547874</ele>
        <time>2021-11-22T09:12:02.457Z</time>
      </trkpt>
      <trkpt lat="47.440960" lon="8.136820">
        <ele>404.346985</ele>
        <time>2021-11-22T09:12:14.942Z</time>
      </trkpt>
      <trkpt lat="47.441023" lon="8.136600">
        <ele>404.589135</ele>
        <time>2021-11-22T09:12:18.310Z</time>
      </trkpt>
      <trkpt lat="47.441048" lon="8.136493">
        <ele>404.703876</ele>
        <time>2021-11-22T09:12:20.777Z</time>
      </trkpt>
      <trkpt lat="47.441129" lon="8.136076">
        <ele>405.210904</ele>
        <time>2021-11-22T09:12:27.123Z</time>
      </trkpt>
      <trkpt lat="47.441151" lon="8.135898">
        <ele>405.428888</ele>
        <time>2021-11-22T09:12:30.681Z</time>
      </trkpt>
      <trkpt lat="47.441171" lon="8.135712">
        <ele>405.655774</ele>
        <time>2021-11-22T09:12:33.283Z</time>
      </trkpt>
      <trkpt lat="47.441179" lon="8.135579">
        <ele>405.816629</ele>
        <time>2021-11-22T09:12:35.261Z</time>
      </trkpt>
      <trkpt lat="47.441186" lon="8.135414">
        <ele>406.015793</ele>
        <time>2021-11-22T09:12:38.726Z</time>
      </trkpt>
      <trkpt lat="47.441205" lon="8.134814">
        <ele>406.739395</ele>
        <time>2021-11-22T09:12:48.031Z</time>
      </trkpt>
      <trkpt lat="47.441256" lon="8.133234">
        <ele>407.956779</ele>
        <time>2021-11-22T09:13:08.380Z</time>
      </trkpt>
      <trkpt lat="47.441285" lon="8.133039">
        <ele>407.944398</ele>
        <time>2021-11-22T09:13:11.258Z</time>
      </trkpt>
      <trkpt lat="47.441370" lon="8.132424">
        <ele>407.905473</ele>
        <time>2021-11-22T09:13:17.995Z</time>
      </trkpt>
      <trkpt lat="47.441373" lon="8.132396">
        <ele>407.903715</ele>
        <time>2021-11-22T09:13:18.174Z</time>
      </trkpt>
      <trkpt lat="47.441406" lon="8.131816">
        <ele>407.867622</ele>
        <time>2021-11-22T09:13:23.386Z</time>
      </trkpt>
      <trkpt lat="47.441442" lon="8.131718">
        <ele>407.860706</ele>
        <time>2021-11-22T09:13:24.136Z</time>
      </trkpt>
      <trkpt lat="47.441375" lon="8.131552">
        <ele>407.848719</ele>
        <time>2021-11-22T09:13:26.190Z</time>
      </trkpt>
      <trkpt lat="47.441307" lon="8.131422">
        <ele>407.838528</ele>
        <time>2021-11-22T09:13:27.349Z</time>
      </trkpt>
      <trkpt lat="47.441088" lon="8.130997">
        <ele>407.701761</ele>
        <time>2021-11-22T09:13:31.689Z</time>
      </trkpt>
      <trkpt lat="47.441024" lon="8.130926">
        <ele>407.656721</ele>
        <time>2021-11-22T09:13:33.134Z</time>
      </trkpt>
      <trkpt lat="47.441000" lon="8.130897">
        <ele>407.639273</ele>
        <time>2021-11-22T09:13:33.417Z</time>
      </trkpt>
      <trkpt lat="47.440978" lon="8.130862">
        <ele>407.621082</ele>
        <time>2021-11-22T09:13:33.985Z</time>
      </trkpt>
      <trkpt lat="47.440943" lon="8.130809">
        <ele>407.592880</ele>
        <time>2021-11-22T09:13:34.780Z</time>
      </trkpt>
      <trkpt lat="47.440891" lon="8.130708">
        <ele>407.544554</ele>
        <time>2021-11-22T09:13:35.952Z</time>
      </trkpt>
      <trkpt lat="47.440840" lon="8.130492">
        <ele>407.457450</ele>
        <time>2021-11-22T09:13:38.216Z</time>
      </trkpt>
      <trkpt lat="47.440840" lon="8.130427">
        <ele>407.432703</ele>
        <time>2021-11-22T09:13:38.621Z</time>
      </trkpt>
      <trkpt lat="47.440882" lon="8.130203">
        <ele>407.344204</ele>
        <time>2021-11-22T09:13:41.317Z</time>
      </trkpt>
      <trkpt lat="47.440963" lon="8.129769">
        <ele>407.172794</ele>
        <time>2021-11-22T09:13:45.690Z</time>
      </trkpt>
      <trkpt lat="47.440994" lon="8.129640">
        <ele>407.120672</ele>
        <time>2021-11-22T09:13:46.732Z</time>
      </trkpt>
      <trkpt lat="47.441146" lon="8.128500">
        <ele>406.992581</ele>
        <time>2021-11-22T09:13:57.014Z</time>
      </trkpt>
      <trkpt lat="47.441262" lon="8.127516">
        <ele>407.498995</ele>
        <time>2021-11-22T09:14:08.402Z</time>
      </trkpt>
      <trkpt lat="47.441277" lon="8.127183">
        <ele>407.668202</ele>
        <time>2021-11-22T09:14:12.280Z</time>
      </trkpt>
      <trkpt lat="47.441266" lon="8.126867">
        <ele>407.828627</ele>
        <time>2021-11-22T09:14:18.044Z</time>
      </trkpt>
      <trkpt lat="47.441238" lon="8.126576">
        <ele>407.977651</ele>
        <time>2021-11-22T09:14:21.513Z</time>
      </trkpt>
      <trkpt lat="47.441214" lon="8.126456">
        <ele>408.041096</ele>
        <time>2021-11-22T09:14:24.503Z</time>
      </trkpt>
      <trkpt lat="47.441104" lon="8.125606">
        <ele>408.907648</ele>
        <time>2021-11-22T09:14:34.410Z</time>
      </trkpt>
      <trkpt lat="47.441091" lon="8.125443">
        <ele>409.102635</ele>
        <time>2021-11-22T09:14:37.975Z</time>
      </trkpt>
      <trkpt lat="47.441081" lon="8.125303">
        <ele>409.269882</ele>
        <time>2021-11-22T09:14:39.614Z</time>
      </trkpt>
      <trkpt lat="47.441067" lon="8.125024">
        <ele>409.602248</ele>
        <time>2021-11-22T09:14:43.338Z</time>
      </trkpt>
      <trkpt lat="47.441063" lon="8.124846">
        <ele>409.813830</ele>
        <time>2021-11-22T09:14:47.316Z</time>
      </trkpt>
      <trkpt lat="47.441073" lon="8.124657">
        <ele>410.039051</ele>
        <time>2021-11-22T09:14:49.601Z</time>
      </trkpt>
      <trkpt lat="47.441181" lon="8.123600">
        <ele>411.309025</ele>
        <time>2021-11-22T09:15:06.473Z</time>
      </trkpt>
      <trkpt lat="47.441230" lon="8.123139">
        <ele>411.614724</ele>
        <time>2021-11-22T09:15:13.118Z</time>
      </trkpt>
      <trkpt lat="47.441253" lon="8.122860">
        <ele>411.795616</ele>
        <time>2021-11-22T09:15:16.821Z</time>
      </trkpt>
      <trkpt lat="47.441259" lon="8.122119">
        <ele>412.272556</ele>
        <time>2021-11-22T09:15:24.669Z</time>
      </trkpt>
      <trkpt lat="47.441260" lon="8.121851">
        <ele>412.445042</ele>
        <time>2021-11-22T09:15:28.228Z</time>
      </trkpt>
      <trkpt lat="47.441242" lon="8.121608">
        <ele>412.602371</ele>
        <time>2021-11-22T09:15:30.672Z</time>
      </trkpt>
      <trkpt lat="47.441185" lon="8.120992">
        <ele>413.002520</ele>
        <time>2021-11-22T09:15:38.462Z</time>
      </trkpt>
      <trkpt lat="47.441158" lon="8.120592">
        <ele>413.223482</ele>
        <time>2021-11-22T09:15:43.980Z</time>
      </trkpt>
      <trkpt lat="47.441147" lon="8.120369">
        <ele>413.343657</ele>
        <time>2021-11-22T09:15:46.920Z</time>
      </trkpt>
      <trkpt lat="47.441139" lon="8.120050">
        <ele>413.515228</ele>
        <time>2021-11-22T09:15:50.893Z</time>
      </trkpt>
      <trkpt lat="47.441148" lon="8.119325">
        <ele>413.904960</ele>
        <time>2021-11-22T09:15:59.622Z</time>
      </trkpt>
      <trkpt lat="47.441161" lon="8.118889">
        <ele>414.139525</ele>
        <time>2021-11-22T09:16:04.622Z</time>
      </trkpt>
      <trkpt lat="47.441160" lon="8.118632">
        <ele>414.277657</ele>
        <time>2021-11-22T09:16:07.633Z</time>
      </trkpt>
      <trkpt lat="47.441151" lon="8.118249">
        <ele>414.485958</ele>
        <time>2021-11-22T09:16:11.964Z</time>
      </trkpt>
      <trkpt lat="47.441143" lon="8.117969">
        <ele>414.652476</ele>
        <time>2021-11-22T09:16:15.418Z</time>
      </trkpt>
      <trkpt lat="47.441126" lon="8.117583">
        <ele>414.882314</ele>
        <time>2021-11-22T09:16:20.152Z</time>
      </trkpt>
      <trkpt lat="47.441106" lon="8.117430">
        <ele>414.974906</ele>
        <time>2021-11-22T09:16:22.071Z</time>
      </trkpt>
      <trkpt lat="47.441002" lon="8.116649">
        <ele>415.447868</ele>
        <time>2021-11-22T09:16:31.509Z</time>
      </trkpt>
      <trkpt lat="47.440589" lon="8.115040">
        <ele>417.013318</ele>
        <time>2021-11-22T09:16:54.185Z</time>
      </trkpt>
      <trkpt lat="47.440417" lon="8.114455">
        <ele>417.872286</ele>
        <time>2021-11-22T09:17:03.625Z</time>
      </trkpt>
      <trkpt lat="47.440342" lon="8.114157">
        <ele>418.300452</ele>
        <time>2021-11-22T09:17:08.792Z</time>
      </trkpt>
      <trkpt lat="47.440229" lon="8.113672">
        <ele>418.991214</ele>
        <time>2021-11-22T09:17:17.105Z</time>
      </trkpt>
      <trkpt lat="47.440053" lon="8.112608">
        <ele>420.972903</ele>
        <time>2021-11-22T09:17:36.637Z</time>
      </trkpt>
      <trkpt lat="47.439893" lon="8.111132">
        <ele>424.195022</ele>
        <time>2021-11-22T09:18:04.964Z</time>
      </trkpt>
      <trkpt lat="47.439868" lon="8.110864">
        <ele>424.778165</ele>
        <time>2021-11-22T09:18:10.248Z</time>
      </trkpt>
      <trkpt lat="47.439797" lon="8.110143">
        <ele>426.337975</ele>
        <time>2021-11-22T09:18:24.147Z</time>
      </trkpt>
      <trkpt lat="47.439783" lon="8.110028">
        <ele>426.587131</ele>
        <time>2021-11-22T09:18:26.444Z</time>
      </trkpt>
      <trkpt lat="47.439736" lon="8.109646">
        <ele>427.415043</ele>
        <time>2021-11-22T09:18:34.082Z</time>
      </trkpt>
      <trkpt lat="47.439721" lon="8.109558">
        <ele>427.608554</ele>
        <time>2021-11-22T09:18:35.905Z</time>
      </trkpt>
      <trkpt lat="47.439627" lon="8.109005">
        <ele>428.824393</ele>
        <time>2021-11-22T09:18:46.702Z</time>
      </trkpt>
      <trkpt lat="47.439529" lon="8.108595">
        <ele>429.751631</ele>
        <time>2021-11-22T09:18:54.844Z</time>
      </trkpt>
      <trkpt lat="47.439446" lon="8.108296">
        <ele>430.440804</ele>
        <time>2021-11-22T09:19:00.179Z</time>
      </trkpt>
      <trkpt lat="47.439314" lon="8.107942">
        <ele>431.222832</ele>
        <time>2021-11-22T09:19:07.116Z</time>
      </trkpt>
      <trkpt lat="47.439207" lon="8.107635">
        <ele>431.747162</ele>
        <time>2021-11-22T09:19:13.179Z</time>
      </trkpt>
      <trkpt lat="47.438974" lon="8.106907">
        <ele>432.969913</ele>
        <time>2021-11-22T09:19:26.724Z</time>
      </trkpt>
      <trkpt lat="47.438899" lon="8.106626">
        <ele>433.428545</ele>
        <time>2021-11-22T09:19:31.944Z</time>
      </trkpt>
      <trkpt lat="47.438874" lon="8.106523">
        <ele>433.594685</ele>
        <time>2021-11-22T09:19:33.707Z</time>
      </trkpt>
      <trkpt lat="47.438818" lon="8.106296">
        <ele>433.961528</ele>
        <time>2021-11-22T09:19:37.493Z</time>
      </trkpt>
      <trkpt lat="47.438752" lon="8.106005">
        <ele>434.427506</ele>
        <time>2021-11-22T09:19:42.179Z</time>
      </trkpt>
      <trkpt lat="47.438729" lon="8.105870">
        <ele>434.638868</ele>
        <time>2021-11-22T09:19:44.187Z</time>
      </trkpt>
      <trkpt lat="47.438707" lon="8.105651">
        <ele>434.975005</ele>
        <time>2021-11-22T09:19:47.204Z</time>
      </trkpt>
      <trkpt lat="47.438700" lon="8.105458">
        <ele>435.255809</ele>
        <time>2021-11-22T09:19:49.800Z</time>
      </trkpt>
      <trkpt lat="47.438736" lon="8.105033">
        <ele>435.866195</ele>
        <time>2021-11-22T09:19:55.416Z</time>
      </trkpt>
      <trkpt lat="47.438760" lon="8.104786">
        <ele>436.221801</ele>
        <time>2021-11-22T09:19:58.825Z</time>
      </trkpt>
      <trkpt lat="47.438813" lon="8.104797">
        <ele>436.334563</ele>
        <time>2021-11-22T09:20:00.274Z</time>
      </trkpt>
      <trkpt lat="47.439073" lon="8.105954">
        <ele>438.071982</ele>
        <time>2021-11-22T09:20:21.679Z</time>
      </trkpt>
      <trkpt lat="47.439163" lon="8.106335">
        <ele>438.647090</ele>
        <time>2021-11-22T09:20:30.559Z</time>
      </trkpt>
      <trkpt lat="47.439185" lon="8.106426">
        <ele>438.784805</ele>
        <time>2021-11-22T09:20:32.656Z</time>
      </trkpt>
      <trkpt lat="47.439441" lon="8.107093">
        <ele>442.229315</ele>
        <time>2021-11-22T09:20:53.171Z</time>
      </trkpt>
      <trkpt lat="47.439678" lon="8.107507">
        <ele>444.774535</ele>
        <time>2021-11-22T09:21:09.854Z</time>
      </trkpt>
      <trkpt lat="47.439846" lon="8.107679">
        <ele>446.192309</ele>
        <time>2021-11-22T09:21:21.341Z</time>
      </trkpt>
      <trkpt lat="47.439907" lon="8.107724">
        <ele>446.665288</ele>
        <time>2021-11-22T09:21:24.301Z</time>
      </trkpt>
      <trkpt lat="47.440017" lon="8.107818">
        <ele>447.546782</ele>
        <time>2021-11-22T09:21:30.860Z</time>
      </trkpt>
      <trkpt lat="47.440127" lon="8.107870">
        <ele>448.348030</ele>
        <time>2021-11-22T09:21:38.131Z</time>
      </trkpt>
      <trkpt lat="47.440314" lon="8.107933">
        <ele>449.678704</ele>
        <time>2021-11-22T09:21:46.819Z</time>
      </trkpt>
      <trkpt lat="47.440469" lon="8.107972">
        <ele>450.769565</ele>
        <time>2021-11-22T09:21:57.032Z</time>
      </trkpt>
      <trkpt lat="47.440596" lon="8.107972">
        <ele>451.798733</ele>
        <time>2021-11-22T09:22:02.785Z</time>
      </trkpt>
      <trkpt lat="47.441060" lon="8.107957">
        <ele>456.510796</ele>
        <time>2021-11-22T09:22:31.716Z</time>
      </trkpt>
      <trkpt lat="47.441182" lon="8.107948">
        <ele>457.750988</ele>
        <time>2021-11-22T09:22:41.133Z</time>
      </trkpt>
      <trkpt lat="47.441720" lon="8.107942">
        <ele>463.213394</ele>
        <time>2021-11-22T09:23:13.311Z</time>
      </trkpt>
      <trkpt lat="47.442001" lon="8.108074">
        <ele>466.206881</ele>
        <time>2021-11-22T09:23:31.895Z</time>
      </trkpt>
      <trkpt lat="47.442160" lon="8.108211">
        <ele>468.075301</ele>
        <time>2021-11-22T09:23:42.772Z</time>
      </trkpt>
      <trkpt lat="47.442307" lon="8.108385">
        <ele>470.030387</ele>
        <time>2021-11-22T09:23:54.608Z</time>
      </trkpt>
      <trkpt lat="47.442659" lon="8.108648">
        <ele>474.473759</ele>
        <time>2021-11-22T09:24:19.063Z</time>
      </trkpt>
      <trkpt lat="47.442971" lon="8.108644">
        <ele>477.989021</ele>
        <time>2021-11-22T09:24:37.545Z</time>
      </trkpt>
      <trkpt lat="47.443213" lon="8.108540">
        <ele>480.828330</ele>
        <time>2021-11-22T09:24:52.639Z</time>
      </trkpt>
      <trkpt lat="47.443350" lon="8.108462">
        <ele>482.482306</ele>
        <time>2021-11-22T09:25:03.329Z</time>
      </trkpt>
      <trkpt lat="47.444084" lon="8.108009">
        <ele>491.574041</ele>
        <time>2021-11-22T09:25:59.000Z</time>
      </trkpt>
      <trkpt lat="47.444311" lon="8.107879">
        <ele>494.542618</ele>
        <time>2021-11-22T09:26:17.074Z</time>
      </trkpt>
      <trkpt lat="47.444437" lon="8.107791">
        <ele>496.241932</ele>
        <time>2021-11-22T09:26:26.586Z</time>
      </trkpt>
      <trkpt lat="47.444547" lon="8.107680">
        <ele>497.865957</ele>
        <time>2021-11-22T09:26:36.915Z</time>
      </trkpt>
      <trkpt lat="47.444665" lon="8.107474">
        <ele>500.092405</ele>
        <time>2021-11-22T09:26:49.904Z</time>
      </trkpt>
      <trkpt lat="47.444721" lon="8.107308">
        <ele>501.622327</ele>
        <time>2021-11-22T09:27:00.319Z</time>
      </trkpt>
      <trkpt lat="47.444877" lon="8.106575">
        <ele>507.959848</ele>
        <time>2021-11-22T09:27:35.110Z</time>
      </trkpt>
      <trkpt lat="47.445222" lon="8.105663">
        <ele>515.180698</ele>
        <time>2021-11-22T09:28:19.951Z</time>
      </trkpt>
      <trkpt lat="47.445384" lon="8.104372">
        <ele>522.848709</ele>
        <time>2021-11-22T09:29:06.661Z</time>
      </trkpt>
      <trkpt lat="47.445516" lon="8.103896">
        <ele>525.853120</ele>
        <time>2021-11-22T09:29:24.008Z</time>
      </trkpt>
      <trkpt lat="47.445784" lon="8.103632">
        <ele>528.631742</ele>
        <time>2021-11-22T09:29:39.888Z</time>
      </trkpt>
      <trkpt lat="47.446337" lon="8.103649">
        <ele>533.400279</ele>
        <time>2021-11-22T09:30:08.438Z</time>
      </trkpt>
      <trkpt lat="47.446481" lon="8.103583">
        <ele>534.699997</ele>
        <time>2021-11-22T09:30:16.366Z</time>
      </trkpt>
      <trkpt lat="47.446540" lon="8.103496">
        <ele>535.418338</ele>
        <time>2021-11-22T09:30:20.685Z</time>
      </trkpt>
      <trkpt lat="47.446600" lon="8.103410">
        <ele>536.138738</ele>
        <time>2021-11-22T09:30:26.577Z</time>
      </trkpt>
      <trkpt lat="47.446555" lon="8.103111">
        <ele>537.924645</ele>
        <time>2021-11-22T09:30:37.668Z</time>
      </trkpt>
      <trkpt lat="47.446496" lon="8.103041">
        <ele>538.576785</ele>
        <time>2021-11-22T09:30:41.486Z</time>
      </trkpt>
      <trkpt lat="47.446418" lon="8.102948">
        <ele>539.440610</ele>
        <time>2021-11-22T09:30:48.196Z</time>
      </trkpt>
      <trkpt lat="47.446169" lon="8.102790">
        <ele>541.776588</ele>
        <time>2021-11-22T09:31:02.294Z</time>
      </trkpt>
      <trkpt lat="47.445915" lon="8.102630">
        <ele>544.062166</ele>
        <time>2021-11-22T09:31:19.774Z</time>
      </trkpt>
      <trkpt lat="47.445719" lon="8.102466">
        <ele>545.865353</ele>
        <time>2021-11-22T09:31:35.133Z</time>
      </trkpt>
      <trkpt lat="47.445541" lon="8.102255">
        <ele>547.692015</ele>
        <time>2021-11-22T09:31:46.098Z</time>
      </trkpt>
      <trkpt lat="47.445462" lon="8.102139">
        <ele>548.583456</ele>
        <time>2021-11-22T09:31:54.954Z</time>
      </trkpt>
      <trkpt lat="47.445293" lon="8.101950">
        <ele>550.280058</ele>
        <time>2021-11-22T09:32:03.663Z</time>
      </trkpt>
      <trkpt lat="47.444927" lon="8.101811">
        <ele>553.305690</ele>
        <time>2021-11-22T09:32:22.337Z</time>
      </trkpt>
      <trkpt lat="47.444868" lon="8.101755">
        <ele>553.867047</ele>
        <time>2021-11-22T09:32:27.323Z</time>
      </trkpt>
      <trkpt lat="47.444829" lon="8.101664">
        <ele>554.450427</ele>
        <time>2021-11-22T09:32:31.495Z</time>
      </trkpt>
      <trkpt lat="47.444798" lon="8.101417">
        <ele>555.810780</ele>
        <time>2021-11-22T09:32:37.556Z</time>
      </trkpt>
      <trkpt lat="47.444853" lon="8.101203">
        <ele>557.050455</ele>
        <time>2021-11-22T09:32:45.257Z</time>
      </trkpt>
      <trkpt lat="47.444888" lon="8.101135">
        <ele>557.442719</ele>
        <time>2021-11-22T09:32:47.967Z</time>
      </trkpt>
      <trkpt lat="47.445047" lon="8.101092">
        <ele>558.414447</ele>
        <time>2021-11-22T09:32:52.630Z</time>
      </trkpt>
      <trkpt lat="47.445358" lon="8.101030">
        <ele>560.301024</ele>
        <time>2021-11-22T09:33:08.384Z</time>
      </trkpt>
      <trkpt lat="47.445503" lon="8.101140">
        <ele>561.280762</ele>
        <time>2021-11-22T09:33:17.311Z</time>
      </trkpt>
      <trkpt lat="47.445750" lon="8.101336">
        <ele>562.965981</ele>
        <time>2021-11-22T09:33:26.046Z</time>
      </trkpt>
      <trkpt lat="47.446361" lon="8.101612">
        <ele>566.806749</ele>
        <time>2021-11-22T09:33:54.254Z</time>
      </trkpt>
      <trkpt lat="47.446445" lon="8.101608">
        <ele>567.311999</ele>
        <time>2021-11-22T09:33:57.000Z</time>
      </trkpt>
      <trkpt lat="47.446517" lon="8.101594">
        <ele>567.748573</ele>
        <time>2021-11-22T09:34:02.248Z</time>
      </trkpt>
      <trkpt lat="47.446695" lon="8.101455">
        <ele>569.536079</ele>
        <time>2021-11-22T09:34:09.920Z</time>
      </trkpt>
      <trkpt lat="47.446784" lon="8.101171">
        <ele>571.611359</ele>
        <time>2021-11-22T09:34:21.238Z</time>
      </trkpt>
      <trkpt lat="47.446814" lon="8.101074">
        <ele>572.318538</ele>
        <time>2021-11-22T09:34:24.623Z</time>
      </trkpt>
      <trkpt lat="47.446765" lon="8.100748">
        <ele>574.532680</ele>
        <time>2021-11-22T09:34:37.864Z</time>
      </trkpt>
      <trkpt lat="47.446540" lon="8.100064">
        <ele>579.575676</ele>
        <time>2021-11-22T09:35:08.279Z</time>
      </trkpt>
      <trkpt lat="47.446463" lon="8.099344">
        <ele>584.408669</ele>
        <time>2021-11-22T09:35:41.188Z</time>
      </trkpt>
      <trkpt lat="47.446471" lon="8.098693">
        <ele>589.370574</ele>
        <time>2021-11-22T09:36:13.743Z</time>
      </trkpt>
      <trkpt lat="47.446494" lon="8.098088">
        <ele>594.238107</ele>
        <time>2021-11-22T09:36:42.968Z</time>
      </trkpt>
      <trkpt lat="47.446502" lon="8.097618">
        <ele>598.014730</ele>
        <time>2021-11-22T09:37:05.375Z</time>
      </trkpt>
      <trkpt lat="47.446518" lon="8.097394">
        <ele>599.824090</ele>
        <time>2021-11-22T09:37:15.327Z</time>
      </trkpt>
      <trkpt lat="47.446536" lon="8.097261">
        <ele>600.913639</ele>
        <time>2021-11-22T09:37:22.104Z</time>
      </trkpt>
      <trkpt lat="47.446686" lon="8.097097">
        <ele>603.129477</ele>
        <time>2021-11-22T09:37:34.118Z</time>
      </trkpt>
      <trkpt lat="47.446818" lon="8.096990">
        <ele>604.917505</ele>
        <time>2021-11-22T09:37:44.045Z</time>
      </trkpt>
      <trkpt lat="47.446857" lon="8.096977">
        <ele>605.392371</ele>
        <time>2021-11-22T09:37:47.416Z</time>
      </trkpt>
      <trkpt lat="47.447261" lon="8.097036">
        <ele>609.173744</ele>
        <time>2021-11-22T09:38:12.328Z</time>
      </trkpt>
      <trkpt lat="47.448390" lon="8.097811">
        <ele>619.109724</ele>
        <time>2021-11-22T09:39:17.938Z</time>
      </trkpt>
      <trkpt lat="47.448609" lon="8.098034">
        <ele>621.232275</ele>
        <time>2021-11-22T09:39:28.082Z</time>
      </trkpt>
      <trkpt lat="47.448732" lon="8.098162">
        <ele>622.051969</ele>
        <time>2021-11-22T09:39:34.540Z</time>
      </trkpt>
      <trkpt lat="47.448898" lon="8.098398">
        <ele>623.212966</ele>
        <time>2021-11-22T09:39:43.286Z</time>
      </trkpt>
      <trkpt lat="47.449094" lon="8.098917">
        <ele>625.239725</ele>
        <time>2021-11-22T09:39:59.347Z</time>
      </trkpt>
      <trkpt lat="47.449172" lon="8.099049">
        <ele>625.837387</ele>
        <time>2021-11-22T09:40:03.918Z</time>
      </trkpt>
      <trkpt lat="47.449289" lon="8.099119">
        <ele>626.473728</ele>
        <time>2021-11-22T09:40:08.310Z</time>
      </trkpt>
      <trkpt lat="47.449419" lon="8.099114">
        <ele>627.129383</ele>
        <time>2021-11-22T09:40:14.322Z</time>
      </trkpt>
      <trkpt lat="47.449730" lon="8.099057">
        <ele>628.709378</ele>
        <time>2021-11-22T09:40:31.918Z</time>
      </trkpt>
      <trkpt lat="47.450335" lon="8.099063">
        <ele>631.622089</ele>
        <time>2021-11-22T09:41:05.264Z</time>
      </trkpt>
      <trkpt lat="47.451072" lon="8.099594">
        <ele>635.315257</ele>
        <time>2021-11-22T09:41:54.934Z</time>
      </trkpt>
      <trkpt lat="47.451809" lon="8.099983">
        <ele>638.658908</ele>
        <time>2021-11-22T09:42:33.409Z</time>
      </trkpt>
      <trkpt lat="47.452046" lon="8.100178">
        <ele>639.060791</ele>
        <time>2021-11-22T09:42:47.970Z</time>
      </trkpt>
      <trkpt lat="47.452383" lon="8.100515">
        <ele>639.663609</ele>
        <time>2021-11-22T09:43:08.860Z</time>
      </trkpt>
      <trkpt lat="47.452462" lon="8.100606">
        <ele>639.811993</ele>
        <time>2021-11-22T09:43:11.405Z</time>
      </trkpt>
      <trkpt lat="47.452547" lon="8.100436">
        <ele>640.023840</ele>
        <time>2021-11-22T09:43:21.005Z</time>
      </trkpt>
      <trkpt lat="47.452621" lon="8.100146">
        <ele>640.334419</ele>
        <time>2021-11-22T09:43:28.399Z</time>
      </trkpt>
      <trkpt lat="47.452628" lon="8.099741">
        <ele>640.740358</ele>
        <time>2021-11-22T09:43:43.424Z</time>
      </trkpt>
      <trkpt lat="47.452625" lon="8.099692">
        <ele>640.789657</ele>
        <time>2021-11-22T09:43:44.265Z</time>
      </trkpt>
      <trkpt lat="47.452550" lon="8.098497">
        <ele>639.047095</ele>
        <time>2021-11-22T09:44:09.263Z</time>
      </trkpt>
      <trkpt lat="47.452540" lon="8.098021">
        <ele>637.667930</ele>
        <time>2021-11-22T09:44:19.025Z</time>
      </trkpt>
      <trkpt lat="47.452427" lon="8.097435">
        <ele>635.903211</ele>
        <time>2021-11-22T09:44:24.606Z</time>
      </trkpt>
      <trkpt lat="47.452289" lon="8.096834">
        <ele>634.065095</ele>
        <time>2021-11-22T09:44:30.177Z</time>
      </trkpt>
      <trkpt lat="47.452224" lon="8.096532">
        <ele>632.894763</ele>
        <time>2021-11-22T09:44:32.887Z</time>
      </trkpt>
      <trkpt lat="47.452085" lon="8.095868">
        <ele>629.560576</ele>
        <time>2021-11-22T09:44:44.832Z</time>
      </trkpt>
      <trkpt lat="47.451946" lon="8.095203">
        <ele>626.221798</ele>
        <time>2021-11-22T09:44:56.650Z</time>
      </trkpt>
      <trkpt lat="47.451813" lon="8.094131">
        <ele>620.993801</ele>
        <time>2021-11-22T09:45:15.620Z</time>
      </trkpt>
      <trkpt lat="47.451856" lon="8.093496">
        <ele>619.373795</ele>
        <time>2021-11-22T09:45:28.382Z</time>
      </trkpt>
      <trkpt lat="47.451992" lon="8.092939">
        <ele>617.974457</ele>
        <time>2021-11-22T09:45:40.679Z</time>
      </trkpt>
      <trkpt lat="47.452039" lon="8.092803">
        <ele>617.613559</ele>
        <time>2021-11-22T09:45:43.531Z</time>
      </trkpt>
      <trkpt lat="47.452144" lon="8.092529">
        <ele>616.869372</ele>
        <time>2021-11-22T09:45:50.378Z</time>
      </trkpt>
      <trkpt lat="47.452185" lon="8.092377">
        <ele>616.482684</ele>
        <time>2021-11-22T09:45:53.704Z</time>
      </trkpt>
      <trkpt lat="47.452299" lon="8.092109">
        <ele>615.734538</ele>
        <time>2021-11-22T09:46:00.252Z</time>
      </trkpt>
      <trkpt lat="47.452406" lon="8.091960">
        <ele>615.220961</ele>
        <time>2021-11-22T09:46:04.762Z</time>
      </trkpt>
      <trkpt lat="47.452552" lon="8.091846">
        <ele>614.644028</ele>
        <time>2021-11-22T09:46:07.236Z</time>
      </trkpt>
      <trkpt lat="47.452687" lon="8.091702">
        <ele>613.383935</ele>
        <time>2021-11-22T09:46:09.911Z</time>
      </trkpt>
      <trkpt lat="47.452885" lon="8.091073">
        <ele>609.130125</ele>
        <time>2021-11-22T09:46:22.554Z</time>
      </trkpt>
      <trkpt lat="47.453084" lon="8.090459">
        <ele>604.955610</ele>
        <time>2021-11-22T09:46:34.545Z</time>
      </trkpt>
      <trkpt lat="47.453427" lon="8.089778">
        <ele>599.749451</ele>
        <time>2021-11-22T09:46:48.138Z</time>
      </trkpt>
      <trkpt lat="47.453614" lon="8.089441">
        <ele>596.131419</ele>
        <time>2021-11-22T09:46:54.939Z</time>
      </trkpt>
      <trkpt lat="47.453817" lon="8.089139">
        <ele>591.283193</ele>
        <time>2021-11-22T09:47:01.459Z</time>
      </trkpt>
      <trkpt lat="47.453949" lon="8.088877">
        <ele>587.563281</ele>
        <time>2021-11-22T09:47:06.469Z</time>
      </trkpt>
      <trkpt lat="47.454007" lon="8.088592">
        <ele>584.174705</ele>
        <time>2021-11-22T09:47:11.054Z</time>
      </trkpt>
      <trkpt lat="47.454014" lon="8.088492">
        <ele>583.030094</ele>
        <time>2021-11-22T09:47:12.560Z</time>
      </trkpt>
      <trkpt lat="47.454055" lon="8.088369">
        <ele>581.468796</ele>
        <time>2021-11-22T09:47:14.710Z</time>
      </trkpt>
      <trkpt lat="47.454367" lon="8.088192">
        <ele>575.842217</ele>
        <time>2021-11-22T09:47:22.245Z</time>
      </trkpt>
      <trkpt lat="47.454440" lon="8.088070">
        <ele>573.987469</ele>
        <time>2021-11-22T09:47:24.746Z</time>
      </trkpt>
      <trkpt lat="47.454505" lon="8.087849">
        <ele>571.243627</ele>
        <time>2021-11-22T09:47:28.381Z</time>
      </trkpt>
      <trkpt lat="47.454576" lon="8.087620">
        <ele>568.375417</ele>
        <time>2021-11-22T09:47:30.372Z</time>
      </trkpt>
      <trkpt lat="47.454752" lon="8.087222">
        <ele>564.673961</ele>
        <time>2021-11-22T09:47:34.140Z</time>
      </trkpt>
      <trkpt lat="47.455192" lon="8.086692">
        <ele>558.436183</ele>
        <time>2021-11-22T09:47:40.910Z</time>
      </trkpt>
      <trkpt lat="47.455443" lon="8.086426">
        <ele>555.041931</ele>
        <time>2021-11-22T09:47:44.662Z</time>
      </trkpt>
      <trkpt lat="47.455713" lon="8.086247">
        <ele>551.789501</ele>
        <time>2021-11-22T09:47:48.311Z</time>
      </trkpt>
      <trkpt lat="47.455929" lon="8.086169">
        <ele>549.345446</ele>
        <time>2021-11-22T09:47:51.236Z</time>
      </trkpt>
      <trkpt lat="47.456058" lon="8.086163">
        <ele>547.966197</ele>
        <time>2021-11-22T09:47:52.948Z</time>
      </trkpt>
      <trkpt lat="47.456335" lon="8.086211">
        <ele>545.513835</ele>
        <time>2021-11-22T09:47:56.629Z</time>
      </trkpt>
      <trkpt lat="47.456732" lon="8.086172">
        <ele>542.015265</ele>
        <time>2021-11-22T09:48:01.669Z</time>
      </trkpt>
      <trkpt lat="47.457101" lon="8.086047">
        <ele>538.686572</ele>
        <time>2021-11-22T09:48:06.377Z</time>
      </trkpt>
      <trkpt lat="47.457844" lon="8.085524">
        <ele>531.343825</ele>
        <time>2021-11-22T09:48:16.375Z</time>
      </trkpt>
      <trkpt lat="47.458074" lon="8.085331">
        <ele>528.727647</ele>
        <time>2021-11-22T09:48:19.565Z</time>
      </trkpt>
      <trkpt lat="47.458174" lon="8.085121">
        <ele>527.009508</ele>
        <time>2021-11-22T09:48:21.642Z</time>
      </trkpt>
      <trkpt lat="47.458370" lon="8.084552">
        <ele>522.737920</ele>
        <time>2021-11-22T09:48:26.895Z</time>
      </trkpt>
      <trkpt lat="47.458485" lon="8.084264">
        <ele>520.500586</ele>
        <time>2021-11-22T09:48:29.625Z</time>
      </trkpt>
      <trkpt lat="47.458600" lon="8.084069">
        <ele>518.769747</ele>
        <time>2021-11-22T09:48:31.758Z</time>
      </trkpt>
      <trkpt lat="47.458780" lon="8.083846">
        <ele>516.446762</ele>
        <time>2021-11-22T09:48:34.594Z</time>
      </trkpt>
      <trkpt lat="47.458959" lon="8.083721">
        <ele>514.500405</ele>
        <time>2021-11-22T09:48:37.079Z</time>
      </trkpt>
      <trkpt lat="47.459355" lon="8.083651">
        <ele>512.427050</ele>
        <time>2021-11-22T09:48:42.216Z</time>
      </trkpt>
      <trkpt lat="47.459674" lon="8.083680">
        <ele>510.765519</ele>
        <time>2021-11-22T09:48:46.639Z</time>
      </trkpt>
      <trkpt lat="47.459853" lon="8.083756">
        <ele>509.797360</ele>
        <time>2021-11-22T09:48:49.176Z</time>
      </trkpt>
      <trkpt lat="47.460206" lon="8.083943">
        <ele>507.848045</ele>
        <time>2021-11-22T09:48:54.625Z</time>
      </trkpt>
      <trkpt lat="47.460689" lon="8.084064">
        <ele>505.301287</ele>
        <time>2021-11-22T09:49:01.507Z</time>
      </trkpt>
      <trkpt lat="47.461288" lon="8.084046">
        <ele>501.380127</ele>
        <time>2021-11-22T09:49:09.611Z</time>
      </trkpt>
      <trkpt lat="47.461543" lon="8.084041">
        <ele>499.695101</ele>
        <time>2021-11-22T09:49:13.066Z</time>
      </trkpt>
      <trkpt lat="47.461704" lon="8.084025">
        <ele>498.628918</ele>
        <time>2021-11-22T09:49:15.085Z</time>
      </trkpt>
      <trkpt lat="47.462086" lon="8.084041">
        <ele>496.103893</ele>
        <time>2021-11-22T09:49:19.951Z</time>
      </trkpt>
      <trkpt lat="47.462537" lon="8.084155">
        <ele>493.052261</ele>
        <time>2021-11-22T09:49:25.653Z</time>
      </trkpt>
      <trkpt lat="47.463130" lon="8.084333">
        <ele>488.478368</ele>
        <time>2021-11-22T09:49:33.094Z</time>
      </trkpt>
      <trkpt lat="47.463805" lon="8.084529">
        <ele>483.278617</ele>
        <time>2021-11-22T09:49:41.826Z</time>
      </trkpt>
      <trkpt lat="47.463971" lon="8.084597">
        <ele>481.976584</ele>
        <time>2021-11-22T09:49:44.039Z</time>
      </trkpt>
      <trkpt lat="47.464419" lon="8.084815">
        <ele>479.026482</ele>
        <time>2021-11-22T09:49:50.209Z</time>
      </trkpt>
      <trkpt lat="47.464774" lon="8.084973">
        <ele>477.579815</ele>
        <time>2021-11-22T09:49:55.289Z</time>
      </trkpt>
      <trkpt lat="47.464937" lon="8.085050">
        <ele>476.912091</ele>
        <time>2021-11-22T09:49:57.622Z</time>
      </trkpt>
      <trkpt lat="47.465099" lon="8.085104">
        <ele>476.264066</ele>
        <time>2021-11-22T09:50:00.042Z</time>
      </trkpt>
      <trkpt lat="47.465460" lon="8.085074">
        <ele>474.853114</ele>
        <time>2021-11-22T09:50:05.392Z</time>
      </trkpt>
      <trkpt lat="47.465655" lon="8.085165">
        <ele>474.055196</ele>
        <time>2021-11-22T09:50:08.415Z</time>
      </trkpt>
      <trkpt lat="47.465714" lon="8.085219">
        <ele>473.784452</ele>
        <time>2021-11-22T09:50:09.395Z</time>
      </trkpt>
      <trkpt lat="47.465715" lon="8.085396">
        <ele>473.317496</ele>
        <time>2021-11-22T09:50:11.352Z</time>
      </trkpt>
      <trkpt lat="47.465762" lon="8.085475">
        <ele>473.039877</ele>
        <time>2021-11-22T09:50:12.405Z</time>
      </trkpt>
      <trkpt lat="47.465899" lon="8.085583">
        <ele>472.509274</ele>
        <time>2021-11-22T09:50:14.639Z</time>
      </trkpt>
      <trkpt lat="47.466078" lon="8.085633">
        <ele>472.031076</ele>
        <time>2021-11-22T09:50:17.542Z</time>
      </trkpt>
      <trkpt lat="47.466123" lon="8.085646">
        <ele>471.910715</ele>
        <time>2021-11-22T09:50:18.156Z</time>
      </trkpt>
      <trkpt lat="47.466871" lon="8.085735">
        <ele>469.940797</ele>
        <time>2021-11-22T09:50:29.595Z</time>
      </trkpt>
      <trkpt lat="47.466978" lon="8.085740">
        <ele>469.659771</ele>
        <time>2021-11-22T09:50:31.135Z</time>
      </trkpt>
      <trkpt lat="47.467107" lon="8.085730">
        <ele>469.320668</ele>
        <time>2021-11-22T09:50:33.225Z</time>
      </trkpt>
      <trkpt lat="47.467360" lon="8.085700">
        <ele>468.654387</ele>
        <time>2021-11-22T09:50:37.025Z</time>
      </trkpt>
      <trkpt lat="47.467423" lon="8.085681">
        <ele>468.485604</ele>
        <time>2021-11-22T09:50:38.024Z</time>
      </trkpt>
      <trkpt lat="47.467666" lon="8.085607">
        <ele>467.840815</ele>
        <time>2021-11-22T09:50:41.729Z</time>
      </trkpt>
      <trkpt lat="47.468410" lon="8.085335">
        <ele>465.949971</ele>
        <time>2021-11-22T09:50:53.237Z</time>
      </trkpt>
      <trkpt lat="47.468855" lon="8.085090">
        <ele>464.778481</ele>
        <time>2021-11-22T09:51:00.596Z</time>
      </trkpt>
      <trkpt lat="47.469201" lon="8.084715">
        <ele>463.720227</ele>
        <time>2021-11-22T09:51:07.240Z</time>
      </trkpt>
      <trkpt lat="47.469271" lon="8.084606">
        <ele>463.466216</ele>
        <time>2021-11-22T09:51:08.722Z</time>
      </trkpt>
      <trkpt lat="47.469474" lon="8.084350">
        <ele>462.746858</ele>
        <time>2021-11-22T09:51:12.910Z</time>
      </trkpt>
      <trkpt lat="47.470120" lon="8.083775">
        <ele>460.713732</ele>
        <time>2021-11-22T09:51:24.226Z</time>
      </trkpt>
      <trkpt lat="47.471176" lon="8.082983">
        <ele>457.486953</ele>
        <time>2021-11-22T09:51:41.711Z</time>
      </trkpt>
      <trkpt lat="47.471499" lon="8.082733">
        <ele>456.474436</ele>
        <time>2021-11-22T09:51:47.148Z</time>
      </trkpt>
      <trkpt lat="47.471817" lon="8.082485">
        <ele>455.475963</ele>
        <time>2021-11-22T09:51:52.562Z</time>
      </trkpt>
      <trkpt lat="47.472080" lon="8.082388">
        <ele>454.723109</ele>
        <time>2021-11-22T09:51:56.772Z</time>
      </trkpt>
      <trkpt lat="47.472182" lon="8.082379">
        <ele>454.439295</ele>
        <time>2021-11-22T09:51:58.222Z</time>
      </trkpt>
      <trkpt lat="47.472243" lon="8.082374">
        <ele>454.269605</ele>
        <time>2021-11-22T09:51:59.107Z</time>
      </trkpt>
      <trkpt lat="47.472467" lon="8.082423">
        <ele>453.643246</ele>
        <time>2021-11-22T09:52:02.635Z</time>
      </trkpt>
      <trkpt lat="47.473259" lon="8.082972">
        <ele>451.569992</ele>
        <time>2021-11-22T09:52:15.590Z</time>
      </trkpt>
      <trkpt lat="47.473472" lon="8.083074">
        <ele>451.039296</ele>
        <time>2021-11-22T09:52:19.135Z</time>
      </trkpt>
      <trkpt lat="47.473676" lon="8.083091">
        <ele>450.554959</ele>
        <time>2021-11-22T09:52:22.100Z</time>
      </trkpt>
      <trkpt lat="47.473894" lon="8.083088">
        <ele>450.038179</ele>
        <time>2021-11-22T09:52:25.715Z</time>
      </trkpt>
      <trkpt lat="47.474251" lon="8.083086">
        <ele>449.373327</ele>
        <time>2021-11-22T09:52:31.344Z</time>
      </trkpt>
      <trkpt lat="47.474348" lon="8.083085">
        <ele>449.349129</ele>
        <time>2021-11-22T09:52:32.763Z</time>
      </trkpt>
      <trkpt lat="47.474963" lon="8.083258">
        <ele>449.192967</ele>
        <time>2021-11-22T09:52:43.893Z</time>
      </trkpt>
      <trkpt lat="47.475100" lon="8.083306">
        <ele>449.157847</ele>
        <time>2021-11-22T09:52:46.054Z</time>
      </trkpt>
      <trkpt lat="47.475215" lon="8.083355">
        <ele>449.127994</ele>
        <time>2021-11-22T09:52:48.581Z</time>
      </trkpt>
      <trkpt lat="47.475254" lon="8.083373">
        <ele>449.117803</ele>
        <time>2021-11-22T09:52:49.604Z</time>
      </trkpt>
      <trkpt lat="47.475513" lon="8.083417">
        <ele>449.052770</ele>
        <time>2021-11-22T09:52:54.996Z</time>
      </trkpt>
      <trkpt lat="47.475639" lon="8.083505">
        <ele>449.018013</ele>
        <time>2021-11-22T09:52:59.564Z</time>
      </trkpt>
      <trkpt lat="47.475842" lon="8.083634">
        <ele>448.962900</ele>
        <time>2021-11-22T09:53:04.073Z</time>
      </trkpt>
      <trkpt lat="47.475902" lon="8.083659">
        <ele>448.947351</ele>
        <time>2021-11-22T09:53:05.932Z</time>
      </trkpt>
      <trkpt lat="47.475897" lon="8.083691">
        <ele>448.988807</ele>
        <time>2021-11-22T09:53:06.501Z</time>
      </trkpt>
      <trkpt lat="47.475896" lon="8.083723">
        <ele>449.044251</ele>
        <time>2021-11-22T09:53:07.075Z</time>
      </trkpt>
      <trkpt lat="47.475900" lon="8.083756">
        <ele>449.102279</ele>
        <time>2021-11-22T09:53:08.344Z</time>
      </trkpt>
      <trkpt lat="47.476019" lon="8.083916">
        <ele>449.514038</ele>
        <time>2021-11-22T09:53:11.184Z</time>
      </trkpt>
      <trkpt lat="47.476324" lon="8.084325">
        <ele>450.568125</ele>
        <time>2021-11-22T09:53:20.884Z</time>
      </trkpt>
      <trkpt lat="47.476433" lon="8.084457">
        <ele>450.928822</ele>
        <time>2021-11-22T09:53:25.450Z</time>
      </trkpt>
      <trkpt lat="47.476465" lon="8.084521">
        <ele>451.066606</ele>
        <time>2021-11-22T09:53:27.085Z</time>
      </trkpt>
      <trkpt lat="47.476580" lon="8.084722">
        <ele>451.522396</ele>
        <time>2021-11-22T09:53:30.566Z</time>
      </trkpt>
      <trkpt lat="47.476688" lon="8.084996">
        <ele>452.071375</ele>
        <time>2021-11-22T09:53:37.500Z</time>
      </trkpt>
      <trkpt lat="47.476950" lon="8.085742">
        <ele>453.526429</ele>
        <time>2021-11-22T09:53:51.753Z</time>
      </trkpt>
      <trkpt lat="47.477000" lon="8.085839">
        <ele>453.825167</ele>
        <time>2021-11-22T09:53:54.464Z</time>
      </trkpt>
      <trkpt lat="47.477036" lon="8.085907">
        <ele>454.045166</ele>
        <time>2021-11-22T09:53:55.999Z</time>
      </trkpt>
      <trkpt lat="47.477088" lon="8.085971">
        <ele>454.300057</ele>
        <time>2021-11-22T09:53:57.490Z</time>
      </trkpt>
      <trkpt lat="47.477259" lon="8.086180">
        <ele>455.135876</ele>
        <time>2021-11-22T09:54:03.468Z</time>
      </trkpt>
      <trkpt lat="47.477311" lon="8.086266">
        <ele>455.429774</ele>
        <time>2021-11-22T09:54:05.688Z</time>
      </trkpt>
      <trkpt lat="47.477546" lon="8.086631">
        <ele>456.713691</ele>
        <time>2021-11-22T09:54:14.887Z</time>
      </trkpt>
      <trkpt lat="47.477973" lon="8.087099">
        <ele>458.716173</ele>
        <time>2021-11-22T09:54:30.217Z</time>
      </trkpt>
      <trkpt lat="47.478076" lon="8.087283">
        <ele>459.324671</ele>
        <time>2021-11-22T09:54:36.323Z</time>
      </trkpt>
      <trkpt lat="47.478151" lon="8.087469">
        <ele>459.876300</ele>
        <time>2021-11-22T09:54:40.892Z</time>
      </trkpt>
      <trkpt lat="47.478177" lon="8.087544">
        <ele>460.090981</ele>
        <time>2021-11-22T09:54:42.710Z</time>
      </trkpt>
      <trkpt lat="47.478323" lon="8.087950">
        <ele>462.215080</ele>
        <time>2021-11-22T09:54:53.392Z</time>
      </trkpt>
      <trkpt lat="47.478382" lon="8.088101">
        <ele>463.113166</ele>
        <time>2021-11-22T09:54:57.557Z</time>
      </trkpt>
      <trkpt lat="47.478405" lon="8.088165">
        <ele>463.486395</ele>
        <time>2021-11-22T09:54:59.961Z</time>
      </trkpt>
      <trkpt lat="47.478484" lon="8.088360">
        <ele>464.657028</ele>
        <time>2021-11-22T09:55:06.762Z</time>
      </trkpt>
      <trkpt lat="47.478572" lon="8.088577">
        <ele>465.960071</ele>
        <time>2021-11-22T09:55:13.926Z</time>
      </trkpt>
      <trkpt lat="47.478749" lon="8.089056">
        <ele>468.771018</ele>
        <time>2021-11-22T09:55:32.514Z</time>
      </trkpt>
      <trkpt lat="47.479007" lon="8.090053">
        <ele>474.219399</ele>
        <time>2021-11-22T09:56:10.133Z</time>
      </trkpt>
      <trkpt lat="47.479094" lon="8.090298">
        <ele>475.350196</ele>
        <time>2021-11-22T09:56:20.092Z</time>
      </trkpt>
      <trkpt lat="47.479238" lon="8.090660">
        <ele>477.066448</ele>
        <time>2021-11-22T09:56:33.350Z</time>
      </trkpt>
      <trkpt lat="47.479402" lon="8.091004">
        <ele>478.786475</ele>
        <time>2021-11-22T09:56:45.351Z</time>
      </trkpt>
      <trkpt lat="47.479463" lon="8.091152">
        <ele>479.494754</ele>
        <time>2021-11-22T09:56:50.423Z</time>
      </trkpt>
      <trkpt lat="47.479713" lon="8.091736">
        <ele>482.319251</ele>
        <time>2021-11-22T09:57:06.866Z</time>
      </trkpt>
      <trkpt lat="47.479930" lon="8.092414">
        <ele>484.913065</ele>
        <time>2021-11-22T09:57:22.884Z</time>
      </trkpt>
      <trkpt lat="47.480005" lon="8.092856">
        <ele>484.939979</ele>
        <time>2021-11-22T09:57:29.619Z</time>
      </trkpt>
      <trkpt lat="47.480039" lon="8.093148">
        <ele>484.957478</ele>
        <time>2021-11-22T09:57:33.027Z</time>
      </trkpt>
      <trkpt lat="47.480046" lon="8.093530">
        <ele>484.980047</ele>
        <time>2021-11-22T09:57:36.402Z</time>
      </trkpt>
      <trkpt lat="47.479930" lon="8.094114">
        <ele>485.015996</ele>
        <time>2021-11-22T09:57:41.421Z</time>
      </trkpt>
      <trkpt lat="47.479380" lon="8.095275">
        <ele>483.435496</ele>
        <time>2021-11-22T09:57:52.505Z</time>
      </trkpt>
      <trkpt lat="47.479249" lon="8.095661">
        <ele>482.294804</ele>
        <time>2021-11-22T09:57:55.795Z</time>
      </trkpt>
      <trkpt lat="47.479096" lon="8.096481">
        <ele>480.048246</ele>
        <time>2021-11-22T09:58:01.144Z</time>
      </trkpt>
      <trkpt lat="47.478747" lon="8.097696">
        <ele>475.597270</ele>
        <time>2021-11-22T09:58:09.460Z</time>
      </trkpt>
      <trkpt lat="47.478731" lon="8.097765">
        <ele>475.278508</ele>
        <time>2021-11-22T09:58:09.882Z</time>
      </trkpt>
      <trkpt lat="47.478773" lon="8.097844">
        <ele>474.839300</ele>
        <time>2021-11-22T09:58:10.478Z</time>
      </trkpt>
      <trkpt lat="47.478842" lon="8.097916">
        <ele>474.293407</ele>
        <time>2021-11-22T09:58:11.368Z</time>
      </trkpt>
      <trkpt lat="47.478896" lon="8.097952">
        <ele>473.910474</ele>
        <time>2021-11-22T09:58:11.883Z</time>
      </trkpt>
      <trkpt lat="47.478937" lon="8.097904">
        <ele>473.572450</ele>
        <time>2021-11-22T09:58:12.382Z</time>
      </trkpt>
      <trkpt lat="47.479323" lon="8.097102">
        <ele>469.270182</ele>
        <time>2021-11-22T09:58:18.446Z</time>
      </trkpt>
      <trkpt lat="47.479532" lon="8.096668">
        <ele>466.941590</ele>
        <time>2021-11-22T09:58:21.675Z</time>
      </trkpt>
      <trkpt lat="47.479830" lon="8.095540">
        <ele>460.714870</ele>
        <time>2021-11-22T09:58:28.886Z</time>
      </trkpt>
      <trkpt lat="47.479994" lon="8.095427">
        <ele>459.315410</ele>
        <time>2021-11-22T09:58:30.529Z</time>
      </trkpt>
      <trkpt lat="47.480330" lon="8.095584">
        <ele>456.589703</ele>
        <time>2021-11-22T09:58:33.659Z</time>
      </trkpt>
      <trkpt lat="47.480512" lon="8.095654">
        <ele>455.135025</ele>
        <time>2021-11-22T09:58:35.307Z</time>
      </trkpt>
      <trkpt lat="47.480625" lon="8.095653">
        <ele>454.260880</ele>
        <time>2021-11-22T09:58:36.303Z</time>
      </trkpt>
      <trkpt lat="47.481075" lon="8.095462">
        <ele>450.957358</ele>
        <time>2021-11-22T09:58:40.487Z</time>
      </trkpt>
      <trkpt lat="47.481217" lon="8.095387">
        <ele>449.991105</ele>
        <time>2021-11-22T09:58:41.786Z</time>
      </trkpt>
      <trkpt lat="47.481750" lon="8.095128">
        <ele>446.395865</ele>
        <time>2021-11-22T09:58:46.770Z</time>
      </trkpt>
      <trkpt lat="47.482070" lon="8.094982">
        <ele>444.249851</ele>
        <time>2021-11-22T09:58:49.739Z</time>
      </trkpt>
      <trkpt lat="47.482304" lon="8.094915">
        <ele>442.722431</ele>
        <time>2021-11-22T09:58:51.982Z</time>
      </trkpt>
      <trkpt lat="47.482517" lon="8.094911">
        <ele>441.357298</ele>
        <time>2021-11-22T09:58:54.137Z</time>
      </trkpt>
      <trkpt lat="47.482722" lon="8.094944">
        <ele>440.669005</ele>
        <time>2021-11-22T09:58:56.245Z</time>
      </trkpt>
      <trkpt lat="47.482979" lon="8.095016">
        <ele>440.133990</ele>
        <time>2021-11-22T09:58:59.615Z</time>
      </trkpt>
      <trkpt lat="47.483214" lon="8.095107">
        <ele>439.637127</ele>
        <time>2021-11-22T09:59:02.234Z</time>
      </trkpt>
      <trkpt lat="47.483316" lon="8.095151">
        <ele>439.419808</ele>
        <time>2021-11-22T09:59:03.662Z</time>
      </trkpt>
      <trkpt lat="47.483808" lon="8.095347">
        <ele>438.377624</ele>
        <time>2021-11-22T09:59:09.309Z</time>
      </trkpt>
      <trkpt lat="47.483850" lon="8.095366">
        <ele>438.287791</ele>
        <time>2021-11-22T09:59:09.763Z</time>
      </trkpt>
      <trkpt lat="47.484222" lon="8.095528">
        <ele>437.494623</ele>
        <time>2021-11-22T09:59:13.999Z</time>
      </trkpt>
      <trkpt lat="47.484401" lon="8.095609">
        <ele>437.131317</ele>
        <time>2021-11-22T09:59:16.564Z</time>
      </trkpt>
      <trkpt lat="47.484493" lon="8.095332">
        <ele>436.752348</ele>
        <time>2021-11-22T09:59:19.743Z</time>
      </trkpt>
      <trkpt lat="47.484655" lon="8.095103">
        <ele>436.345291</ele>
        <time>2021-11-22T09:59:23.810Z</time>
      </trkpt>
      <trkpt lat="47.484888" lon="8.094773">
        <ele>435.759295</ele>
        <time>2021-11-22T09:59:29.410Z</time>
      </trkpt>
      <trkpt lat="47.485199" lon="8.094310">
        <ele>434.957756</ele>
        <time>2021-11-22T09:59:36.410Z</time>
      </trkpt>
      <trkpt lat="47.485444" lon="8.093836">
        <ele>434.225047</ele>
        <time>2021-11-22T09:59:42.420Z</time>
      </trkpt>
      <trkpt lat="47.486390" lon="8.091832">
        <ele>430.601532</ele>
        <time>2021-11-22T10:00:08.025Z</time>
      </trkpt>
      <trkpt lat="47.486829" lon="8.090722">
        <ele>428.580957</ele>
        <time>2021-11-22T10:00:21.559Z</time>
      </trkpt>
      <trkpt lat="47.487044" lon="8.090147">
        <ele>427.528886</ele>
        <time>2021-11-22T10:00:28.334Z</time>
      </trkpt>
      <trkpt lat="47.487706" lon="8.088596">
        <ele>424.777327</ele>
        <time>2021-11-22T10:00:47.135Z</time>
      </trkpt>
      <trkpt lat="47.488527" lon="8.087082">
        <ele>422.168695</ele>
        <time>2021-11-22T10:01:07.951Z</time>
      </trkpt>
      <trkpt lat="47.489330" lon="8.085950">
        <ele>421.043851</ele>
        <time>2021-11-22T10:01:26.912Z</time>
      </trkpt>
      <trkpt lat="47.490112" lon="8.085074">
        <ele>420.039408</ele>
        <time>2021-11-22T10:01:44.933Z</time>
      </trkpt>
      <trkpt lat="47.490801" lon="8.084381">
        <ele>419.167426</ele>
        <time>2021-11-22T10:02:00.200Z</time>
      </trkpt>
      <trkpt lat="47.491943" lon="8.083213">
        <ele>416.608207</ele>
        <time>2021-11-22T10:02:22.393Z</time>
      </trkpt>
      <trkpt lat="47.492297" lon="8.082873">
        <ele>415.518919</ele>
        <time>2021-11-22T10:02:28.653Z</time>
      </trkpt>
      <trkpt lat="47.493172" lon="8.082259">
        <ele>412.860507</ele>
        <time>2021-11-22T10:02:42.905Z</time>
      </trkpt>
      <trkpt lat="47.493614" lon="8.082189">
        <ele>411.487220</ele>
        <time>2021-11-22T10:02:49.154Z</time>
      </trkpt>
      <trkpt lat="47.493665" lon="8.082202">
        <ele>411.327344</ele>
        <time>2021-11-22T10:02:49.816Z</time>
      </trkpt>
      <trkpt lat="47.493732" lon="8.082310">
        <ele>411.021296</ele>
        <time>2021-11-22T10:02:51.131Z</time>
      </trkpt>
      <trkpt lat="47.493952" lon="8.082872">
        <ele>409.665526</ele>
        <time>2021-11-22T10:02:57.662Z</time>
      </trkpt>
      <trkpt lat="47.493985" lon="8.082900">
        <ele>409.548013</ele>
        <time>2021-11-22T10:02:58.523Z</time>
      </trkpt>
      <trkpt lat="47.494036" lon="8.082944">
        <ele>409.365641</ele>
        <time>2021-11-22T10:02:59.419Z</time>
      </trkpt>
      <trkpt lat="47.494115" lon="8.082963">
        <ele>409.118381</ele>
        <time>2021-11-22T10:03:00.558Z</time>
      </trkpt>
      <trkpt lat="47.494127" lon="8.082962">
        <ele>409.081250</ele>
        <time>2021-11-22T10:03:00.699Z</time>
      </trkpt>
      <trkpt lat="47.494194" lon="8.082956">
        <ele>408.873885</ele>
        <time>2021-11-22T10:03:01.774Z</time>
      </trkpt>
      <trkpt lat="47.494214" lon="8.082955">
        <ele>408.812063</ele>
        <time>2021-11-22T10:03:02.005Z</time>
      </trkpt>
      <trkpt lat="47.494694" lon="8.082941">
        <ele>408.535379</ele>
        <time>2021-11-22T10:03:10.223Z</time>
      </trkpt>
      <trkpt lat="47.494963" lon="8.083009">
        <ele>408.773428</ele>
        <time>2021-11-22T10:03:14.484Z</time>
      </trkpt>
      <trkpt lat="47.494933" lon="8.083243">
        <ele>408.913804</ele>
        <time>2021-11-22T10:03:18.369Z</time>
      </trkpt>
      <trkpt lat="47.494898" lon="8.083514">
        <ele>409.076418</ele>
        <time>2021-11-22T10:03:20.844Z</time>
      </trkpt>
      <trkpt lat="47.494822" lon="8.084015">
        <ele>409.379048</ele>
        <time>2021-11-22T10:03:27.415Z</time>
      </trkpt>
      <trkpt lat="47.494924" lon="8.084065">
        <ele>409.472777</ele>
        <time>2021-11-22T10:03:30.265Z</time>
      </trkpt>
      <trkpt lat="47.495055" lon="8.084135">
        <ele>409.594269</ele>
        <time>2021-11-22T10:03:34.270Z</time>
      </trkpt>
      <trkpt lat="47.495106" lon="8.084168">
        <ele>409.642822</ele>
        <time>2021-11-22T10:03:35.482Z</time>
      </trkpt>
      <trkpt lat="47.495171" lon="8.084232">
        <ele>409.710923</ele>
        <time>2021-11-22T10:03:37.478Z</time>
      </trkpt>
      <trkpt lat="47.495445" lon="8.084551">
        <ele>410.661919</ele>
        <time>2021-11-22T10:03:48.686Z</time>
      </trkpt>
      <trkpt lat="47.495549" lon="8.084639">
        <ele>411.149806</ele>
        <time>2021-11-22T10:03:52.872Z</time>
      </trkpt>
      <trkpt lat="47.495636" lon="8.084745">
        <ele>411.608737</ele>
        <time>2021-11-22T10:03:57.738Z</time>
      </trkpt>
      <trkpt lat="47.496002" lon="8.085400">
        <ele>413.947596</ele>
        <time>2021-11-22T10:04:15.830Z</time>
      </trkpt>
      <trkpt lat="47.496274" lon="8.085642">
        <ele>415.240092</ele>
        <time>2021-11-22T10:04:25.754Z</time>
      </trkpt>
      <trkpt lat="47.496373" lon="8.085787">
        <ele>415.807326</ele>
        <time>2021-11-22T10:04:30.897Z</time>
      </trkpt>
      <trkpt lat="47.496422" lon="8.086009">
        <ele>416.449957</ele>
        <time>2021-11-22T10:04:34.725Z</time>
      </trkpt>
      <trkpt lat="47.496519" lon="8.086234">
        <ele>417.181497</ele>
        <time>2021-11-22T10:04:40.301Z</time>
      </trkpt>
      <trkpt lat="47.496576" lon="8.086291">
        <ele>417.422262</ele>
        <time>2021-11-22T10:04:43.421Z</time>
      </trkpt>
      <trkpt lat="47.496752" lon="8.086468">
        <ele>418.167003</ele>
        <time>2021-11-22T10:04:48.450Z</time>
      </trkpt>
      <trkpt lat="47.496950" lon="8.086653">
        <ele>418.986530</ele>
        <time>2021-11-22T10:04:55.256Z</time>
      </trkpt>
      <trkpt lat="47.497376" lon="8.086991">
        <ele>420.678241</ele>
        <time>2021-11-22T10:05:07.987Z</time>
      </trkpt>
      <trkpt lat="47.497737" lon="8.087270">
        <ele>422.103611</ele>
        <time>2021-11-22T10:05:18.585Z</time>
      </trkpt>
      <trkpt lat="47.497928" lon="8.087452">
        <ele>422.898661</ele>
        <time>2021-11-22T10:05:26.042Z</time>
      </trkpt>
      <trkpt lat="47.498188" lon="8.087851">
        <ele>424.455924</ele>
        <time>2021-11-22T10:05:38.016Z</time>
      </trkpt>
      <trkpt lat="47.498481" lon="8.088558">
        <ele>427.061323</ele>
        <time>2021-11-22T10:05:57.008Z</time>
      </trkpt>
      <trkpt lat="47.498666" lon="8.088885">
        <ele>428.401090</ele>
        <time>2021-11-22T10:06:06.990Z</time>
      </trkpt>
      <trkpt lat="47.498851" lon="8.089152">
        <ele>429.602463</ele>
        <time>2021-11-22T10:06:17.208Z</time>
      </trkpt>
      <trkpt lat="47.498994" lon="8.089359">
        <ele>430.532443</ele>
        <time>2021-11-22T10:06:24.178Z</time>
      </trkpt>
      <trkpt lat="47.500332" lon="8.091539">
        <ele>438.237598</ele>
        <time>2021-11-22T10:07:24.997Z</time>
      </trkpt>
      <trkpt lat="47.500507" lon="8.091877">
        <ele>438.828854</ele>
        <time>2021-11-22T10:07:32.006Z</time>
      </trkpt>
      <trkpt lat="47.500685" lon="8.092227">
        <ele>439.223089</ele>
        <time>2021-11-22T10:07:38.878Z</time>
      </trkpt>
      <trkpt lat="47.501149" lon="8.093186">
        <ele>440.284588</ele>
        <time>2021-11-22T10:07:53.619Z</time>
      </trkpt>
      <trkpt lat="47.501513" lon="8.093894">
        <ele>441.031133</ele>
        <time>2021-11-22T10:08:03.907Z</time>
      </trkpt>
      <trkpt lat="47.501590" lon="8.094043">
        <ele>441.129134</ele>
        <time>2021-11-22T10:08:05.392Z</time>
      </trkpt>
      <trkpt lat="47.501931" lon="8.094610">
        <ele>441.525704</ele>
        <time>2021-11-22T10:08:13.799Z</time>
      </trkpt>
      <trkpt lat="47.502026" lon="8.094768">
        <ele>441.636200</ele>
        <time>2021-11-22T10:08:16.299Z</time>
      </trkpt>
      <trkpt lat="47.502110" lon="8.094873">
        <ele>441.721218</ele>
        <time>2021-11-22T10:08:17.643Z</time>
      </trkpt>
      <trkpt lat="47.502217" lon="8.094977">
        <ele>441.820202</ele>
        <time>2021-11-22T10:08:20.561Z</time>
      </trkpt>
      <trkpt lat="47.502282" lon="8.095019">
        <ele>441.875045</ele>
        <time>2021-11-22T10:08:22.121Z</time>
      </trkpt>
      <trkpt lat="47.502574" lon="8.095231">
        <ele>442.126541</ele>
        <time>2021-11-22T10:08:28.259Z</time>
      </trkpt>
      <trkpt lat="47.502910" lon="8.095439">
        <ele>442.616888</ele>
        <time>2021-11-22T10:08:35.135Z</time>
      </trkpt>
      <trkpt lat="47.503482" lon="8.095792">
        <ele>444.734849</ele>
        <time>2021-11-22T10:08:49.564Z</time>
      </trkpt>
      <trkpt lat="47.503767" lon="8.095971">
        <ele>445.792915</ele>
        <time>2021-11-22T10:08:59.088Z</time>
      </trkpt>
      <trkpt lat="47.504630" lon="8.096527">
        <ele>449.026449</ele>
        <time>2021-11-22T10:09:30.727Z</time>
      </trkpt>
      <trkpt lat="47.504815" lon="8.096672">
        <ele>449.765323</ele>
        <time>2021-11-22T10:09:37.757Z</time>
      </trkpt>
      <trkpt lat="47.504977" lon="8.096829">
        <ele>450.448773</ele>
        <time>2021-11-22T10:09:44.656Z</time>
      </trkpt>
      <trkpt lat="47.505090" lon="8.096968">
        <ele>450.967359</ele>
        <time>2021-11-22T10:09:49.070Z</time>
      </trkpt>
      <trkpt lat="47.505224" lon="8.097111">
        <ele>451.550427</ele>
        <time>2021-11-22T10:09:54.316Z</time>
      </trkpt>
      <trkpt lat="47.505520" lon="8.097456">
        <ele>452.880190</ele>
        <time>2021-11-22T10:10:04.661Z</time>
      </trkpt>
      <trkpt lat="47.505811" lon="8.097796">
        <ele>454.188709</ele>
        <time>2021-11-22T10:10:13.536Z</time>
      </trkpt>
      <trkpt lat="47.505855" lon="8.097849">
        <ele>454.388933</ele>
        <time>2021-11-22T10:10:14.818Z</time>
      </trkpt>
      <trkpt lat="47.506023" lon="8.098051">
        <ele>454.982884</ele>
        <time>2021-11-22T10:10:20.353Z</time>
      </trkpt>
      <trkpt lat="47.506383" lon="8.098483">
        <ele>455.721697</ele>
        <time>2021-11-22T10:10:31.275Z</time>
      </trkpt>
      <trkpt lat="47.506485" lon="8.098597">
        <ele>455.925452</ele>
        <time>2021-11-22T10:10:33.316Z</time>
      </trkpt>
      <trkpt lat="47.506767" lon="8.098876">
        <ele>456.466193</ele>
        <time>2021-11-22T10:10:40.753Z</time>
      </trkpt>
      <trkpt lat="47.506874" lon="8.098948">
        <ele>456.653575</ele>
        <time>2021-11-22T10:10:43.656Z</time>
      </trkpt>
      <trkpt lat="47.506976" lon="8.099024">
        <ele>456.835625</ele>
        <time>2021-11-22T10:10:45.814Z</time>
      </trkpt>
      <trkpt lat="47.507131" lon="8.099082">
        <ele>457.090507</ele>
        <time>2021-11-22T10:10:47.971Z</time>
      </trkpt>
      <trkpt lat="47.507198" lon="8.099101">
        <ele>457.199264</ele>
        <time>2021-11-22T10:10:49.765Z</time>
      </trkpt>
      <trkpt lat="47.507495" lon="8.099134">
        <ele>457.674091</ele>
        <time>2021-11-22T10:10:54.640Z</time>
      </trkpt>
      <trkpt lat="47.507666" lon="8.099135">
        <ele>458.101198</ele>
        <time>2021-11-22T10:10:58.575Z</time>
      </trkpt>
      <trkpt lat="47.507728" lon="8.099150">
        <ele>458.266818</ele>
        <time>2021-11-22T10:10:59.898Z</time>
      </trkpt>
      <trkpt lat="47.508035" lon="8.099268">
        <ele>459.103000</ele>
        <time>2021-11-22T10:11:06.072Z</time>
      </trkpt>
      <trkpt lat="47.508341" lon="8.099423">
        <ele>459.955627</ele>
        <time>2021-11-22T10:11:13.819Z</time>
      </trkpt>
      <trkpt lat="47.508401" lon="8.099452">
        <ele>460.122022</ele>
        <time>2021-11-22T10:11:15.477Z</time>
      </trkpt>
      <trkpt lat="47.508511" lon="8.099532">
        <ele>460.445120</ele>
        <time>2021-11-22T10:11:18.448Z</time>
      </trkpt>
      <trkpt lat="47.508596" lon="8.099602">
        <ele>460.701545</ele>
        <time>2021-11-22T10:11:21.880Z</time>
      </trkpt>
      <trkpt lat="47.508688" lon="8.099702">
        <ele>461.002440</ele>
        <time>2021-11-22T10:11:25.859Z</time>
      </trkpt>
      <trkpt lat="47.509176" lon="8.100345">
        <ele>462.822708</ele>
        <time>2021-11-22T10:11:45.074Z</time>
      </trkpt>
      <trkpt lat="47.509343" lon="8.100494">
        <ele>463.521548</ele>
        <time>2021-11-22T10:11:50.576Z</time>
      </trkpt>
      <trkpt lat="47.509412" lon="8.100549">
        <ele>463.802419</ele>
        <time>2021-11-22T10:11:52.701Z</time>
      </trkpt>
      <trkpt lat="47.509622" lon="8.100692">
        <ele>464.630882</ele>
        <time>2021-11-22T10:11:59.281Z</time>
      </trkpt>
      <trkpt lat="47.509638" lon="8.100703">
        <ele>464.694109</ele>
        <time>2021-11-22T10:11:59.765Z</time>
      </trkpt>
      <trkpt lat="47.509944" lon="8.100887">
        <ele>465.877857</ele>
        <time>2021-11-22T10:12:09.277Z</time>
      </trkpt>
      <trkpt lat="47.510731" lon="8.101349">
        <ele>468.921003</ele>
        <time>2021-11-22T10:12:34.235Z</time>
      </trkpt>
      <trkpt lat="47.511350" lon="8.101444">
        <ele>472.602372</ele>
        <time>2021-11-22T10:12:52.738Z</time>
      </trkpt>
      <trkpt lat="47.511784" lon="8.101451">
        <ele>475.169888</ele>
        <time>2021-11-22T10:13:05.996Z</time>
      </trkpt>
      <trkpt lat="47.512294" lon="8.101446">
        <ele>478.186902</ele>
        <time>2021-11-22T10:13:30.547Z</time>
      </trkpt>
      <trkpt lat="47.513097" lon="8.101440">
        <ele>486.409685</ele>
        <time>2021-11-22T10:14:12.294Z</time>
      </trkpt>
      <trkpt lat="47.513213" lon="8.101454">
        <ele>487.801650</ele>
        <time>2021-11-22T10:14:18.620Z</time>
      </trkpt>
      <trkpt lat="47.513274" lon="8.101477">
        <ele>488.554498</ele>
        <time>2021-11-22T10:14:25.364Z</time>
      </trkpt>
      <trkpt lat="47.513402" lon="8.101592">
        <ele>490.345194</ele>
        <time>2021-11-22T10:14:32.473Z</time>
      </trkpt>
      <trkpt lat="47.514173" lon="8.102716">
        <ele>503.423817</ele>
        <time>2021-11-22T10:15:49.697Z</time>
      </trkpt>
      <trkpt lat="47.514667" lon="8.103702">
        <ele>513.951153</ele>
        <time>2021-11-22T10:16:46.610Z</time>
      </trkpt>
      <trkpt lat="47.514756" lon="8.103964">
        <ele>516.465970</ele>
        <time>2021-11-22T10:16:59.558Z</time>
      </trkpt>
      <trkpt lat="47.514931" lon="8.104527">
        <ele>521.780440</ele>
        <time>2021-11-22T10:17:25.606Z</time>
      </trkpt>
      <trkpt lat="47.515233" lon="8.105459">
        <ele>528.663044</ele>
        <time>2021-11-22T10:18:06.054Z</time>
      </trkpt>
      <trkpt lat="47.515271" lon="8.105582">
        <ele>529.482807</ele>
        <time>2021-11-22T10:18:11.341Z</time>
      </trkpt>
      <trkpt lat="47.515524" lon="8.106413">
        <ele>535.007346</ele>
        <time>2021-11-22T10:18:41.058Z</time>
      </trkpt>
      <trkpt lat="47.516180" lon="8.108478">
        <ele>546.969674</ele>
        <time>2021-11-22T10:19:48.906Z</time>
      </trkpt>
      <trkpt lat="47.516517" lon="8.109548">
        <ele>552.607785</ele>
        <time>2021-11-22T10:20:22.596Z</time>
      </trkpt>
      <trkpt lat="47.516730" lon="8.110266">
        <ele>555.237229</ele>
        <time>2021-11-22T10:20:44.826Z</time>
      </trkpt>
      <trkpt lat="47.516960" lon="8.110849">
        <ele>557.464578</ele>
        <time>2021-11-22T10:21:01.478Z</time>
      </trkpt>
      <trkpt lat="47.517126" lon="8.111099">
        <ele>558.621136</ele>
        <time>2021-11-22T10:21:09.627Z</time>
      </trkpt>
      <trkpt lat="47.517402" lon="8.111532">
        <ele>560.585278</ele>
        <time>2021-11-22T10:21:22.547Z</time>
      </trkpt>
      <trkpt lat="47.517585" lon="8.111839">
        <ele>561.522401</ele>
        <time>2021-11-22T10:21:29.440Z</time>
      </trkpt>
      <trkpt lat="47.517983" lon="8.112466">
        <ele>561.465870</ele>
        <time>2021-11-22T10:21:40.246Z</time>
      </trkpt>
      <trkpt lat="47.518295" lon="8.113056">
        <ele>561.416641</ele>
        <time>2021-11-22T10:21:46.944Z</time>
      </trkpt>
      <trkpt lat="47.518474" lon="8.113619">
        <ele>561.375760</ele>
        <time>2021-11-22T10:21:51.554Z</time>
      </trkpt>
      <trkpt lat="47.518892" lon="8.116720">
        <ele>557.688034</ele>
        <time>2021-11-22T10:22:15.105Z</time>
      </trkpt>
      <trkpt lat="47.518885" lon="8.117042">
        <ele>557.196544</ele>
        <time>2021-11-22T10:22:17.801Z</time>
      </trkpt>
      <trkpt lat="47.518740" lon="8.117714">
        <ele>556.120302</ele>
        <time>2021-11-22T10:22:23.265Z</time>
      </trkpt>
      <trkpt lat="47.518622" lon="8.118005">
        <ele>555.602482</ele>
        <time>2021-11-22T10:22:25.821Z</time>
      </trkpt>
      <trkpt lat="47.518325" lon="8.118433">
        <ele>554.666286</ele>
        <time>2021-11-22T10:22:30.233Z</time>
      </trkpt>
      <trkpt lat="47.518234" lon="8.118678">
        <ele>554.239718</ele>
        <time>2021-11-22T10:22:32.153Z</time>
      </trkpt>
      <trkpt lat="47.518226" lon="8.118790">
        <ele>554.067898</ele>
        <time>2021-11-22T10:22:33.012Z</time>
      </trkpt>
      <trkpt lat="47.518291" lon="8.118990">
        <ele>553.384053</ele>
        <time>2021-11-22T10:22:34.421Z</time>
      </trkpt>
      <trkpt lat="47.518372" lon="8.119045">
        <ele>552.810357</ele>
        <time>2021-11-22T10:22:35.301Z</time>
      </trkpt>
      <trkpt lat="47.518662" lon="8.118990">
        <ele>550.928083</ele>
        <time>2021-11-22T10:22:38.150Z</time>
      </trkpt>
      <trkpt lat="47.518865" lon="8.118958">
        <ele>549.613783</ele>
        <time>2021-11-22T10:22:40.188Z</time>
      </trkpt>
      <trkpt lat="47.519020" lon="8.118892">
        <ele>548.575451</ele>
        <time>2021-11-22T10:22:41.621Z</time>
      </trkpt>
      <trkpt lat="47.519187" lon="8.118830">
        <ele>547.467025</ele>
        <time>2021-11-22T10:22:43.170Z</time>
      </trkpt>
      <trkpt lat="47.519221" lon="8.118862">
        <ele>547.207658</ele>
        <time>2021-11-22T10:22:43.518Z</time>
      </trkpt>
      <trkpt lat="47.519597" lon="8.118303">
        <ele>543.777380</ele>
        <time>2021-11-22T10:22:48.192Z</time>
      </trkpt>
      <trkpt lat="47.520037" lon="8.117760">
        <ele>539.920605</ele>
        <time>2021-11-22T10:22:53.208Z</time>
      </trkpt>
      <trkpt lat="47.520145" lon="8.117619">
        <ele>538.923808</ele>
        <time>2021-11-22T10:22:54.469Z</time>
      </trkpt>
      <trkpt lat="47.520249" lon="8.117369">
        <ele>537.551018</ele>
        <time>2021-11-22T10:22:56.225Z</time>
      </trkpt>
      <trkpt lat="47.520431" lon="8.116272">
        <ele>532.269706</ele>
        <time>2021-11-22T10:23:03.086Z</time>
      </trkpt>
      <trkpt lat="47.520323" lon="8.115296">
        <ele>528.966658</ele>
        <time>2021-11-22T10:23:09.340Z</time>
      </trkpt>
      <trkpt lat="47.520274" lon="8.113829">
        <ele>526.151824</ele>
        <time>2021-11-22T10:23:20.655Z</time>
      </trkpt>
      <trkpt lat="47.520208" lon="8.113267">
        <ele>525.058628</ele>
        <time>2021-11-22T10:23:24.977Z</time>
      </trkpt>
      <trkpt lat="47.520107" lon="8.112529">
        <ele>522.675222</ele>
        <time>2021-11-22T10:23:30.044Z</time>
      </trkpt>
      <trkpt lat="47.519978" lon="8.111654">
        <ele>519.572908</ele>
        <time>2021-11-22T10:23:35.898Z</time>
      </trkpt>
      <trkpt lat="47.519903" lon="8.111141">
        <ele>517.754749</ele>
        <time>2021-11-22T10:23:39.173Z</time>
      </trkpt>
      <trkpt lat="47.519889" lon="8.110997">
        <ele>517.250800</ele>
        <time>2021-11-22T10:23:40.040Z</time>
      </trkpt>
      <trkpt lat="47.519853" lon="8.110730">
        <ele>516.307677</ele>
        <time>2021-11-22T10:23:41.710Z</time>
      </trkpt>
      <trkpt lat="47.519817" lon="8.110530">
        <ele>515.590704</ele>
        <time>2021-11-22T10:23:42.933Z</time>
      </trkpt>
      <trkpt lat="47.519621" lon="8.109743">
        <ele>510.521374</ele>
        <time>2021-11-22T10:23:47.930Z</time>
      </trkpt>
      <trkpt lat="47.519607" lon="8.109477">
        <ele>508.900233</ele>
        <time>2021-11-22T10:23:49.476Z</time>
      </trkpt>
      <trkpt lat="47.519653" lon="8.109157">
        <ele>506.912324</ele>
        <time>2021-11-22T10:23:51.398Z</time>
      </trkpt>
      <trkpt lat="47.520512" lon="8.107089">
        <ele>491.683952</ele>
        <time>2021-11-22T10:24:05.564Z</time>
      </trkpt>
      <trkpt lat="47.520667" lon="8.106525">
        <ele>487.739704</ele>
        <time>2021-11-22T10:24:09.113Z</time>
      </trkpt>
      <trkpt lat="47.520791" lon="8.105593">
        <ele>481.648814</ele>
        <time>2021-11-22T10:24:14.673Z</time>
      </trkpt>
      <trkpt lat="47.520926" lon="8.105058">
        <ele>478.380869</ele>
        <time>2021-11-22T10:24:18.014Z</time>
      </trkpt>
      <trkpt lat="47.521652" lon="8.103791">
        <ele>468.873221</ele>
        <time>2021-11-22T10:24:27.856Z</time>
      </trkpt>
      <trkpt lat="47.522068" lon="8.102727">
        <ele>462.198389</ele>
        <time>2021-11-22T10:24:35.313Z</time>
      </trkpt>
      <trkpt lat="47.522278" lon="8.102263">
        <ele>459.230534</ele>
        <time>2021-11-22T10:24:38.664Z</time>
      </trkpt>
      <trkpt lat="47.522538" lon="8.101680">
        <ele>455.518350</ele>
        <time>2021-11-22T10:24:42.804Z</time>
      </trkpt>
      <trkpt lat="47.522685" lon="8.101391">
        <ele>453.595955</ele>
        <time>2021-11-22T10:24:44.987Z</time>
      </trkpt>
      <trkpt lat="47.522770" lon="8.101280">
        <ele>452.699367</ele>
        <time>2021-11-22T10:24:45.962Z</time>
      </trkpt>
      <trkpt lat="47.522951" lon="8.101080">
        <ele>450.560144</ele>
        <time>2021-11-22T10:24:48.001Z</time>
      </trkpt>
      <trkpt lat="47.523070" lon="8.100979">
        <ele>449.260902</ele>
        <time>2021-11-22T10:24:49.189Z</time>
      </trkpt>
      <trkpt lat="47.524879" lon="8.099449">
        <ele>429.891183</ele>
        <time>2021-11-22T10:25:07.141Z</time>
      </trkpt>
      <trkpt lat="47.525047" lon="8.099283">
        <ele>428.091015</ele>
        <time>2021-11-22T10:25:08.904Z</time>
      </trkpt>
      <trkpt lat="47.525240" lon="8.099058">
        <ele>425.901649</ele>
        <time>2021-11-22T10:25:11.047Z</time>
      </trkpt>
      <trkpt lat="47.525342" lon="8.098906">
        <ele>424.611861</ele>
        <time>2021-11-22T10:25:12.331Z</time>
      </trkpt>
      <trkpt lat="47.526026" lon="8.097956">
        <ele>417.280817</ele>
        <time>2021-11-22T10:25:20.569Z</time>
      </trkpt>
      <trkpt lat="47.526470" lon="8.097487">
        <ele>413.886328</ele>
        <time>2021-11-22T10:25:25.545Z</time>
      </trkpt>
      <trkpt lat="47.526492" lon="8.097460">
        <ele>413.708487</ele>
        <time>2021-11-22T10:25:25.792Z</time>
      </trkpt>
      <trkpt lat="47.526839" lon="8.097051">
        <ele>410.948137</ele>
        <time>2021-11-22T10:25:29.912Z</time>
      </trkpt>
      <trkpt lat="47.527057" lon="8.096846">
        <ele>409.340836</ele>
        <time>2021-11-22T10:25:32.492Z</time>
      </trkpt>
      <trkpt lat="47.527143" lon="8.096799">
        <ele>408.770273</ele>
        <time>2021-11-22T10:25:33.297Z</time>
      </trkpt>
      <trkpt lat="47.527275" lon="8.096747">
        <ele>408.101934</ele>
        <time>2021-11-22T10:25:34.696Z</time>
      </trkpt>
      <trkpt lat="47.527399" lon="8.096712">
        <ele>407.579007</ele>
        <time>2021-11-22T10:25:35.953Z</time>
      </trkpt>
      <trkpt lat="47.527504" lon="8.096695">
        <ele>407.141445</ele>
        <time>2021-11-22T10:25:36.894Z</time>
      </trkpt>
      <trkpt lat="47.527851" lon="8.096625">
        <ele>405.690694</ele>
        <time>2021-11-22T10:25:40.228Z</time>
      </trkpt>
      <trkpt lat="47.527979" lon="8.096600">
        <ele>405.155852</ele>
        <time>2021-11-22T10:25:41.543Z</time>
      </trkpt>
      <trkpt lat="47.528218" lon="8.096523">
        <ele>404.142617</ele>
        <time>2021-11-22T10:25:43.871Z</time>
      </trkpt>
      <trkpt lat="47.528380" lon="8.096461">
        <ele>403.449473</ele>
        <time>2021-11-22T10:25:45.617Z</time>
      </trkpt>
      <trkpt lat="47.529047" lon="8.096183">
        <ele>400.606802</ele>
        <time>2021-11-22T10:25:52.509Z</time>
      </trkpt>
      <trkpt lat="47.531490" lon="8.095138">
        <ele>390.842190</ele>
        <time>2021-11-22T10:26:17.406Z</time>
      </trkpt>
      <trkpt lat="47.531870" lon="8.095086">
        <ele>389.405199</ele>
        <time>2021-11-22T10:26:21.219Z</time>
      </trkpt>
      <trkpt lat="47.532250" lon="8.095186">
        <ele>387.951892</ele>
        <time>2021-11-22T10:26:25.066Z</time>
      </trkpt>
      <trkpt lat="47.532487" lon="8.095310">
        <ele>386.974939</ele>
        <time>2021-11-22T10:26:27.557Z</time>
      </trkpt>
      <trkpt lat="47.532716" lon="8.095430">
        <ele>385.953243</ele>
        <time>2021-11-22T10:26:29.984Z</time>
      </trkpt>
      <trkpt lat="47.532730" lon="8.095437">
        <ele>385.891093</ele>
        <time>2021-11-22T10:26:30.127Z</time>
      </trkpt>
      <trkpt lat="47.532829" lon="8.095485">
        <ele>385.452950</ele>
        <time>2021-11-22T10:26:33.740Z</time>
      </trkpt>
      <trkpt lat="47.532951" lon="8.095543">
        <ele>384.914024</ele>
        <time>2021-11-22T10:26:35.007Z</time>
      </trkpt>
      <trkpt lat="47.533176" lon="8.095643">
        <ele>383.925970</ele>
        <time>2021-11-22T10:26:37.265Z</time>
      </trkpt>
      <trkpt lat="47.533524" lon="8.095757">
        <ele>382.426886</ele>
        <time>2021-11-22T10:26:40.592Z</time>
      </trkpt>
      <trkpt lat="47.533963" lon="8.095823">
        <ele>380.570936</ele>
        <time>2021-11-22T10:26:44.874Z</time>
      </trkpt>
      <trkpt lat="47.534255" lon="8.095777">
        <ele>379.423223</ele>
        <time>2021-11-22T10:26:47.753Z</time>
      </trkpt>
      <trkpt lat="47.534348" lon="8.095763">
        <ele>379.124203</ele>
        <time>2021-11-22T10:26:48.613Z</time>
      </trkpt>
      <trkpt lat="47.534413" lon="8.095755">
        <ele>378.915565</ele>
        <time>2021-11-22T10:26:49.184Z</time>
      </trkpt>
      <trkpt lat="47.534678" lon="8.095765">
        <ele>378.067611</ele>
        <time>2021-11-22T10:26:52.675Z</time>
      </trkpt>
      <trkpt lat="47.534747" lon="8.095771">
        <ele>377.846514</ele>
        <time>2021-11-22T10:26:53.250Z</time>
      </trkpt>
      <trkpt lat="47.535050" lon="8.095829">
        <ele>376.869221</ele>
        <time>2021-11-22T10:26:56.907Z</time>
      </trkpt>
      <trkpt lat="47.535376" lon="8.096094">
        <ele>375.679696</ele>
        <time>2021-11-22T10:27:00.593Z</time>
      </trkpt>
      <trkpt lat="47.535460" lon="8.096205">
        <ele>375.319609</ele>
        <time>2021-11-22T10:27:01.653Z</time>
      </trkpt>
      <trkpt lat="47.535585" lon="8.096371">
        <ele>374.782583</ele>
        <time>2021-11-22T10:27:03.775Z</time>
      </trkpt>
      <trkpt lat="47.535931" lon="8.096828">
        <ele>373.510636</ele>
        <time>2021-11-22T10:27:08.393Z</time>
      </trkpt>
      <trkpt lat="47.536133" lon="8.097123">
        <ele>372.898833</ele>
        <time>2021-11-22T10:27:12.804Z</time>
      </trkpt>
      <trkpt lat="47.536630" lon="8.097846">
        <ele>371.396438</ele>
        <time>2021-11-22T10:27:20.905Z</time>
      </trkpt>
      <trkpt lat="47.537252" lon="8.098601">
        <ele>369.385997</ele>
        <time>2021-11-22T10:27:29.203Z</time>
      </trkpt>
      <trkpt lat="47.537638" lon="8.098927">
        <ele>367.776078</ele>
        <time>2021-11-22T10:27:33.578Z</time>
      </trkpt>
      <trkpt lat="47.537844" lon="8.099067">
        <ele>366.954888</ele>
        <time>2021-11-22T10:27:35.807Z</time>
      </trkpt>
      <trkpt lat="47.538419" lon="8.099234">
        <ele>364.831874</ele>
        <time>2021-11-22T10:27:41.601Z</time>
      </trkpt>
      <trkpt lat="47.538521" lon="8.099232">
        <ele>364.462274</ele>
        <time>2021-11-22T10:27:42.577Z</time>
      </trkpt>
      <trkpt lat="47.538655" lon="8.099217">
        <ele>363.975380</ele>
        <time>2021-11-22T10:27:43.862Z</time>
      </trkpt>
      <trkpt lat="47.538959" lon="8.099139">
        <ele>362.982030</ele>
        <time>2021-11-22T10:27:46.901Z</time>
      </trkpt>
      <trkpt lat="47.539852" lon="8.098671">
        <ele>360.165984</ele>
        <time>2021-11-22T10:27:56.491Z</time>
      </trkpt>
      <trkpt lat="47.540568" lon="8.098437">
        <ele>358.036641</ele>
        <time>2021-11-22T10:28:04.488Z</time>
      </trkpt>
      <trkpt lat="47.540794" lon="8.098369">
        <ele>357.509793</ele>
        <time>2021-11-22T10:28:07.015Z</time>
      </trkpt>
      <trkpt lat="47.541022" lon="8.098264">
        <ele>356.964327</ele>
        <time>2021-11-22T10:28:09.551Z</time>
      </trkpt>
      <trkpt lat="47.541294" lon="8.098103">
        <ele>356.295163</ele>
        <time>2021-11-22T10:28:12.567Z</time>
      </trkpt>
      <trkpt lat="47.541736" lon="8.097846">
        <ele>355.210397</ele>
        <time>2021-11-22T10:28:17.410Z</time>
      </trkpt>
      <trkpt lat="47.541891" lon="8.097778">
        <ele>354.841092</ele>
        <time>2021-11-22T10:28:19.124Z</time>
      </trkpt>
      <trkpt lat="47.541972" lon="8.097739">
        <ele>354.646515</ele>
        <time>2021-11-22T10:28:20.007Z</time>
      </trkpt>
      <trkpt lat="47.542782" lon="8.097415">
        <ele>353.787095</ele>
        <time>2021-11-22T10:28:30.277Z</time>
      </trkpt>
      <trkpt lat="47.543428" lon="8.096918">
        <ele>353.412073</ele>
        <time>2021-11-22T10:28:40.282Z</time>
      </trkpt>
      <trkpt lat="47.543978" lon="8.096443">
        <ele>353.156543</ele>
        <time>2021-11-22T10:28:49.664Z</time>
      </trkpt>
      <trkpt lat="47.544419" lon="8.096063">
        <ele>353.119813</ele>
        <time>2021-11-22T10:28:59.046Z</time>
      </trkpt>
      <trkpt lat="47.544594" lon="8.095912">
        <ele>353.105233</ele>
        <time>2021-11-22T10:29:02.909Z</time>
      </trkpt>
      <trkpt lat="47.545126" lon="8.095450">
        <ele>353.060835</ele>
        <time>2021-11-22T10:29:12.827Z</time>
      </trkpt>
      <trkpt lat="47.545895" lon="8.094509">
        <ele>350.922956</ele>
        <time>2021-11-22T10:29:23.811Z</time>
      </trkpt>
      <trkpt lat="47.546338" lon="8.093908">
        <ele>349.085297</ele>
        <time>2021-11-22T10:29:29.774Z</time>
      </trkpt>
      <trkpt lat="47.546508" lon="8.093680">
        <ele>348.383762</ele>
        <time>2021-11-22T10:29:32.011Z</time>
      </trkpt>
      <trkpt lat="47.546922" lon="8.093131">
        <ele>346.317532</ele>
        <time>2021-11-22T10:29:37.381Z</time>
      </trkpt>
      <trkpt lat="47.547048" lon="8.092964">
        <ele>345.577961</ele>
        <time>2021-11-22T10:29:38.969Z</time>
      </trkpt>
      <trkpt lat="47.547127" lon="8.092859">
        <ele>345.113684</ele>
        <time>2021-11-22T10:29:39.994Z</time>
      </trkpt>
      <trkpt lat="47.547403" lon="8.092513">
        <ele>343.532075</ele>
        <time>2021-11-22T10:29:43.461Z</time>
      </trkpt>
      <trkpt lat="47.547479" lon="8.092413">
        <ele>343.087421</ele>
        <time>2021-11-22T10:29:44.459Z</time>
      </trkpt>
      <trkpt lat="47.547688" lon="8.092136">
        <ele>341.860695</ele>
        <time>2021-11-22T10:29:47.126Z</time>
      </trkpt>
      <trkpt lat="47.548109" lon="8.091607">
        <ele>339.572347</ele>
        <time>2021-11-22T10:29:52.350Z</time>
      </trkpt>
      <trkpt lat="47.548580" lon="8.090994">
        <ele>338.391110</ele>
        <time>2021-11-22T10:29:58.679Z</time>
      </trkpt>
      <trkpt lat="47.548932" lon="8.090552">
        <ele>337.521717</ele>
        <time>2021-11-22T10:30:03.921Z</time>
      </trkpt>
      <trkpt lat="47.549330" lon="8.090206">
        <ele>336.652250</ele>
        <time>2021-11-22T10:30:10.001Z</time>
      </trkpt>
      <trkpt lat="47.549689" lon="8.090023">
        <ele>336.539161</ele>
        <time>2021-11-22T10:30:15.967Z</time>
      </trkpt>
      <trkpt lat="47.549751" lon="8.090009">
        <ele>336.628970</ele>
        <time>2021-11-22T10:30:16.758Z</time>
      </trkpt>
      <trkpt lat="47.550176" lon="8.089890">
        <ele>337.248344</ele>
        <time>2021-11-22T10:30:24.906Z</time>
      </trkpt>
      <trkpt lat="47.550657" lon="8.089793">
        <ele>337.943489</ele>
        <time>2021-11-22T10:30:36.212Z</time>
      </trkpt>
      <trkpt lat="47.551496" lon="8.089843">
        <ele>338.764908</ele>
        <time>2021-11-22T10:30:56.026Z</time>
      </trkpt>
      <trkpt lat="47.552086" lon="8.089915">
        <ele>338.503289</ele>
        <time>2021-11-22T10:31:08.771Z</time>
      </trkpt>
      <trkpt lat="47.553684" lon="8.090132">
        <ele>334.323971</ele>
        <time>2021-11-22T10:31:26.115Z</time>
      </trkpt>
      <trkpt lat="47.554025" lon="8.090156">
        <ele>332.203168</ele>
        <time>2021-11-22T10:31:29.242Z</time>
      </trkpt>
      <trkpt lat="47.554276" lon="8.090130">
        <ele>330.640061</ele>
        <time>2021-11-22T10:31:31.446Z</time>
      </trkpt>
      <trkpt lat="47.554514" lon="8.090062">
        <ele>329.134283</ele>
        <time>2021-11-22T10:31:33.570Z</time>
      </trkpt>
      <trkpt lat="47.554750" lon="8.089964">
        <ele>327.611681</ele>
        <time>2021-11-22T10:31:35.721Z</time>
      </trkpt>
      <trkpt lat="47.554777" lon="8.090048">
        <ele>327.221596</ele>
        <time>2021-11-22T10:31:36.482Z</time>
      </trkpt>
      <trkpt lat="47.554799" lon="8.090151">
        <ele>326.734474</ele>
        <time>2021-11-22T10:31:37.336Z</time>
      </trkpt>
      <trkpt lat="47.554832" lon="8.090226">
        <ele>326.249876</ele>
        <time>2021-11-22T10:31:38.068Z</time>
      </trkpt>
      <trkpt lat="47.554885" lon="8.090276">
        <ele>325.745976</ele>
        <time>2021-11-22T10:31:38.820Z</time>
      </trkpt>
      <trkpt lat="47.555031" lon="8.090308">
        <ele>324.562315</ele>
        <time>2021-11-22T10:31:40.719Z</time>
      </trkpt>
      <trkpt lat="47.555112" lon="8.090313">
        <ele>323.912132</ele>
        <time>2021-11-22T10:31:41.660Z</time>
      </trkpt>
      <trkpt lat="47.555198" lon="8.090321">
        <ele>323.221054</ele>
        <time>2021-11-22T10:31:42.688Z</time>
      </trkpt>
      <trkpt lat="47.555337" lon="8.090325">
        <ele>322.106064</ele>
        <time>2021-11-22T10:31:44.450Z</time>
      </trkpt>
      <trkpt lat="47.555380" lon="8.090319">
        <ele>321.759678</ele>
        <time>2021-11-22T10:31:44.991Z</time>
      </trkpt>
      <trkpt lat="47.555442" lon="8.090309">
        <ele>321.259501</ele>
        <time>2021-11-22T10:31:45.716Z</time>
      </trkpt>
      <trkpt lat="47.555709" lon="8.090186">
        <ele>319.017059</ele>
        <time>2021-11-22T10:31:49.217Z</time>
      </trkpt>
      <trkpt lat="47.555814" lon="8.090101">
        <ele>318.057482</ele>
        <time>2021-11-22T10:31:50.670Z</time>
      </trkpt>
      <trkpt lat="47.555958" lon="8.089981">
        <ele>316.732495</ele>
        <time>2021-11-22T10:31:52.149Z</time>
      </trkpt>
      <trkpt lat="47.556049" lon="8.089894">
        <ele>315.863951</ele>
        <time>2021-11-22T10:31:53.200Z</time>
      </trkpt>
      <trkpt lat="47.556110" lon="8.089809">
        <ele>315.192394</ele>
        <time>2021-11-22T10:31:53.921Z</time>
      </trkpt>
      <trkpt lat="47.556137" lon="8.089730">
        <ele>314.713106</ele>
        <time>2021-11-22T10:31:54.496Z</time>
      </trkpt>
      <trkpt lat="47.556151" lon="8.089459">
        <ele>313.242045</ele>
        <time>2021-11-22T10:31:56.304Z</time>
      </trkpt>
      <trkpt lat="47.556111" lon="8.089266">
        <ele>312.434739</ele>
        <time>2021-11-22T10:31:57.478Z</time>
      </trkpt>
      <trkpt lat="47.556065" lon="8.089084">
        <ele>312.346240</ele>
        <time>2021-11-22T10:31:58.741Z</time>
      </trkpt>
      <trkpt lat="47.555997" lon="8.088801">
        <ele>312.209446</ele>
        <time>2021-11-22T10:32:00.705Z</time>
      </trkpt>
      <trkpt lat="47.555991" lon="8.088778">
        <ele>312.198217</ele>
        <time>2021-11-22T10:32:00.934Z</time>
      </trkpt>
      <trkpt lat="47.555975" lon="8.088708">
        <ele>312.164563</ele>
        <time>2021-11-22T10:32:01.421Z</time>
      </trkpt>
      <trkpt lat="47.555946" lon="8.088583">
        <ele>312.104372</ele>
        <time>2021-11-22T10:32:02.415Z</time>
      </trkpt>
      <trkpt lat="47.555939" lon="8.088552">
        <ele>312.089486</ele>
        <time>2021-11-22T10:32:02.941Z</time>
      </trkpt>
      <trkpt lat="47.555887" lon="8.088299">
        <ele>311.969053</ele>
        <time>2021-11-22T10:32:05.123Z</time>
      </trkpt>
      <trkpt lat="47.555829" lon="8.087941">
        <ele>311.801398</ele>
        <time>2021-11-22T10:32:08.387Z</time>
      </trkpt>
      <trkpt lat="47.555809" lon="8.087783">
        <ele>311.728194</ele>
        <time>2021-11-22T10:32:10.190Z</time>
      </trkpt>
      <trkpt lat="47.555780" lon="8.087557">
        <ele>311.623436</ele>
        <time>2021-11-22T10:32:12.273Z</time>
      </trkpt>
      <trkpt lat="47.555737" lon="8.087083">
        <ele>311.405648</ele>
        <time>2021-11-22T10:32:19.980Z</time>
      </trkpt>
      <trkpt lat="47.555733" lon="8.086819">
        <ele>311.285399</ele>
        <time>2021-11-22T10:32:25.034Z</time>
      </trkpt>
      <trkpt lat="47.555764" lon="8.085769">
        <ele>314.034337</ele>
        <time>2021-11-22T10:32:46.870Z</time>
      </trkpt>
      <trkpt lat="47.555899" lon="8.084472">
        <ele>317.815162</ele>
        <time>2021-11-22T10:33:16.281Z</time>
      </trkpt>
      <trkpt lat="47.555956" lon="8.084115">
        <ele>318.872065</ele>
        <time>2021-11-22T10:33:25.035Z</time>
      </trkpt>
      <trkpt lat="47.556083" lon="8.083354">
        <ele>321.573091</ele>
        <time>2021-11-22T10:33:43.233Z</time>
      </trkpt>
      <trkpt lat="47.556470" lon="8.081563">
        <ele>328.078385</ele>
        <time>2021-11-22T10:34:29.962Z</time>
      </trkpt>
      <trkpt lat="47.556853" lon="8.080477">
        <ele>330.758115</ele>
        <time>2021-11-22T10:34:56.035Z</time>
      </trkpt>
      <trkpt lat="47.557099" lon="8.079786">
        <ele>332.450741</ele>
        <time>2021-11-22T10:35:10.360Z</time>
      </trkpt>
      <trkpt lat="47.557256" lon="8.079416">
        <ele>333.397653</ele>
        <time>2021-11-22T10:35:17.080Z</time>
      </trkpt>
      <trkpt lat="47.557793" lon="8.078299">
        <ele>333.495173</ele>
        <time>2021-11-22T10:35:33.381Z</time>
      </trkpt>
      <trkpt lat="47.558613" lon="8.076826">
        <ele>332.510078</ele>
        <time>2021-11-22T10:35:47.945Z</time>
      </trkpt>
      <trkpt lat="47.559046" lon="8.076086">
        <ele>331.440871</ele>
        <time>2021-11-22T10:35:55.325Z</time>
      </trkpt>
      <trkpt lat="47.559426" lon="8.075372">
        <ele>330.448204</ele>
        <time>2021-11-22T10:36:02.322Z</time>
      </trkpt>
      <trkpt lat="47.559811" lon="8.074398">
        <ele>329.264784</ele>
        <time>2021-11-22T10:36:11.216Z</time>
      </trkpt>
      <trkpt lat="47.560318" lon="8.072316">
        <ele>326.867489</ele>
        <time>2021-11-22T10:36:28.488Z</time>
      </trkpt>
      <trkpt lat="47.560524" lon="8.071179">
        <ele>325.106574</ele>
        <time>2021-11-22T10:36:37.054Z</time>
      </trkpt>
      <trkpt lat="47.560553" lon="8.071099">
        <ele>324.970740</ele>
        <time>2021-11-22T10:36:37.665Z</time>
      </trkpt>
      <trkpt lat="47.560584" lon="8.070919">
        <ele>324.692873</ele>
        <time>2021-11-22T10:36:38.975Z</time>
      </trkpt>
      <trkpt lat="47.560739" lon="8.070551">
        <ele>324.044012</ele>
        <time>2021-11-22T10:36:42.062Z</time>
      </trkpt>
      <trkpt lat="47.560864" lon="8.070015">
        <ele>323.225430</ele>
        <time>2021-11-22T10:36:46.084Z</time>
      </trkpt>
      <trkpt lat="47.560904" lon="8.069780">
        <ele>322.974452</ele>
        <time>2021-11-22T10:36:47.829Z</time>
      </trkpt>
      <trkpt lat="47.560998" lon="8.069237">
        <ele>322.393936</ele>
        <time>2021-11-22T10:36:51.909Z</time>
      </trkpt>
      <trkpt lat="47.561130" lon="8.068650">
        <ele>321.753202</ele>
        <time>2021-11-22T10:36:56.579Z</time>
      </trkpt>
      <trkpt lat="47.561187" lon="8.068256">
        <ele>321.335924</ele>
        <time>2021-11-22T10:36:59.854Z</time>
      </trkpt>
      <trkpt lat="47.561229" lon="8.067903">
        <ele>320.964735</ele>
        <time>2021-11-22T10:37:02.892Z</time>
      </trkpt>
      <trkpt lat="47.561265" lon="8.067435">
        <ele>320.529212</ele>
        <time>2021-11-22T10:37:06.874Z</time>
      </trkpt>
      <trkpt lat="47.561276" lon="8.067022">
        <ele>320.507556</ele>
        <time>2021-11-22T10:37:10.791Z</time>
      </trkpt>
      <trkpt lat="47.561253" lon="8.066385">
        <ele>320.474132</ele>
        <time>2021-11-22T10:37:17.306Z</time>
      </trkpt>
      <trkpt lat="47.561108" lon="8.065242">
        <ele>320.413195</ele>
        <time>2021-11-22T10:37:29.672Z</time>
      </trkpt>
      <trkpt lat="47.561017" lon="8.064820">
        <ele>320.372445</ele>
        <time>2021-11-22T10:37:34.312Z</time>
      </trkpt>
      <trkpt lat="47.560887" lon="8.064271">
        <ele>320.115169</ele>
        <time>2021-11-22T10:37:39.512Z</time>
      </trkpt>
      <trkpt lat="47.560806" lon="8.064037">
        <ele>319.998877</ele>
        <time>2021-11-22T10:37:41.779Z</time>
      </trkpt>
      <trkpt lat="47.560719" lon="8.063873">
        <ele>319.906631</ele>
        <time>2021-11-22T10:37:43.562Z</time>
      </trkpt>
      <trkpt lat="47.560392" lon="8.063300">
        <ele>319.574795</ele>
        <time>2021-11-22T10:37:49.863Z</time>
      </trkpt>
      <trkpt lat="47.560335" lon="8.063169">
        <ele>319.505869</ele>
        <time>2021-11-22T10:37:51.206Z</time>
      </trkpt>
      <trkpt lat="47.560443" lon="8.063042">
        <ele>319.415523</ele>
        <time>2021-11-22T10:37:52.875Z</time>
      </trkpt>
      <trkpt lat="47.560509" lon="8.062969">
        <ele>319.361556</ele>
        <time>2021-11-22T10:37:53.890Z</time>
      </trkpt>
      <trkpt lat="47.560545" lon="8.062928">
        <ele>319.331804</ele>
        <time>2021-11-22T10:37:54.442Z</time>
      </trkpt>
      <trkpt lat="47.560580" lon="8.062890">
        <ele>319.303372</ele>
        <time>2021-11-22T10:37:54.977Z</time>
      </trkpt>
      <trkpt lat="47.560673" lon="8.062786">
        <ele>319.227025</ele>
        <time>2021-11-22T10:37:57.048Z</time>
      </trkpt>
      <trkpt lat="47.560765" lon="8.062729">
        <ele>319.153926</ele>
        <time>2021-11-22T10:37:58.806Z</time>
      </trkpt>
      <trkpt lat="47.560570" lon="8.061926">
        <ele>318.720295</ele>
        <time>2021-11-22T10:38:06.156Z</time>
      </trkpt>
      <trkpt lat="47.560335" lon="8.060984">
        <ele>318.209989</ele>
        <time>2021-11-22T10:38:14.486Z</time>
      </trkpt>
      <trkpt lat="47.560293" lon="8.060828">
        <ele>318.124647</ele>
        <time>2021-11-22T10:38:15.916Z</time>
      </trkpt>
      <trkpt lat="47.560262" lon="8.060729">
        <ele>318.069192</ele>
        <time>2021-11-22T10:38:16.871Z</time>
      </trkpt>
      <trkpt lat="47.560130" lon="8.060196">
        <ele>317.827611</ele>
        <time>2021-11-22T10:38:22.070Z</time>
      </trkpt>
      <trkpt lat="47.560069" lon="8.059943">
        <ele>317.772486</ele>
        <time>2021-11-22T10:38:24.483Z</time>
      </trkpt>
      <trkpt lat="47.560040" lon="8.059827">
        <ele>317.747105</ele>
        <time>2021-11-22T10:38:25.699Z</time>
      </trkpt>
      <trkpt lat="47.560019" lon="8.059741">
        <ele>317.728339</ele>
        <time>2021-11-22T10:38:26.589Z</time>
      </trkpt>
      <trkpt lat="47.559979" lon="8.059591">
        <ele>317.695247</ele>
        <time>2021-11-22T10:38:28.051Z</time>
      </trkpt>
      <trkpt lat="47.559859" lon="8.059093">
        <ele>317.586748</ele>
        <time>2021-11-22T10:38:33.073Z</time>
      </trkpt>
      <trkpt lat="47.559725" lon="8.058554">
        <ele>317.468889</ele>
        <time>2021-11-22T10:38:38.483Z</time>
      </trkpt>
      <trkpt lat="47.559654" lon="8.058257">
        <ele>317.404240</ele>
        <time>2021-11-22T10:38:41.434Z</time>
      </trkpt>
      <trkpt lat="47.559579" lon="8.057955">
        <ele>317.338212</ele>
        <time>2021-11-22T10:38:44.339Z</time>
      </trkpt>
      <trkpt lat="47.559566" lon="8.057904">
        <ele>317.327026</ele>
        <time>2021-11-22T10:38:44.860Z</time>
      </trkpt>
      <trkpt lat="47.559548" lon="8.057827">
        <ele>317.311162</ele>
        <time>2021-11-22T10:38:45.634Z</time>
      </trkpt>
      <trkpt lat="47.559447" lon="8.057490">
        <ele>317.265005</ele>
        <time>2021-11-22T10:38:49.062Z</time>
      </trkpt>
      <trkpt lat="47.559294" lon="8.057130">
        <ele>317.211750</ele>
        <time>2021-11-22T10:38:53.201Z</time>
      </trkpt>
      <trkpt lat="47.559116" lon="8.056760">
        <ele>317.154871</ele>
        <time>2021-11-22T10:38:57.639Z</time>
      </trkpt>
      <trkpt lat="47.558662" lon="8.056061">
        <ele>317.033431</ele>
        <time>2021-11-22T10:39:06.976Z</time>
      </trkpt>
      <trkpt lat="47.558447" lon="8.055831">
        <ele>316.984243</ele>
        <time>2021-11-22T10:39:10.508Z</time>
      </trkpt>
      <trkpt lat="47.558239" lon="8.055639">
        <ele>316.985299</ele>
        <time>2021-11-22T10:39:14.190Z</time>
      </trkpt>
      <trkpt lat="47.558012" lon="8.055477">
        <ele>316.992801</ele>
        <time>2021-11-22T10:39:17.834Z</time>
      </trkpt>
      <trkpt lat="47.557918" lon="8.055409">
        <ele>316.995915</ele>
        <time>2021-11-22T10:39:19.632Z</time>
      </trkpt>
      <trkpt lat="47.557710" lon="8.055283">
        <ele>317.002606</ele>
        <time>2021-11-22T10:39:22.997Z</time>
      </trkpt>
      <trkpt lat="47.557500" lon="8.055133">
        <ele>317.009547</ele>
        <time>2021-11-22T10:39:26.822Z</time>
      </trkpt>
      <trkpt lat="47.557273" lon="8.054941">
        <ele>317.017329</ele>
        <time>2021-11-22T10:39:31.062Z</time>
      </trkpt>
      <trkpt lat="47.557097" lon="8.054768">
        <ele>317.023617</ele>
        <time>2021-11-22T10:39:34.026Z</time>
      </trkpt>
      <trkpt lat="47.557019" lon="8.054678">
        <ele>317.026560</ele>
        <time>2021-11-22T10:39:35.832Z</time>
      </trkpt>
      <trkpt lat="47.556494" lon="8.054073">
        <ele>317.040824</ele>
        <time>2021-11-22T10:39:44.683Z</time>
      </trkpt>
      <trkpt lat="47.556239" lon="8.053780">
        <ele>317.046615</ele>
        <time>2021-11-22T10:39:49.089Z</time>
      </trkpt>
      <trkpt lat="47.556032" lon="8.053510">
        <ele>317.051565</ele>
        <time>2021-11-22T10:39:53.313Z</time>
      </trkpt>
      <trkpt lat="47.555890" lon="8.053286">
        <ele>317.055288</ele>
        <time>2021-11-22T10:39:56.950Z</time>
      </trkpt>
      <trkpt lat="47.555773" lon="8.053070">
        <ele>317.058643</ele>
        <time>2021-11-22T10:39:59.891Z</time>
      </trkpt>
      <trkpt lat="47.555603" lon="8.052757">
        <ele>317.063509</ele>
        <time>2021-11-22T10:40:04.113Z</time>
      </trkpt>
      <trkpt lat="47.555259" lon="8.052135">
        <ele>317.548388</ele>
        <time>2021-11-22T10:40:12.810Z</time>
      </trkpt>
      <trkpt lat="47.554988" lon="8.051475">
        <ele>318.077824</ele>
        <time>2021-11-22T10:40:21.801Z</time>
      </trkpt>
      <trkpt lat="47.554715" lon="8.050527">
        <ele>318.784167</ele>
        <time>2021-11-22T10:40:36.591Z</time>
      </trkpt>
      <trkpt lat="47.554412" lon="8.049127">
        <ele>320.596452</ele>
        <time>2021-11-22T10:40:59.152Z</time>
      </trkpt>
      <trkpt lat="47.554309" lon="8.048719">
        <ele>321.161727</ele>
        <time>2021-11-22T10:41:06.169Z</time>
      </trkpt>
      <trkpt lat="47.553996" lon="8.047557">
        <ele>322.463061</ele>
        <time>2021-11-22T10:41:25.399Z</time>
      </trkpt>
      <trkpt lat="47.553619" lon="8.046372">
        <ele>322.906053</ele>
        <time>2021-11-22T10:41:41.836Z</time>
      </trkpt>
      <trkpt lat="47.552844" lon="8.044355">
        <ele>321.906311</ele>
        <time>2021-11-22T10:42:01.765Z</time>
      </trkpt>
      <trkpt lat="47.551627" lon="8.041127">
        <ele>317.053879</ele>
        <time>2021-11-22T10:42:28.518Z</time>
      </trkpt>
      <trkpt lat="47.551167" lon="8.039905">
        <ele>315.850434</ele>
        <time>2021-11-22T10:42:39.149Z</time>
      </trkpt>
      <trkpt lat="47.551001" lon="8.039426">
        <ele>315.489902</ele>
        <time>2021-11-22T10:42:43.504Z</time>
      </trkpt>
      <trkpt lat="47.550515" lon="8.038174">
        <ele>314.974489</ele>
        <time>2021-11-22T10:42:57.207Z</time>
      </trkpt>
      <trkpt lat="47.550424" lon="8.037956">
        <ele>315.102511</ele>
        <time>2021-11-22T10:43:00.178Z</time>
      </trkpt>
      <trkpt lat="47.550111" lon="8.037123">
        <ele>315.578688</ele>
        <time>2021-11-22T10:43:12.545Z</time>
      </trkpt>
      <trkpt lat="47.549832" lon="8.036349">
        <ele>316.016948</ele>
        <time>2021-11-22T10:43:23.828Z</time>
      </trkpt>
      <trkpt lat="47.549753" lon="8.036077">
        <ele>316.143878</ele>
        <time>2021-11-22T10:43:27.600Z</time>
      </trkpt>
      <trkpt lat="47.549699" lon="8.035900">
        <ele>316.202017</ele>
        <time>2021-11-22T10:43:29.933Z</time>
      </trkpt>
      <trkpt lat="47.549632" lon="8.035633">
        <ele>316.287278</ele>
        <time>2021-11-22T10:43:33.250Z</time>
      </trkpt>
      <trkpt lat="47.549554" lon="8.035288">
        <ele>316.396180</ele>
        <time>2021-11-22T10:43:37.542Z</time>
      </trkpt>
      <trkpt lat="47.549494" lon="8.034935">
        <ele>316.505137</ele>
        <time>2021-11-22T10:43:42.000Z</time>
      </trkpt>
      <trkpt lat="47.549442" lon="8.034584">
        <ele>316.612697</ele>
        <time>2021-11-22T10:43:45.404Z</time>
      </trkpt>
      <trkpt lat="47.549395" lon="8.034029">
        <ele>316.780119</ele>
        <time>2021-11-22T10:43:51.466Z</time>
      </trkpt>
      <trkpt lat="47.549394" lon="8.034003">
        <ele>316.787913</ele>
        <time>2021-11-22T10:43:52.942Z</time>
      </trkpt>
      <trkpt lat="47.549386" lon="8.033799">
        <ele>316.849077</ele>
        <time>2021-11-22T10:43:54.474Z</time>
      </trkpt>
      <trkpt lat="47.549374" lon="8.033423">
        <ele>316.907688</ele>
        <time>2021-11-22T10:43:58.989Z</time>
      </trkpt>
      <trkpt lat="47.549363" lon="8.032869">
        <ele>316.899789</ele>
        <time>2021-11-22T10:44:04.150Z</time>
      </trkpt>
      <trkpt lat="47.549368" lon="8.032544">
        <ele>316.895155</ele>
        <time>2021-11-22T10:44:06.747Z</time>
      </trkpt>
      <trkpt lat="47.549372" lon="8.031883">
        <ele>316.885734</ele>
        <time>2021-11-22T10:44:13.765Z</time>
      </trkpt>
      <trkpt lat="47.549378" lon="8.030790">
        <ele>316.913121</ele>
        <time>2021-11-22T10:44:24.426Z</time>
      </trkpt>
      <trkpt lat="47.549380" lon="8.030702">
        <ele>316.938709</ele>
        <time>2021-11-22T10:44:25.265Z</time>
      </trkpt>
      <trkpt lat="47.549418" lon="8.028906">
        <ele>317.460883</ele>
        <time>2021-11-22T10:44:45.973Z</time>
      </trkpt>
      <trkpt lat="47.549431" lon="8.028306">
        <ele>317.635333</ele>
        <time>2021-11-22T10:44:52.718Z</time>
      </trkpt>
      <trkpt lat="47.549445" lon="8.027599">
        <ele>317.916104</ele>
        <time>2021-11-22T10:45:00.895Z</time>
      </trkpt>
      <trkpt lat="47.549454" lon="8.027138">
        <ele>318.102014</ele>
        <time>2021-11-22T10:45:06.420Z</time>
      </trkpt>
      <trkpt lat="47.549436" lon="8.026046">
        <ele>318.542339</ele>
        <time>2021-11-22T10:45:19.704Z</time>
      </trkpt>
      <trkpt lat="47.549322" lon="8.024323">
        <ele>318.775862</ele>
        <time>2021-11-22T10:45:38.309Z</time>
      </trkpt>
      <trkpt lat="47.549268" lon="8.023385">
        <ele>318.816101</ele>
        <time>2021-11-22T10:45:47.756Z</time>
      </trkpt>
      <trkpt lat="47.549201" lon="8.022146">
        <ele>318.381918</ele>
        <time>2021-11-22T10:45:58.973Z</time>
      </trkpt>
      <trkpt lat="47.549191" lon="8.021436">
        <ele>317.984040</ele>
        <time>2021-11-22T10:46:04.940Z</time>
      </trkpt>
      <trkpt lat="47.549186" lon="8.021006">
        <ele>317.743089</ele>
        <time>2021-11-22T10:46:08.524Z</time>
      </trkpt>
      <trkpt lat="47.549208" lon="8.019997">
        <ele>317.041931</ele>
        <time>2021-11-22T10:46:16.758Z</time>
      </trkpt>
      <trkpt lat="47.549261" lon="8.017878">
        <ele>314.873078</ele>
        <time>2021-11-22T10:46:32.880Z</time>
      </trkpt>
      <trkpt lat="47.549256" lon="8.017769">
        <ele>314.761333</ele>
        <time>2021-11-22T10:46:33.744Z</time>
      </trkpt>
      <trkpt lat="47.549291" lon="8.017761">
        <ele>314.707667</ele>
        <time>2021-11-22T10:46:34.141Z</time>
      </trkpt>
      <trkpt lat="47.549324" lon="8.017738">
        <ele>314.652402</ele>
        <time>2021-11-22T10:46:34.530Z</time>
      </trkpt>
      <trkpt lat="47.549351" lon="8.017702">
        <ele>314.600824</ele>
        <time>2021-11-22T10:46:34.933Z</time>
      </trkpt>
      <trkpt lat="47.549370" lon="8.017656">
        <ele>314.555910</ele>
        <time>2021-11-22T10:46:35.392Z</time>
      </trkpt>
      <trkpt lat="47.549379" lon="8.017603">
        <ele>314.510395</ele>
        <time>2021-11-22T10:46:35.798Z</time>
      </trkpt>
      <trkpt lat="47.549377" lon="8.017547">
        <ele>314.463692</ele>
        <time>2021-11-22T10:46:36.355Z</time>
      </trkpt>
      <trkpt lat="47.549310" lon="8.017418">
        <ele>314.328133</ele>
        <time>2021-11-22T10:46:37.702Z</time>
      </trkpt>
      <trkpt lat="47.549274" lon="8.017401">
        <ele>314.281512</ele>
        <time>2021-11-22T10:46:38.184Z</time>
      </trkpt>
      <trkpt lat="47.549281" lon="8.017304">
        <ele>314.200268</ele>
        <time>2021-11-22T10:46:38.899Z</time>
      </trkpt>
      <trkpt lat="47.549431" lon="8.015998">
        <ele>313.096975</ele>
        <time>2021-11-22T10:46:49.644Z</time>
      </trkpt>
      <trkpt lat="47.549589" lon="8.015316">
        <ele>312.496469</ele>
        <time>2021-11-22T10:46:55.488Z</time>
      </trkpt>
      <trkpt lat="47.549795" lon="8.014667">
        <ele>311.819235</ele>
        <time>2021-11-22T10:47:01.303Z</time>
      </trkpt>
      <trkpt lat="47.549871" lon="8.014427">
        <ele>311.562975</ele>
        <time>2021-11-22T10:47:03.438Z</time>
      </trkpt>
      <trkpt lat="47.550001" lon="8.014034">
        <ele>311.139911</ele>
        <time>2021-11-22T10:47:06.827Z</time>
      </trkpt>
      <trkpt lat="47.550565" lon="8.012461">
        <ele>309.667476</ele>
        <time>2021-11-22T10:47:20.434Z</time>
      </trkpt>
      <trkpt lat="47.550764" lon="8.011985">
        <ele>309.461454</ele>
        <time>2021-11-22T10:47:24.933Z</time>
      </trkpt>
      <trkpt lat="47.551187" lon="8.011080">
        <ele>309.056409</ele>
        <time>2021-11-22T10:47:35.051Z</time>
      </trkpt>
      <trkpt lat="47.551275" lon="8.010934">
        <ele>308.984386</ele>
        <time>2021-11-22T10:47:36.861Z</time>
      </trkpt>
      <trkpt lat="47.551902" lon="8.009884">
        <ele>309.554211</ele>
        <time>2021-11-22T10:47:53.815Z</time>
      </trkpt>
      <trkpt lat="47.552604" lon="8.008677">
        <ele>310.680651</ele>
        <time>2021-11-22T10:48:16.296Z</time>
      </trkpt>
      <trkpt lat="47.552640" lon="8.008615">
        <ele>310.720209</ele>
        <time>2021-11-22T10:48:17.881Z</time>
      </trkpt>
      <trkpt lat="47.552935" lon="8.007851">
        <ele>310.544758</ele>
        <time>2021-11-22T10:48:27.480Z</time>
      </trkpt>
      <trkpt lat="47.553173" lon="8.006642">
        <ele>310.293725</ele>
        <time>2021-11-22T10:48:38.283Z</time>
      </trkpt>
      <trkpt lat="47.553211" lon="8.006270">
        <ele>310.218730</ele>
        <time>2021-11-22T10:48:41.496Z</time>
      </trkpt>
      <trkpt lat="47.553220" lon="8.006182">
        <ele>310.200988</ele>
        <time>2021-11-22T10:48:42.087Z</time>
      </trkpt>
      <trkpt lat="47.553251" lon="8.005657">
        <ele>310.039456</ele>
        <time>2021-11-22T10:48:46.335Z</time>
      </trkpt>
      <trkpt lat="47.553256" lon="8.004837">
        <ele>309.780879</ele>
        <time>2021-11-22T10:48:53.260Z</time>
      </trkpt>
      <trkpt lat="47.553266" lon="8.003502">
        <ele>309.359895</ele>
        <time>2021-11-22T10:49:05.847Z</time>
      </trkpt>
      <trkpt lat="47.553270" lon="8.002465">
        <ele>309.921331</ele>
        <time>2021-11-22T10:49:18.518Z</time>
      </trkpt>
      <trkpt lat="47.553271" lon="8.002109">
        <ele>310.120976</ele>
        <time>2021-11-22T10:49:23.497Z</time>
      </trkpt>
      <trkpt lat="47.553273" lon="8.001687">
        <ele>310.357637</ele>
        <time>2021-11-22T10:49:29.177Z</time>
      </trkpt>
      <trkpt lat="47.553275" lon="7.999860">
        <ele>310.734805</ele>
        <time>2021-11-22T10:49:51.363Z</time>
      </trkpt>
      <trkpt lat="47.553278" lon="7.999508">
        <ele>310.693335</ele>
        <time>2021-11-22T10:49:54.910Z</time>
      </trkpt>
      <trkpt lat="47.553287" lon="7.998380">
        <ele>310.560446</ele>
        <time>2021-11-22T10:50:04.677Z</time>
      </trkpt>
      <trkpt lat="47.553287" lon="7.997190">
        <ele>309.309014</ele>
        <time>2021-11-22T10:50:13.976Z</time>
      </trkpt>
      <trkpt lat="47.553279" lon="7.996528">
        <ele>308.463884</ele>
        <time>2021-11-22T10:50:18.992Z</time>
      </trkpt>
      <trkpt lat="47.553268" lon="7.996252">
        <ele>308.110976</ele>
        <time>2021-11-22T10:50:21.064Z</time>
      </trkpt>
      <trkpt lat="47.553246" lon="7.995617">
        <ele>307.299377</ele>
        <time>2021-11-22T10:50:25.246Z</time>
      </trkpt>
      <trkpt lat="47.553164" lon="7.993925">
        <ele>305.669700</ele>
        <time>2021-11-22T10:50:38.765Z</time>
      </trkpt>
      <trkpt lat="47.553156" lon="7.993696">
        <ele>305.455491</ele>
        <time>2021-11-22T10:50:40.166Z</time>
      </trkpt>
      <trkpt lat="47.553137" lon="7.993190">
        <ele>304.982075</ele>
        <time>2021-11-22T10:50:44.779Z</time>
      </trkpt>
      <trkpt lat="47.553130" lon="7.993014">
        <ele>304.817377</ele>
        <time>2021-11-22T10:50:48.964Z</time>
      </trkpt>
      <trkpt lat="47.553107" lon="7.992226">
        <ele>304.444947</ele>
        <time>2021-11-22T10:50:55.679Z</time>
      </trkpt>
      <trkpt lat="47.553091" lon="7.991915">
        <ele>304.342695</ele>
        <time>2021-11-22T10:50:59.911Z</time>
      </trkpt>
      <trkpt lat="47.553050" lon="7.990744">
        <ele>303.958286</ele>
        <time>2021-11-22T10:51:12.733Z</time>
      </trkpt>
      <trkpt lat="47.553126" lon="7.990240">
        <ele>303.788984</ele>
        <time>2021-11-22T10:51:16.645Z</time>
      </trkpt>
      <trkpt lat="47.553146" lon="7.990113">
        <ele>303.613883</ele>
        <time>2021-11-22T10:51:17.574Z</time>
      </trkpt>
      <trkpt lat="47.553163" lon="7.990004">
        <ele>303.357033</ele>
        <time>2021-11-22T10:51:18.359Z</time>
      </trkpt>
      <trkpt lat="47.553214" lon="7.989758">
        <ele>302.766192</ele>
        <time>2021-11-22T10:51:20.138Z</time>
      </trkpt>
      <trkpt lat="47.553253" lon="7.989578">
        <ele>302.332155</ele>
        <time>2021-11-22T10:51:21.428Z</time>
      </trkpt>
      <trkpt lat="47.553352" lon="7.989142">
        <ele>301.276004</ele>
        <time>2021-11-22T10:51:24.523Z</time>
      </trkpt>
      <trkpt lat="47.553424" lon="7.988762">
        <ele>300.369831</ele>
        <time>2021-11-22T10:51:27.170Z</time>
      </trkpt>
      <trkpt lat="47.553410" lon="7.988607">
        <ele>300.010793</ele>
        <time>2021-11-22T10:51:28.201Z</time>
      </trkpt>
      <trkpt lat="47.553343" lon="7.988401">
        <ele>299.485783</ele>
        <time>2021-11-22T10:51:29.723Z</time>
      </trkpt>
      <trkpt lat="47.553232" lon="7.988247">
        <ele>298.968486</ele>
        <time>2021-11-22T10:51:31.194Z</time>
      </trkpt>
      <trkpt lat="47.552867" lon="7.987810">
        <ele>297.441522</ele>
        <time>2021-11-22T10:51:35.763Z</time>
      </trkpt>
      <trkpt lat="47.552713" lon="7.987638">
        <ele>296.949561</ele>
        <time>2021-11-22T10:51:37.600Z</time>
      </trkpt>
      <trkpt lat="47.552504" lon="7.987369">
        <ele>296.243339</ele>
        <time>2021-11-22T10:51:40.311Z</time>
      </trkpt>
      <trkpt lat="47.552436" lon="7.987273">
        <ele>296.003737</ele>
        <time>2021-11-22T10:51:41.255Z</time>
      </trkpt>
      <trkpt lat="47.552224" lon="7.986975">
        <ele>295.258276</ele>
        <time>2021-11-22T10:51:44.239Z</time>
      </trkpt>
      <trkpt lat="47.552152" lon="7.986883">
        <ele>295.015738</ele>
        <time>2021-11-22T10:51:45.220Z</time>
      </trkpt>
      <trkpt lat="47.551971" lon="7.986555">
        <ele>294.286284</ele>
        <time>2021-11-22T10:51:48.218Z</time>
      </trkpt>
      <trkpt lat="47.551917" lon="7.986288">
        <ele>293.806390</ele>
        <time>2021-11-22T10:51:50.298Z</time>
      </trkpt>
      <trkpt lat="47.551915" lon="7.986209">
        <ele>293.670279</ele>
        <time>2021-11-22T10:51:50.859Z</time>
      </trkpt>
      <trkpt lat="47.551898" lon="7.985654">
        <ele>293.284954</ele>
        <time>2021-11-22T10:51:56.366Z</time>
      </trkpt>
      <trkpt lat="47.551939" lon="7.985151">
        <ele>293.846339</ele>
        <time>2021-11-22T10:52:02.522Z</time>
      </trkpt>
      <trkpt lat="47.551934" lon="7.984260">
        <ele>294.833621</ele>
        <time>2021-11-22T10:52:16.104Z</time>
      </trkpt>
      <trkpt lat="47.551993" lon="7.984014">
        <ele>295.122893</ele>
        <time>2021-11-22T10:52:19.709Z</time>
      </trkpt>
      <trkpt lat="47.552007" lon="7.983931">
        <ele>295.217687</ele>
        <time>2021-11-22T10:52:21.283Z</time>
      </trkpt>
      <trkpt lat="47.552005" lon="7.983849">
        <ele>295.308604</ele>
        <time>2021-11-22T10:52:23.365Z</time>
      </trkpt>
      <trkpt lat="47.551911" lon="7.983632">
        <ele>295.594308</ele>
        <time>2021-11-22T10:52:27.558Z</time>
      </trkpt>
      <trkpt lat="47.551892" lon="7.983447">
        <ele>295.801652</ele>
        <time>2021-11-22T10:52:30.902Z</time>
      </trkpt>
      <trkpt lat="47.551861" lon="7.981113">
        <ele>299.625618</ele>
        <time>2021-11-22T10:53:14.192Z</time>
      </trkpt>
      <trkpt lat="47.551865" lon="7.980584">
        <ele>300.505225</ele>
        <time>2021-11-22T10:53:20.832Z</time>
      </trkpt>
      <trkpt lat="47.551873" lon="7.980135">
        <ele>300.459801</ele>
        <time>2021-11-22T10:53:25.588Z</time>
      </trkpt>
      <trkpt lat="47.551933" lon="7.979363">
        <ele>300.381212</ele>
        <time>2021-11-22T10:53:33.947Z</time>
      </trkpt>
      <trkpt lat="47.551923" lon="7.979308">
        <ele>300.375452</ele>
        <time>2021-11-22T10:53:34.315Z</time>
      </trkpt>
      <trkpt lat="47.551901" lon="7.979190">
        <ele>300.363071</ele>
        <time>2021-11-22T10:53:35.286Z</time>
      </trkpt>
      <trkpt lat="47.551829" lon="7.976305">
        <ele>299.979024</ele>
        <time>2021-11-22T10:54:00.335Z</time>
      </trkpt>
      <trkpt lat="47.551793" lon="7.974325">
        <ele>299.858425</ele>
        <time>2021-11-22T10:54:22.447Z</time>
      </trkpt>
      <trkpt lat="47.551755" lon="7.972603">
        <ele>299.930690</ele>
        <time>2021-11-22T10:54:39.746Z</time>
      </trkpt>
      <trkpt lat="47.551725" lon="7.970823">
        <ele>299.280527</ele>
        <time>2021-11-22T10:54:54.975Z</time>
      </trkpt>
      <trkpt lat="47.551734" lon="7.970034">
        <ele>298.992386</ele>
        <time>2021-11-22T10:55:01.935Z</time>
      </trkpt>
      <trkpt lat="47.551750" lon="7.968659">
        <ele>298.935912</ele>
        <time>2021-11-22T10:55:15.124Z</time>
      </trkpt>
      <trkpt lat="47.551825" lon="7.968445">
        <ele>298.931298</ele>
        <time>2021-11-22T10:55:17.377Z</time>
      </trkpt>
      <trkpt lat="47.551847" lon="7.968315">
        <ele>298.928733</ele>
        <time>2021-11-22T10:55:18.847Z</time>
      </trkpt>
      <trkpt lat="47.551839" lon="7.968208">
        <ele>298.926673</ele>
        <time>2021-11-22T10:55:20.049Z</time>
      </trkpt>
      <trkpt lat="47.551767" lon="7.967910">
        <ele>298.920617</ele>
        <time>2021-11-22T10:55:23.282Z</time>
      </trkpt>
      <trkpt lat="47.551902" lon="7.964650">
        <ele>299.587113</ele>
        <time>2021-11-22T10:55:59.683Z</time>
      </trkpt>
      <trkpt lat="47.551918" lon="7.963725">
        <ele>299.473323</ele>
        <time>2021-11-22T10:56:09.081Z</time>
      </trkpt>
      <trkpt lat="47.551906" lon="7.962453">
        <ele>299.316881</ele>
        <time>2021-11-22T10:56:21.011Z</time>
      </trkpt>
      <trkpt lat="47.551859" lon="7.961133">
        <ele>298.989217</ele>
        <time>2021-11-22T10:56:32.595Z</time>
      </trkpt>
      <trkpt lat="47.551894" lon="7.960729">
        <ele>298.862520</ele>
        <time>2021-11-22T10:56:36.347Z</time>
      </trkpt>
      <trkpt lat="47.551882" lon="7.960631">
        <ele>298.831539</ele>
        <time>2021-11-22T10:56:37.116Z</time>
      </trkpt>
      <trkpt lat="47.551865" lon="7.960528">
        <ele>298.798557</ele>
        <time>2021-11-22T10:56:38.062Z</time>
      </trkpt>
      <trkpt lat="47.551677" lon="7.960100">
        <ele>298.639714</ele>
        <time>2021-11-22T10:56:42.586Z</time>
      </trkpt>
      <trkpt lat="47.551300" lon="7.958844">
        <ele>298.405401</ele>
        <time>2021-11-22T10:56:55.497Z</time>
      </trkpt>
      <trkpt lat="47.550869" lon="7.957700">
        <ele>298.353932</ele>
        <time>2021-11-22T10:57:08.861Z</time>
      </trkpt>
      <trkpt lat="47.550745" lon="7.957569">
        <ele>298.345067</ele>
        <time>2021-11-22T10:57:11.100Z</time>
      </trkpt>
      <trkpt lat="47.550735" lon="7.957541">
        <ele>298.343823</ele>
        <time>2021-11-22T10:57:11.542Z</time>
      </trkpt>
      <trkpt lat="47.550613" lon="7.957254">
        <ele>298.330498</ele>
        <time>2021-11-22T10:57:14.880Z</time>
      </trkpt>
      <trkpt lat="47.550549" lon="7.957126">
        <ele>298.338997</ele>
        <time>2021-11-22T10:57:16.428Z</time>
      </trkpt>
      <trkpt lat="47.550445" lon="7.956918">
        <ele>298.362880</ele>
        <time>2021-11-22T10:57:19.101Z</time>
      </trkpt>
      <trkpt lat="47.550380" lon="7.956806">
        <ele>298.376509</ele>
        <time>2021-11-22T10:57:20.585Z</time>
      </trkpt>
      <trkpt lat="47.550205" lon="7.956552">
        <ele>298.409997</ele>
        <time>2021-11-22T10:57:24.295Z</time>
      </trkpt>
      <trkpt lat="47.549444" lon="7.955496">
        <ele>298.552528</ele>
        <time>2021-11-22T10:57:40.661Z</time>
      </trkpt>
      <trkpt lat="47.549157" lon="7.955099">
        <ele>298.619602</ele>
        <time>2021-11-22T10:57:46.462Z</time>
      </trkpt>
      <trkpt lat="47.549042" lon="7.954942">
        <ele>298.650021</ele>
        <time>2021-11-22T10:57:48.814Z</time>
      </trkpt>
      <trkpt lat="47.548833" lon="7.954652">
        <ele>298.705720</ele>
        <time>2021-11-22T10:57:53.170Z</time>
      </trkpt>
      <trkpt lat="47.548542" lon="7.954269">
        <ele>298.781434</ele>
        <time>2021-11-22T10:57:59.188Z</time>
      </trkpt>
      <trkpt lat="47.548342" lon="7.954009">
        <ele>298.833190</ele>
        <time>2021-11-22T10:58:03.370Z</time>
      </trkpt>
      <trkpt lat="47.548251" lon="7.953895">
        <ele>298.856371</ele>
        <time>2021-11-22T10:58:05.298Z</time>
      </trkpt>
      <trkpt lat="47.548115" lon="7.953729">
        <ele>298.890646</ele>
        <time>2021-11-22T10:58:08.167Z</time>
      </trkpt>
      <trkpt lat="47.547994" lon="7.953584">
        <ele>298.920918</ele>
        <time>2021-11-22T10:58:10.729Z</time>
      </trkpt>
      <trkpt lat="47.547871" lon="7.953437">
        <ele>298.980501</ele>
        <time>2021-11-22T10:58:13.320Z</time>
      </trkpt>
      <trkpt lat="47.547797" lon="7.953355">
        <ele>299.017487</ele>
        <time>2021-11-22T10:58:14.824Z</time>
      </trkpt>
      <trkpt lat="47.547624" lon="7.953160">
        <ele>299.104492</ele>
        <time>2021-11-22T10:58:18.317Z</time>
      </trkpt>
      <trkpt lat="47.547550" lon="7.953078">
        <ele>299.141478</ele>
        <time>2021-11-22T10:58:19.841Z</time>
      </trkpt>
      <trkpt lat="47.547458" lon="7.952975">
        <ele>299.187632</ele>
        <time>2021-11-22T10:58:21.854Z</time>
      </trkpt>
      <trkpt lat="47.547400" lon="7.952910">
        <ele>299.216740</ele>
        <time>2021-11-22T10:58:23.136Z</time>
      </trkpt>
      <trkpt lat="47.547090" lon="7.952543">
        <ele>299.375565</ele>
        <time>2021-11-22T10:58:29.584Z</time>
      </trkpt>
      <trkpt lat="47.546935" lon="7.952372">
        <ele>299.452914</ele>
        <time>2021-11-22T10:58:32.476Z</time>
      </trkpt>
      <trkpt lat="47.546776" lon="7.952185">
        <ele>299.534168</ele>
        <time>2021-11-22T10:58:35.800Z</time>
      </trkpt>
      <trkpt lat="47.546695" lon="7.952091">
        <ele>299.575350</ele>
        <time>2021-11-22T10:58:37.608Z</time>
      </trkpt>
      <trkpt lat="47.546634" lon="7.952024">
        <ele>299.605743</ele>
        <time>2021-11-22T10:58:39.051Z</time>
      </trkpt>
      <trkpt lat="47.546421" lon="7.951793">
        <ele>299.632539</ele>
        <time>2021-11-22T10:58:43.462Z</time>
      </trkpt>
      <trkpt lat="47.546231" lon="7.951558">
        <ele>299.615197</ele>
        <time>2021-11-22T10:58:48.015Z</time>
      </trkpt>
      <trkpt lat="47.546212" lon="7.951535">
        <ele>299.613477</ele>
        <time>2021-11-22T10:58:48.261Z</time>
      </trkpt>
      <trkpt lat="47.546135" lon="7.951406">
        <ele>299.605333</ele>
        <time>2021-11-22T10:58:50.070Z</time>
      </trkpt>
      <trkpt lat="47.545886" lon="7.951110">
        <ele>299.582964</ele>
        <time>2021-11-22T10:58:54.890Z</time>
      </trkpt>
      <trkpt lat="47.545824" lon="7.951061">
        <ele>299.578040</ele>
        <time>2021-11-22T10:58:56.031Z</time>
      </trkpt>
      <trkpt lat="47.545759" lon="7.950982">
        <ele>299.572149</ele>
        <time>2021-11-22T10:58:57.437Z</time>
      </trkpt>
      <trkpt lat="47.545727" lon="7.950947">
        <ele>299.569362</ele>
        <time>2021-11-22T10:58:58.238Z</time>
      </trkpt>
      <trkpt lat="47.545625" lon="7.950829">
        <ele>299.560294</ele>
        <time>2021-11-22T10:58:59.793Z</time>
      </trkpt>
      <trkpt lat="47.545567" lon="7.950765">
        <ele>299.555227</ele>
        <time>2021-11-22T10:59:00.827Z</time>
      </trkpt>
      <trkpt lat="47.545494" lon="7.950684">
        <ele>299.548836</ele>
        <time>2021-11-22T10:59:02.195Z</time>
      </trkpt>
      <trkpt lat="47.545434" lon="7.950668">
        <ele>299.544565</ele>
        <time>2021-11-22T10:59:03.280Z</time>
      </trkpt>
      <trkpt lat="47.545166" lon="7.950366">
        <ele>299.520971</ele>
        <time>2021-11-22T10:59:07.621Z</time>
      </trkpt>
      <trkpt lat="47.544901" lon="7.950044">
        <ele>299.448913</ele>
        <time>2021-11-22T10:59:11.754Z</time>
      </trkpt>
      <trkpt lat="47.544521" lon="7.949558">
        <ele>299.334411</ele>
        <time>2021-11-22T10:59:17.943Z</time>
      </trkpt>
      <trkpt lat="47.544239" lon="7.949202">
        <ele>299.249905</ele>
        <time>2021-11-22T10:59:22.851Z</time>
      </trkpt>
      <trkpt lat="47.543864" lon="7.948694">
        <ele>299.134005</ele>
        <time>2021-11-22T10:59:30.814Z</time>
      </trkpt>
      <trkpt lat="47.543760" lon="7.948548">
        <ele>299.169434</ele>
        <time>2021-11-22T10:59:33.057Z</time>
      </trkpt>
      <trkpt lat="47.543579" lon="7.948287">
        <ele>299.698117</ele>
        <time>2021-11-22T10:59:38.774Z</time>
      </trkpt>
      <trkpt lat="47.543532" lon="7.948214">
        <ele>299.840648</ele>
        <time>2021-11-22T10:59:39.900Z</time>
      </trkpt>
      <trkpt lat="47.543435" lon="7.948000">
        <ele>300.204843</ele>
        <time>2021-11-22T10:59:42.962Z</time>
      </trkpt>
      <trkpt lat="47.543407" lon="7.947938">
        <ele>300.310238</ele>
        <time>2021-11-22T10:59:44.820Z</time>
      </trkpt>
      <trkpt lat="47.543280" lon="7.947656">
        <ele>300.789203</ele>
        <time>2021-11-22T10:59:49.306Z</time>
      </trkpt>
      <trkpt lat="47.543142" lon="7.947250">
        <ele>301.431450</ele>
        <time>2021-11-22T10:59:56.770Z</time>
      </trkpt>
      <trkpt lat="47.543086" lon="7.947052">
        <ele>301.734763</ele>
        <time>2021-11-22T11:00:00.200Z</time>
      </trkpt>
      <trkpt lat="47.543056" lon="7.946935">
        <ele>301.911595</ele>
        <time>2021-11-22T11:00:03.041Z</time>
      </trkpt>
      <trkpt lat="47.543045" lon="7.946881">
        <ele>301.991289</ele>
        <time>2021-11-22T11:00:04.198Z</time>
      </trkpt>
      <trkpt lat="47.542982" lon="7.946547">
        <ele>302.481270</ele>
        <time>2021-11-22T11:00:09.597Z</time>
      </trkpt>
      <trkpt lat="47.542974" lon="7.946495">
        <ele>302.556624</ele>
        <time>2021-11-22T11:00:11.238Z</time>
      </trkpt>
      <trkpt lat="47.542960" lon="7.946400">
        <ele>302.694010</ele>
        <time>2021-11-22T11:00:13.304Z</time>
      </trkpt>
      <trkpt lat="47.542916" lon="7.945730">
        <ele>303.664114</ele>
        <time>2021-11-22T11:00:25.969Z</time>
      </trkpt>
      <trkpt lat="47.542913" lon="7.945267">
        <ele>304.334402</ele>
        <time>2021-11-22T11:00:34.464Z</time>
      </trkpt>
      <trkpt lat="47.543007" lon="7.943867">
        <ele>306.371097</ele>
        <time>2021-11-22T11:00:55.683Z</time>
      </trkpt>
      <trkpt lat="47.543161" lon="7.942213">
        <ele>306.508240</ele>
        <time>2021-11-22T11:01:14.223Z</time>
      </trkpt>
      <trkpt lat="47.543340" lon="7.941201">
        <ele>306.345125</ele>
        <time>2021-11-22T11:01:22.879Z</time>
      </trkpt>
      <trkpt lat="47.543378" lon="7.940987">
        <ele>306.286365</ele>
        <time>2021-11-22T11:01:24.657Z</time>
      </trkpt>
      <trkpt lat="47.543435" lon="7.940670">
        <ele>305.913206</ele>
        <time>2021-11-22T11:01:27.196Z</time>
      </trkpt>
      <trkpt lat="47.543826" lon="7.939433">
        <ele>304.359508</ele>
        <time>2021-11-22T11:01:37.615Z</time>
      </trkpt>
      <trkpt lat="47.544472" lon="7.937932">
        <ele>302.286015</ele>
        <time>2021-11-22T11:01:50.879Z</time>
      </trkpt>
      <trkpt lat="47.544705" lon="7.937395">
        <ele>301.522675</ele>
        <time>2021-11-22T11:01:55.718Z</time>
      </trkpt>
      <trkpt lat="47.544903" lon="7.936917">
        <ele>300.852062</ele>
        <time>2021-11-22T11:01:59.979Z</time>
      </trkpt>
      <trkpt lat="47.545074" lon="7.936484">
        <ele>300.252197</ele>
        <time>2021-11-22T11:02:03.810Z</time>
      </trkpt>
      <trkpt lat="47.545457" lon="7.935110">
        <ele>299.089954</ele>
        <time>2021-11-22T11:02:15.178Z</time>
      </trkpt>
      <trkpt lat="47.545674" lon="7.933625">
        <ele>298.261128</ele>
        <time>2021-11-22T11:02:28.258Z</time>
      </trkpt>
      <trkpt lat="47.545702" lon="7.933290">
        <ele>298.487171</ele>
        <time>2021-11-22T11:02:31.838Z</time>
      </trkpt>
      <trkpt lat="47.545724" lon="7.932758">
        <ele>298.844088</ele>
        <time>2021-11-22T11:02:38.105Z</time>
      </trkpt>
      <trkpt lat="47.545721" lon="7.931992">
        <ele>299.357041</ele>
        <time>2021-11-22T11:02:48.145Z</time>
      </trkpt>
      <trkpt lat="47.545696" lon="7.931497">
        <ele>299.689439</ele>
        <time>2021-11-22T11:02:55.350Z</time>
      </trkpt>
      <trkpt lat="47.545661" lon="7.930955">
        <ele>300.152509</ele>
        <time>2021-11-22T11:03:04.045Z</time>
      </trkpt>
      <trkpt lat="47.545563" lon="7.929641">
        <ele>301.617356</ele>
        <time>2021-11-22T11:03:26.385Z</time>
      </trkpt>
      <trkpt lat="47.545475" lon="7.928419">
        <ele>302.715223</ele>
        <time>2021-11-22T11:03:42.687Z</time>
      </trkpt>
      <trkpt lat="47.545421" lon="7.927686">
        <ele>301.777652</ele>
        <time>2021-11-22T11:03:48.791Z</time>
      </trkpt>
      <trkpt lat="47.545406" lon="7.927306">
        <ele>301.293643</ele>
        <time>2021-11-22T11:03:51.695Z</time>
      </trkpt>
      <trkpt lat="47.545407" lon="7.927001">
        <ele>300.905819</ele>
        <time>2021-11-22T11:03:53.963Z</time>
      </trkpt>
      <trkpt lat="47.545409" lon="7.926773">
        <ele>300.615884</ele>
        <time>2021-11-22T11:03:55.603Z</time>
      </trkpt>
      <trkpt lat="47.545417" lon="7.925848">
        <ele>299.412205</ele>
        <time>2021-11-22T11:04:01.917Z</time>
      </trkpt>
      <trkpt lat="47.545446" lon="7.925350">
        <ele>298.163643</ele>
        <time>2021-11-22T11:04:05.205Z</time>
      </trkpt>
      <trkpt lat="47.545466" lon="7.924880">
        <ele>296.987313</ele>
        <time>2021-11-22T11:04:08.278Z</time>
      </trkpt>
      <trkpt lat="47.545467" lon="7.924854">
        <ele>296.922263</ele>
        <time>2021-11-22T11:04:08.428Z</time>
      </trkpt>
      <trkpt lat="47.545473" lon="7.924654">
        <ele>296.422195</ele>
        <time>2021-11-22T11:04:09.766Z</time>
      </trkpt>
      <trkpt lat="47.545481" lon="7.924396">
        <ele>295.777065</ele>
        <time>2021-11-22T11:04:11.382Z</time>
      </trkpt>
      <trkpt lat="47.545521" lon="7.923709">
        <ele>294.054656</ele>
        <time>2021-11-22T11:04:15.893Z</time>
      </trkpt>
      <trkpt lat="47.545536" lon="7.923407">
        <ele>293.298260</ele>
        <time>2021-11-22T11:04:18.336Z</time>
      </trkpt>
      <trkpt lat="47.545553" lon="7.923142">
        <ele>292.739977</ele>
        <time>2021-11-22T11:04:20.048Z</time>
      </trkpt>
      <trkpt lat="47.545587" lon="7.922895">
        <ele>292.485894</ele>
        <time>2021-11-22T11:04:22.547Z</time>
      </trkpt>
      <trkpt lat="47.545641" lon="7.922610">
        <ele>292.187532</ele>
        <time>2021-11-22T11:04:24.535Z</time>
      </trkpt>
      <trkpt lat="47.545690" lon="7.922369">
        <ele>291.933841</ele>
        <time>2021-11-22T11:04:27.319Z</time>
      </trkpt>
      <trkpt lat="47.545699" lon="7.922325">
        <ele>291.887501</ele>
        <time>2021-11-22T11:04:27.580Z</time>
      </trkpt>
      <trkpt lat="47.545714" lon="7.922249">
        <ele>291.807691</ele>
        <time>2021-11-22T11:04:28.170Z</time>
      </trkpt>
      <trkpt lat="47.545778" lon="7.921947">
        <ele>291.488648</ele>
        <time>2021-11-22T11:04:31.326Z</time>
      </trkpt>
      <trkpt lat="47.545810" lon="7.921755">
        <ele>291.289314</ele>
        <time>2021-11-22T11:04:32.684Z</time>
      </trkpt>
      <trkpt lat="47.545881" lon="7.921096">
        <ele>290.616684</ele>
        <time>2021-11-22T11:04:38.032Z</time>
      </trkpt>
      <trkpt lat="47.545913" lon="7.920765">
        <ele>290.279656</ele>
        <time>2021-11-22T11:04:40.899Z</time>
      </trkpt>
      <trkpt lat="47.545973" lon="7.920313">
        <ele>290.047594</ele>
        <time>2021-11-22T11:04:46.047Z</time>
      </trkpt>
      <trkpt lat="47.546128" lon="7.919617">
        <ele>289.860542</ele>
        <time>2021-11-22T11:04:52.509Z</time>
      </trkpt>
      <trkpt lat="47.546262" lon="7.919081">
        <ele>289.714664</ele>
        <time>2021-11-22T11:04:58.508Z</time>
      </trkpt>
      <trkpt lat="47.546821" lon="7.916867">
        <ele>289.020032</ele>
        <time>2021-11-22T11:05:19.261Z</time>
      </trkpt>
      <trkpt lat="47.547032" lon="7.916218">
        <ele>288.786039</ele>
        <time>2021-11-22T11:05:25.752Z</time>
      </trkpt>
      <trkpt lat="47.547091" lon="7.916039">
        <ele>288.721333</ele>
        <time>2021-11-22T11:05:27.569Z</time>
      </trkpt>
      <trkpt lat="47.547113" lon="7.915971">
        <ele>288.696839</ele>
        <time>2021-11-22T11:05:28.168Z</time>
      </trkpt>
      <trkpt lat="47.547423" lon="7.915080">
        <ele>288.673612</ele>
        <time>2021-11-22T11:05:37.812Z</time>
      </trkpt>
      <trkpt lat="47.547994" lon="7.913433">
        <ele>288.940408</ele>
        <time>2021-11-22T11:05:57.532Z</time>
      </trkpt>
      <trkpt lat="47.548027" lon="7.913334">
        <ele>288.956318</ele>
        <time>2021-11-22T11:05:58.891Z</time>
      </trkpt>
      <trkpt lat="47.548412" lon="7.912168">
        <ele>289.831434</ele>
        <time>2021-11-22T11:06:15.294Z</time>
      </trkpt>
      <trkpt lat="47.549012" lon="7.910340">
        <ele>291.364654</ele>
        <time>2021-11-22T11:06:42.244Z</time>
      </trkpt>
      <trkpt lat="47.549102" lon="7.910058">
        <ele>291.640393</ele>
        <time>2021-11-22T11:06:46.357Z</time>
      </trkpt>
      <trkpt lat="47.549195" lon="7.909756">
        <ele>291.933822</ele>
        <time>2021-11-22T11:06:50.679Z</time>
      </trkpt>
      <trkpt lat="47.549320" lon="7.909340">
        <ele>292.336343</ele>
        <time>2021-11-22T11:06:56.541Z</time>
      </trkpt>
      <trkpt lat="47.549520" lon="7.908678">
        <ele>292.977469</ele>
        <time>2021-11-22T11:07:05.958Z</time>
      </trkpt>
      <trkpt lat="47.549539" lon="7.908625">
        <ele>293.030517</ele>
        <time>2021-11-22T11:07:06.692Z</time>
      </trkpt>
      <trkpt lat="47.550497" lon="7.905558">
        <ele>298.557244</ele>
        <time>2021-11-22T11:08:01.591Z</time>
      </trkpt>
      <trkpt lat="47.550283" lon="7.905413">
        <ele>299.396597</ele>
        <time>2021-11-22T11:08:09.757Z</time>
      </trkpt>
      <trkpt lat="47.550067" lon="7.905245">
        <ele>300.266758</ele>
        <time>2021-11-22T11:08:18.443Z</time>
      </trkpt>
      <trkpt lat="47.549867" lon="7.905155">
        <ele>301.012319</ele>
        <time>2021-11-22T11:08:26.072Z</time>
      </trkpt>
      <trkpt lat="47.549868" lon="7.905010">
        <ele>301.361422</ele>
        <time>2021-11-22T11:08:29.477Z</time>
      </trkpt>
      <trkpt lat="47.550025" lon="7.904774">
        <ele>302.159179</ele>
        <time>2021-11-22T11:08:37.628Z</time>
      </trkpt>
      <trkpt lat="47.550302" lon="7.904164">
        <ele>303.935075</ele>
        <time>2021-11-22T11:08:55.943Z</time>
      </trkpt>
      <trkpt lat="47.550498" lon="7.903445">
        <ele>305.843959</ele>
        <time>2021-11-22T11:09:15.406Z</time>
      </trkpt>
      <trkpt lat="47.550688" lon="7.902451">
        <ele>308.387128</ele>
        <time>2021-11-22T11:09:37.976Z</time>
      </trkpt>
      <trkpt lat="47.550720" lon="7.902049">
        <ele>309.383589</ele>
        <time>2021-11-22T11:09:47.075Z</time>
      </trkpt>
      <trkpt lat="47.550736" lon="7.901854">
        <ele>309.867154</ele>
        <time>2021-11-22T11:09:51.709Z</time>
      </trkpt>
      <trkpt lat="47.550757" lon="7.901591">
        <ele>310.566447</ele>
        <time>2021-11-22T11:09:57.860Z</time>
      </trkpt>
      <trkpt lat="47.550769" lon="7.901362">
        <ele>311.223633</ele>
        <time>2021-11-22T11:10:03.660Z</time>
      </trkpt>
      <trkpt lat="47.550801" lon="7.900244">
        <ele>314.425323</ele>
        <time>2021-11-22T11:10:28.040Z</time>
      </trkpt>
      <trkpt lat="47.550819" lon="7.898109">
        <ele>319.755873</ele>
        <time>2021-11-22T11:11:15.189Z</time>
      </trkpt>
      <trkpt lat="47.550648" lon="7.896481">
        <ele>323.101649</ele>
        <time>2021-11-22T11:11:42.844Z</time>
      </trkpt>
      <trkpt lat="47.550639" lon="7.896345">
        <ele>323.310624</ele>
        <time>2021-11-22T11:11:45.219Z</time>
      </trkpt>
      <trkpt lat="47.550660" lon="7.896255">
        <ele>323.389165</ele>
        <time>2021-11-22T11:11:46.020Z</time>
      </trkpt>
      <trkpt lat="47.550838" lon="7.895509">
        <ele>324.041764</ele>
        <time>2021-11-22T11:11:56.188Z</time>
      </trkpt>
      <trkpt lat="47.550878" lon="7.895158">
        <ele>324.335358</ele>
        <time>2021-11-22T11:12:00.250Z</time>
      </trkpt>
      <trkpt lat="47.550908" lon="7.894308">
        <ele>325.037373</ele>
        <time>2021-11-22T11:12:10.722Z</time>
      </trkpt>
      <trkpt lat="47.550892" lon="7.893176">
        <ele>326.983163</ele>
        <time>2021-11-22T11:12:25.440Z</time>
      </trkpt>
      <trkpt lat="47.550904" lon="7.891725">
        <ele>330.557026</ele>
        <time>2021-11-22T11:12:55.202Z</time>
      </trkpt>
      <trkpt lat="47.550915" lon="7.890600">
        <ele>334.237597</ele>
        <time>2021-11-22T11:13:24.042Z</time>
      </trkpt>
      <trkpt lat="47.550833" lon="7.889069">
        <ele>340.660410</ele>
        <time>2021-11-22T11:14:06.676Z</time>
      </trkpt>
      <trkpt lat="47.550831" lon="7.888611">
        <ele>342.575820</ele>
        <time>2021-11-22T11:14:19.246Z</time>
      </trkpt>
      <trkpt lat="47.550789" lon="7.887816">
        <ele>345.736432</ele>
        <time>2021-11-22T11:14:39.858Z</time>
      </trkpt>
      <trkpt lat="47.550758" lon="7.887295">
        <ele>347.784653</ele>
        <time>2021-11-22T11:14:53.679Z</time>
      </trkpt>
      <trkpt lat="47.550677" lon="7.886476">
        <ele>351.026225</ele>
        <time>2021-11-22T11:15:15.168Z</time>
      </trkpt>
      <trkpt lat="47.550548" lon="7.885799">
        <ele>353.742252</ele>
        <time>2021-11-22T11:15:32.371Z</time>
      </trkpt>
      <trkpt lat="47.550391" lon="7.885109">
        <ele>355.961786</ele>
        <time>2021-11-22T11:15:50.009Z</time>
      </trkpt>
      <trkpt lat="47.550332" lon="7.884727">
        <ele>357.156286</ele>
        <time>2021-11-22T11:15:58.699Z</time>
      </trkpt>
      <trkpt lat="47.550234" lon="7.883221">
        <ele>361.759496</ele>
        <time>2021-11-22T11:16:31.530Z</time>
      </trkpt>
      <trkpt lat="47.549927" lon="7.881490">
        <ele>366.015152</ele>
        <time>2021-11-22T11:17:03.794Z</time>
      </trkpt>
      <trkpt lat="47.549726" lon="7.880786">
        <ele>367.832723</ele>
        <time>2021-11-22T11:17:19.771Z</time>
      </trkpt>
      <trkpt lat="47.549327" lon="7.879547">
        <ele>371.722711</ele>
        <time>2021-11-22T11:17:49.555Z</time>
      </trkpt>
      <trkpt lat="47.549318" lon="7.879398">
        <ele>372.151841</ele>
        <time>2021-11-22T11:17:52.743Z</time>
      </trkpt>
      <trkpt lat="47.549140" lon="7.879391">
        <ele>372.908620</ele>
        <time>2021-11-22T11:17:59.613Z</time>
      </trkpt>
      <trkpt lat="47.548718" lon="7.879258">
        <ele>374.742278</ele>
        <time>2021-11-22T11:18:13.284Z</time>
      </trkpt>
      <trkpt lat="47.548422" lon="7.878959">
        <ele>375.906726</ele>
        <time>2021-11-22T11:18:23.931Z</time>
      </trkpt>
      <trkpt lat="47.548234" lon="7.878638">
        <ele>376.339374</ele>
        <time>2021-11-22T11:18:32.363Z</time>
      </trkpt>
      <trkpt lat="47.547992" lon="7.877974">
        <ele>377.107579</ele>
        <time>2021-11-22T11:18:45.460Z</time>
      </trkpt>
      <trkpt lat="47.547574" lon="7.876801">
        <ele>378.346362</ele>
        <time>2021-11-22T11:18:59.224Z</time>
      </trkpt>
      <trkpt lat="47.547126" lon="7.875801">
        <ele>375.721761</ele>
        <time>2021-11-22T11:19:08.006Z</time>
      </trkpt>
      <trkpt lat="47.546309" lon="7.874154">
        <ele>369.997639</ele>
        <time>2021-11-22T11:19:21.195Z</time>
      </trkpt>
      <trkpt lat="47.546135" lon="7.873859">
        <ele>368.340838</ele>
        <time>2021-11-22T11:19:23.577Z</time>
      </trkpt>
      <trkpt lat="47.546077" lon="7.873763">
        <ele>367.795963</ele>
        <time>2021-11-22T11:19:24.388Z</time>
      </trkpt>
      <trkpt lat="47.545934" lon="7.873549">
        <ele>366.522452</ele>
        <time>2021-11-22T11:19:26.192Z</time>
      </trkpt>
      <trkpt lat="47.545746" lon="7.873302">
        <ele>364.948082</ele>
        <time>2021-11-22T11:19:28.481Z</time>
      </trkpt>
      <trkpt lat="47.545515" lon="7.873015">
        <ele>363.059177</ele>
        <time>2021-11-22T11:19:31.158Z</time>
      </trkpt>
      <trkpt lat="47.545478" lon="7.872968">
        <ele>362.753807</ele>
        <time>2021-11-22T11:19:31.604Z</time>
      </trkpt>
      <trkpt lat="47.545375" lon="7.872836">
        <ele>361.900514</ele>
        <time>2021-11-22T11:19:32.782Z</time>
      </trkpt>
      <trkpt lat="47.545131" lon="7.872664">
        <ele>361.326070</ele>
        <time>2021-11-22T11:19:35.294Z</time>
      </trkpt>
      <trkpt lat="47.544883" lon="7.872555">
        <ele>361.326070</ele>
        <time>2021-11-22T11:19:37.633Z</time>
      </trkpt>
      <trkpt lat="47.544390" lon="7.872423">
        <ele>361.326070</ele>
        <time>2021-11-22T11:19:42.274Z</time>
      </trkpt>
      <trkpt lat="47.544389" lon="7.872422">
        <ele>361.326070</ele>
        <time>2021-11-22T11:19:42.294Z</time>
      </trkpt>
      <trkpt lat="47.544201" lon="7.872389">
        <ele>361.326070</ele>
        <time>2021-11-22T11:19:44.140Z</time>
      </trkpt>
    </trkseg>
  </trk>
</gpx>